     2.10           OBSERVATION DATA    G (GPS)             RINEX VERSION / TYPE
teqc 2005May6 SOPAC 20050707 00:28:20UTC                    PGM / RUN BY / DATE
Linux 2.4.20-8|Pentium IV|gcc|Linux|486/DX+                 COMMENT
BIT 2 OF LLI FLAGS DATA COLLECTED UNDER A/S CONDITION       COMMENT
GRENADA SOUTH BASE 1952                                     MARKER NAME
GRSB                                                        MARKER NUMBER
Dave McLennan                                               OBSERVER / AGENCY
0220223924 TRIMBLE 4700 1.30                                REC # / TYPE / VERS
0220078888 TRM22020.00+GP NONE                              ANT # / TYPE
 -2570399.0000 -4030699.0000  4209273.0000                  APPROX POSITION XYZ
        2.0000        0.0000        0.0000                  ANTENNA: DELTA H/E/N
     1     1                                                WAVELENGTH FACT L1/2
     6    L1    L2    C1    P2    P1    D1                  # / TYPES OF OBSERV
    15.0000                                                 INTERVAL
Northern California Height Modernization 2004               COMMENT
                                                            COMMENT
SOPAC - Scripps Orbit and Permanent Array Center            COMMENT
IGPP - Institute of Geophysics and Planetary Physics        COMMENT
SIO - Scripps Institution of Oceanography                   COMMENT
UCSD - University of California, San Diego                  COMMENT
                                                            COMMENT
email: archive@gpsmail.ucsd.edu                             COMMENT
ftp://garner.ucsd.edu                                       COMMENT
http://sopac.ucsd.edu                                       COMMENT
                                                            COMMENT
                                                            COMMENT
Approximate Lat, Lon : 41.555, -122.526                     COMMENT
                                                            COMMENT
SNR is mapped to RINEX snr flag value [0-9]                 COMMENT
L1 & L2: 2-19 dBHz = 1, 20-27 dBHz = 2, 28-31 dBHz = 3      COMMENT
32-35 dBHz = 4, 36-38 dBHz = 5, 39-41 dBHz = 6              COMMENT
42-44 dBHz = 7, 45-48 dBHz = 8, >= 49 dBHz = 9              COMMENT
  2004     9     8    20    59   30.0000000     GPS         TIME OF FIRST OBS
                                                            END OF HEADER
 04  9  8 20 59 30.0000000  0  6G 3G 8G13G16G23G27
     -7441.46156     -7221.80853  23309029.9534   23309030.2624
       428.0314
    -30118.76458    -15980.47555  23132589.3054   23132588.7234
      1736.6254
     12566.35259       487.27458  20301592.4844   20301589.9104
      -725.0944
     71940.16557     23486.65553  23917676.2894   23917675.7194
     -4142.5944
     55829.27459     19057.97758  21481272.5554   21481267.9844
     -3179.8284
     -8562.55659     -7584.86958  21626013.6174   21626012.0634
       482.9534
 04  9  8 20 59 45.0000000  0  6G 3G 8G13G16G23G27
    -13803.07747    -12178.85543  23307820.2034   23307819.7774
       419.4534
    -56145.33548    -36260.84244  23127636.4064   23127636.1954
      1733.0314
     23498.17549      9005.63247  20303672.5084   20303670.1564
      -733.1094
    134108.69346     71929.68743  23929506.7734   23929506.1174
     -4147.1254
    103573.00649     56260.91947  21490357.7974   21490353.4654
     -3186.5944
    -15782.35149    -13210.62047  21624639.6414   21624638.4064
       479.0314
 04  9  8 21  0  0.0000000  0  6G 3G 8G13G16G23G27
    -20003.45348    -17010.27343  23306639.9924   23306639.7344
       406.8754
    -82087.78948    -56475.69644  23122699.2274   23122699.3954
      1725.5004
     34581.43649     17641.94547  20305781.6564   20305779.1954
      -745.1094
    196377.82947    120451.05043  23941356.5554   23941355.6484
     -4155.7664
    151449.86049     93567.56147  21499468.3134   21499464.3834
     -3197.3914
    -22911.17449    -18765.52247  21623283.2274   21623281.5824
       471.0944
 04  9  8 21  0 15.0000000  0  6G 3G 8G13G16G23G27
    -25997.90348    -21681.25344  23305499.2274   23305499.5594
       392.3284
   -107901.67248    -76590.37145  23117787.1884   23117786.8054
      1716.1414
     45860.65249     26430.95147  20307928.0864   20307925.3674
      -758.9844
    258791.67847    169085.18943  23953232.6884   23953232.3284
     -4166.1564
    199504.26149    131012.53647  21508612.6484   21508608.8954
     -3210.0164
    -29904.58349    -24214.91847  21621952.4304   21621950.9304
       461.3134
 04  9  8 21  0 30.0000000  0  6G 3G 8G13G16G23G27
    -31754.72448    -26167.08744  23304404.0164   23304404.4104
       375.0164
   -133555.55647    -96580.38845  23112904.9694   23112905.1374
      1704.0314
     57367.36649     35397.22747  20310117.7034   20310115.1094
      -775.5784
    321381.25147    217856.26143  23965143.5234   23965142.7734
     -4179.4224
    247767.61249    168620.32747  21517797.0944   21517793.1134
     -3225.4064
    -36731.27649    -29534.41447  21620653.1414   21620651.7894
       448.6884
 04  9  8 21  0 45.0000000  0  6G 3G 8G13G16G23G27
    -37251.85247    -30450.53944  23303357.4454   23303358.0864
       357.6414
   -159027.56447   -116428.65645  23108058.3674   23108057.9964
      1691.8594
     69123.38449     44557.75047  20312354.9224   20312352.1454
      -792.2344
    384167.94146    266780.90942  23977091.2424   23977090.6484
     -4192.4844
    296261.34949    206407.62747  21527025.3914   21527021.6214
     -3240.8124
    -43369.42749    -34706.99147  21619390.2114   21619388.5744
       435.9694
 04  9  8 21  1  0.0000000  0  6G 3G 8G13G16G23G27
    -42476.09948    -34521.34144  23302363.5864   23302364.2114
       338.9064
   -184304.68247   -136125.09145  23103248.1804   23103247.6294
      1678.4224
     81141.88149     53922.82047  20314642.2664   20314639.7274
      -810.2504
    447164.47847    315869.12843  23989080.1644   23989078.8324
     -4207.0164
    344998.42249    244384.55547  21536299.7664   21536295.5124
     -3257.5474
    -49806.10449    -39722.56247  21618164.9454   21618163.7624
       422.1094
 04  9  8 21  1 15.0000000  0  6G 3G 8G13G16G23G27
    -47417.69248    -38371.89844  23301423.3054   23301423.9804
       319.6094
   -209377.24348   -155662.13444  23098476.3914   23098476.3634
      1664.3754
     93432.46149     63499.89748  20316980.7424   20316977.8754
      -828.8284
    510380.12847    365128.01142  24001109.0234   24001108.5664
     -4222.0784
    393988.25749    282558.42547  21545622.0944   21545618.3014
     -3274.7504
    -56031.78249    -44573.74047  21616980.2424   21616978.7624
       407.5944
 04  9  8 21  1 30.0000000  0  6G 3G 8G13G16G23G27
    -52075.77948    -42001.56944  23300536.8284   23300536.6024
       301.2344
   -234244.94847   -175039.53944  23093744.9384   23093743.7774
      1651.1254
    105995.79049     73289.50847  20319371.6174   20319369.3094
      -846.5314
    573815.03947    414557.77842  24013180.6564   24013179.5274
     -4236.2194
    443231.36449    320929.65947  21554992.7894   21554988.9224
     -3291.2344
    -62045.96749    -49260.10247  21615835.9534   21615834.4064
       394.0164
 04  9  8 21  1 45.0000000  0  6G 3G 8G13G16G23G27
    -56451.54648    -45411.23944  23299703.8364   23299704.1564
       282.1724
   -258908.91847   -194258.19345  23089051.6094   23089050.5984
      1637.4384
    118831.07949     83291.02748  20321813.9534   20321811.3444
      -864.8444
    637467.52947    464157.08943  24025293.5164   24025291.9414
     -4250.9224
    492726.29049    359497.11547  21564411.3754   21564407.2344
     -3308.2344
    -67850.02949    -53782.74047  21614731.3284   21614730.0904
       379.7814
 04  9  8 21  2  0.0000000  0  6G 3G 8G13G16G23G27
    -60546.24948    -48601.90244  23298924.9304   23298925.1294
       263.7664
   -283370.87948   -213319.42545  23084396.4064   23084395.6454
      1624.2034
    131936.35449     93502.93348  20324307.6334   20324305.4964
      -882.5314
    701335.74147    513924.50943  24037447.2584   24037445.9654
     -4264.8754
    542471.25049    398259.39347  21573877.5084   21573873.5354
     -3324.5784
    -73445.54849    -58142.87747  21613667.1334   21613665.7774
       366.2034
 04  9  8 21  2 15.0000000  0  6G 3G 8G13G16G23G27
    -64371.39847    -51582.51743  23298197.0704   23298197.0664
       246.0164
   -307642.43948   -232232.30245  23079777.7424   23079777.4064
      1611.7344
    145299.98149    103916.15148  20326850.8754   20326848.4224
      -899.5004
    765407.53547    563850.55043  24049639.8134   24049638.7114
     -4278.2194
    592454.50749    437207.36847  21583388.9144   21583385.0634
     -3340.1414
    -78844.32449    -62349.71247  21612639.3914   21612638.0274
       353.3914
 04  9  8 21  2 30.0000000  0  6G 3G 8G13G16G23G27
    -67930.38047    -54355.72243  23297519.2274   23297520.2664
       228.7814
   -331727.04848   -250999.49545  23075194.5474   23075193.9884
      1599.7344
    158918.53749    114528.02348  20329442.5314   20329439.4614
      -916.0624
    829679.06547    613932.25642  24061870.0784   24061868.9304
     -4291.0164
    642672.40449    476338.19547  21592945.1414   21592940.9844
     -3355.3124
    -84049.91049    -66405.99847  21611648.6334   21611647.5164
       341.0164
 04  9  8 21  2 45.0000000  0  6G 3G 8G13G16G23G27
    -71234.82648    -56930.59243  23296890.3834   23296891.2704
       211.8594
   -355636.55348   -269630.26445  23070644.8984   23070644.2734
      1588.1884
    172780.29649    125329.38747  20332080.1724   20332077.4534
      -932.1724
    894137.94147    664159.92243  24074136.3754   24074135.5164
     -4303.3914
    693112.95349    515642.49547  21602544.0004   21602539.9064
     -3370.0474
    -89074.21649    -70321.03847  21610692.6484   21610691.3014
       328.9384
 04  9  8 21  3  0.0000000  0  6G 3G 8G13G16G23G27
    -74289.26248    -59310.63944  23296309.1954   23296310.2934
       195.2814
   -379375.85148   -288128.40145  23066127.4844   23066126.8554
      1576.9534
    186880.55049    136316.59847  20334763.1414   20334760.9494
      -947.9374
    958779.18048    714529.69343  24086437.5474   24086436.5044
     -4315.5004
    743771.14949    555116.38547  21612183.6884   21612179.6134
     -3384.4844
    -93922.16849    -74098.65047  21609769.9224   21609768.7114
       317.2664
 04  9  8 21  3 15.0000000  0  6G 3G 8G13G16G23G27
    -77101.82347    -61502.22844  23295774.6174   23295774.7814
       179.8134
   -402953.07948   -306500.24645  23061640.9064   23061640.3094
      1566.7344
    201211.10249    147483.26147  20337490.2274   20337487.7894
      -962.6414
   1023594.01947    765034.71743  24098770.6564   24098769.8484
     -4326.3754
    794638.54349    594753.29847  21621863.4774   21621859.9024
     -3397.7344
    -98602.11449    -77745.35747  21608879.0634   21608878.5314
       306.7814
 04  9  8 21  3 30.0000000  0  6G 3G 8G13G16G23G27
    -79680.40348    -63511.49044  23295283.9924   23295283.4574
       164.5314
   -426376.44448   -324752.19645  23057183.5164   23057183.2664
      1556.7974
    215763.83949    158823.04748  20340259.5704   20340257.2234
      -977.1724
   1088573.95447    815668.39343  24111136.5704   24111135.3554
     -4337.0624
    845706.74349    634546.68547  21631581.2894   21631577.0314
     -3410.8284
   -103122.26849    -81267.55247  21608019.2974   21608017.8364
       296.4534
 04  9  8 21  3 45.0000000  0  6G 3G 8G13G16G23G27
    -82031.80648    -65343.75744  23294836.6724   23294836.3404
       149.7664
   -449653.05948   -342889.81645  23052754.1334   23052753.6174
      1547.4384
    230531.78949    170330.52847  20343070.1884   20343067.4494
      -991.2194
   1153711.60547    866424.98343  24123531.4384   24123530.6764
     -4347.1254
    896968.72549    674491.04747  21641336.3984   21641332.0634
     -3423.3284
   -107489.64149    -84670.69547  21607188.1414   21607186.8244
       286.6564
 04  9  8 21  4  0.0000000  0  6G 3G 8G13G16G23G27
    -84168.16048    -67008.42544  23294429.5634   23294429.7194
       134.9534
   -472795.07948   -360922.55045  23048349.8984   23048349.5824
      1537.9844
    245502.96049    181996.37248  20345918.9384   20345916.2304
     -1005.1874
   1218994.36247    917294.62943  24135953.8284   24135953.8754
     -4357.2504
    948412.07449    714576.76047  21651125.5944   21651121.4574
     -3435.9224
   -111716.59049    -87964.41647  21606384.0004   21606382.6054
       276.8284
 04  9  8 21  4 15.0000000  0  6G 3G 8G13G16G23G27
    -86093.23048    -68508.45444  23294063.1094   23294063.5864
       121.5164
   -495806.80348   -378853.73845  23043971.1564   23043970.4654
      1529.9694
    260673.22349    193817.36247  20348805.6024   20348803.0554
     -1017.8914
   1284417.81147    968273.90143  24148404.3284   24148404.0394
     -4366.0784
   1000032.52049    754800.47147  21660948.9224   21660944.6374
     -3447.1254
   -115807.25849    -91151.94147  21605605.3914   21605603.9804
       268.3444
 04  9  8 21  4 30.0000000  0  6G 3G 8G13G16G23G27
    -87812.82548    -69848.38844  23293736.1954   23293736.8594
       107.9844
   -518693.97048   -396687.87345  23039615.7034   23039615.3204
      1521.8914
    276036.81149    205788.99747  20351729.2974   20351726.5704
     -1030.4844
   1349975.68048   1019357.91643  24160879.4694   24160878.8834
     -4374.8594
   1051824.09949    795157.53647  21670804.2504   21670801.2274
     -3458.2664
   -119767.64849    -94237.94647  21604851.9694   21604850.7074
       259.8754
 04  9  8 21  4 45.0000000  0  6G 3G 8G13G16G23G27
    -89327.91248    -71028.95244  23293447.8134   23293448.7584
        94.5944
   -541457.93748   -414426.01445  23035283.7974   23035283.4494
      1513.9064
    291592.65249    217910.42347  20354689.4614   20354686.9884
     -1043.1094
   1415666.44948   1070545.48442  24173380.4694   24173379.6374
     -4383.4064
   1103785.42249    835646.85047  21680692.4064   21680688.2194
     -3469.3444
   -123598.95849    -97223.37447  21604122.5784   21604120.8404
       251.5634
 04  9  8 21  5  0.0010000  0  6G 3G 8G13G16G23G27
    -90647.50548    -72057.19644  23293196.6384   23293197.9464
        81.3284
   -564109.32048   -432076.42645  23030973.6384   23030972.6734
      1506.0634
    307332.49449    230175.23247  20357684.8024   20357682.1224
     -1055.5004
   1481484.90847   1121832.58343  24185905.3104   24185904.4274
     -4391.8594
   1155910.67049    876263.90347  21690611.0914   21690607.6574
     -3480.3444
   -127310.66449   -100115.61247  21603416.4664   21603415.1034
       243.3444
 04  9  8 21  5 15.0010000  0  6G 3G 8G13G16G23G27
    -91775.26848    -72935.95644  23292982.0214   23292982.8924
        68.7664
   -586648.79349   -449639.62346  23026684.4894   23026683.9504
      1499.0004
    323250.26949    242578.68547  20360713.4974   20360710.8294
     -1067.1094
   1547417.88848   1173208.90043  24198451.8494   24198451.6814
     -4399.4534
   1208188.76049    917000.04847  21700559.6064   21700555.6184
     -3490.4064
   -130906.38749   -102917.47847  21602732.5524   21602730.9314
       235.9064
 04  9  8 21  5 30.0010000  0  6G 3G 8G13G16G23G27
    -92715.71548    -73668.76944  23292802.9894   23292803.6304
        56.0004
   -609082.48948   -467120.40646  23022415.2004   23022415.4234
      1491.6094
    339342.61249    255118.17647  20363775.9974   20363773.5564
     -1079.1254
   1613464.84548   1224674.05443  24211019.7244   24211019.3174
     -4407.3914
   1260618.41449    957854.30847  21710536.5134   21710533.0954
     -3500.7194
   -134390.93149   -105632.68847  21602069.3964   21602067.7284
       228.1094
 04  9  8 21  5 45.0010000  0  6G 3G 8G13G16G23G27
    -93468.10848    -74255.02943  23292659.8564   23292660.1694
        44.6094
   -631410.11949   -484518.53346  23018166.4814   23018166.2244
      1485.6254
    355610.17449    267794.19748  20366871.6464   20366869.3064
     -1089.6254
   1679625.96447   1276228.14242  24223609.5054   24223608.8604
     -4413.8284
   1313199.88249    998826.85247  21720542.1384   21720538.5364
     -3509.7814
   -137763.88949   -108260.96747  21601427.1694   21601426.3374
       221.7974
 04  9  8 21  6  0.0010000  0  7G 3G 8G13G16G23G27G19
    -94046.92348    -74706.05443  23292550.3174   23292550.0524
        32.2344
   -653646.35249   -501845.44646  23013935.5054   23013934.3214
      1478.8134
    372038.25749    280595.29047  20369997.5994   20369995.6964
     -1101.0624
   1745886.15647   1327859.42442  24236219.2474   24236218.7124
     -4421.2344
   1365918.40949   1039906.19847  21730574.4194   21730571.4114
     -3519.5784
   -141040.09749   -110813.84447  21600803.7394   21600802.6464
       214.6564
    -53205.38456    -34151.75252  24342352.0134   24342350.6424
      1572.1094
 04  9  8 21  6 15.0010000  0  7G 3G 8G13G16G23G27G19
    -94447.97348    -75018.53443  23292472.9974   23292473.4424
        21.0474
   -675787.38049   -519098.16346  23009721.6534   23009721.7044
      1473.0474
    388630.82949    293524.57247  20373155.3804   20373152.7354
     -1111.5004
   1812248.98047   1379570.68342  24248846.9274   24248847.0364
     -4427.4374
   1418777.77449   1081095.28847  21740633.7634   21740629.6574
     -3528.4534
   -144215.66149   -113288.30647  21600199.8254   21600198.3724
       208.5474
    -76745.52446    -52494.66942  24337872.9584   24337871.6424
      1566.4694
 04  9  8 21  6 30.0010000  0  7G 3G 8G13G16G23G27G19
    -94672.39348    -75193.39343  23292430.3964   23292430.5564
         9.2814
   -697834.75449   -536277.91846  23005526.4504   23005525.6854
      1466.8594
    405386.70349    306581.09547  20376344.0444   20376341.4154
     -1122.3594
   1878712.84247   1431360.64743  24261495.4584   24261494.8764
     -4434.0944
   1471776.51749   1122392.99747  21750718.8564   21750715.0524
     -3537.7034
   -147291.81149   -115685.29247  21599614.0674   21599612.5134
       202.0164
   -100193.01647    -70765.39943  24333410.5834   24333410.1694
      1560.3594
 04  9  8 21  6 45.0010000  0  7G 3G 8G13G16G23G27G19
    -94729.91348    -75238.19343  23292419.3104   23292419.8804
        -1.8594
   -719797.97149   -553392.09346  23001346.8024   23001346.3684
      1461.3134
    422296.10049    319757.25148  20379561.5444   20379558.9624
     -1132.5474
   1945267.44947   1483221.34842  24274159.5134   24274159.8104
     -4440.0944
   1524904.70149   1163791.56147  21760828.9034   21760824.9154
     -3546.3594
   -150278.52349   -118012.59547  21599045.8414   21599044.6034
       195.9844
   -123557.45047    -88971.38343  24328965.9814   24328964.2904
      1554.7034
 04  9  8 21  7  0.0010000  0  7G 3G 8G13G16G23G27G19
    -94621.61648    -75153.78444  23292439.9814   23292441.1814
       -13.0004
   -741678.09249   -570441.51446  22997183.3724   22997182.4854
      1455.7194
    439357.69549    333051.99047  20382808.1304   20382805.3884
     -1142.6724
   2011911.11847   1535151.44942  24286841.1384   24286841.7394
     -4445.9844
   1578160.77949   1205289.78447  21770963.0054   21770959.2594
     -3554.8914
   -153177.15349   -120271.27347  21598494.2084   21598492.5134
       190.1414
   -146839.78347   -107113.43043  24324535.2714   24324533.8294
      1549.2194
 04  9  8 21  7 15.0010000  0  7G 3G 8G13G16G23G27G19
    -94345.22548    -74938.40344  23292493.8334   23292493.5874
       -23.8594
   -763473.38449   -587424.83746  22993035.2244   22993035.0564
      1450.3594
    456573.66049    346467.02548  20386084.4974   20386082.2554
     -1152.7034
   2078645.48347   1587152.18743  24299540.0994   24299541.0404
     -4451.8594
   1631546.67449   1246889.15747  21781121.9584   21781118.1654
     -3563.1874
   -155985.86749   -122459.87247  21597959.7864   21597957.9424
       184.3444
   -170037.67347   -125189.66843  24320120.4744   24320119.1964
      1543.8754
 04  9  8 21  7 30.0010000  0  7G 3G 8G13G16G23G27G19
    -93904.47648    -74594.94444  23292576.9424   23292577.5444
       -34.7664
   -785187.64349   -604345.01646  22988903.3964   22988903.0994
      1445.0164
    473940.36849    359999.52548  20389389.2004   20389387.0714
     -1162.6874
   2145466.47847   1639220.43742  24312255.8884   24312256.0214
     -4457.5474
   1685058.39949   1288586.58947  21791305.0754   21791301.1814
     -3571.5314
   -158708.51649   -124581.40347  21597441.6224   21597439.9624
       178.7194
   -193154.61747   -143202.85843  24315720.6384   24315720.0954
      1538.5784
 04  9  8 21  7 45.0010000  0  7G 3G 8G13G16G23G27G19
    -93299.41448    -74123.46244  23292691.7004   23292692.5444
       -46.1414
   -806820.91348   -621202.08346  22984786.7084   22984786.0094
      1439.2344
    491457.50449    373649.23448  20392722.6614   20392720.5244
     -1173.0944
   2212373.53447   1691355.78542  24324988.0214   24324988.2594
     -4463.6254
   1738695.61549   1330381.78847  21801511.9424   21801507.8374
     -3580.2194
   -161345.29849   -126636.03847  21596939.8964   21596938.4234
       172.7194
   -216190.49847   -161152.81243  24311337.0754   24311337.1064
      1532.8134
 04  9  8 21  8  0.0010000  0  7G 3G 8G13G16G23G27G19
    -92531.58648    -73525.12844  23292837.7314   23292838.6654
       -56.5474
   -828375.08949   -637997.53046  22980685.0524   22980684.3804
      1434.3594
    509123.48449    387414.94247  20396083.9504   20396081.7944
     -1182.6254
   2279364.54847   1743556.53443  24337736.2944   24337736.5444
     -4468.7504
   1792456.43649   1372273.31847  21811742.0914   21811738.4704
     -3588.1724
   -163897.85649   -128625.03947  21596454.2554   21596452.5604
       167.4384
   -239146.72347   -179040.76443  24306969.0284   24306968.1384
      1527.8284
 04  9  8 21  8 15.0010000  0  7G 3G 8G13G16G23G27G19
    -91603.80248    -72802.16444  23293014.4034   23293014.6534
       -67.4064
   -849853.33448   -654733.80945  22976598.0674   22976597.4114
      1429.0784
    526935.24549    401294.22447  20399473.6614   20399471.2514
     -1192.5624
   2346435.96347   1795819.91742  24350499.9504   24350499.5714
     -4474.3444
   1846337.64849   1414258.66247  21821995.6064   21821991.3964
     -3596.3124
   -166369.50849   -130550.99947  21595983.6304   21595982.0994
       161.8444
   -262026.08247   -196868.76443  24302615.5674   24302614.6144
      1522.4224
 04  9  8 21  8 30.0010000  0  7G 3G 8G13G16G23G27G19
    -90515.53848    -71954.14344  23293221.4894   23293221.0874
       -77.7974
   -871255.38949   -671410.71445  22972525.2164   22972524.4934
      1424.3284
    544893.19449    415287.43648  20402891.0834   20402888.6814
     -1202.0164
   2413587.85847   1848146.04043  24363278.3174   24363278.2744
     -4479.4374
   1900339.34249   1456337.88047  21832271.3964   21832267.8414
     -3604.0624
   -168759.94549   -132413.66548  21595528.7164   21595527.6304
       156.8284
   -284827.93347   -214636.41543  24298276.0604   24298274.8994
      1517.6094
 04  9  8 21  8 45.0010000  0  7G 3G 8G13G16G23G27G19
    -89273.41848    -70986.26444  23293458.0674   23293457.6344
       -87.6564
   -892587.90148   -688033.43645  22968466.0914   22968465.0914
      1420.0944
    562990.49549    429389.21847  20406334.9194   20406332.5054
     -1210.8594
   2480812.97647   1900529.19143  24376070.8334   24376070.5134
     -4483.8594
   1954454.58049   1498505.58147  21842569.5214   21842565.8534
     -3611.1414
   -171076.12149   -134218.48047  21595087.8884   21595086.3994
       152.2194
   -307558.72847   -232348.65743  24293950.3024   24293948.8684
      1513.2344
 04  9  8 21  9  0.0010000  0  7G 3G 8G13G16G23G27G19
    -87879.56448    -69900.15044  23293723.7944   23293722.9114
       -98.2034
   -913852.99648   -704603.63245  22964419.3884   22964418.4154
      1415.1414
    581225.02149    443597.94047  20409804.4584   20409802.2554
     -1220.4374
   2548108.67247   1952967.38743  24388877.3024   24388876.6614
     -4488.9534
   2008680.85749   1540759.79747  21852888.3964   21852884.7164
     -3619.0164
   -173320.24649   -135967.13847  21594661.3494   21594659.8764
       146.9534
   -330220.40047   -250007.07943  24289638.3024   24289636.2164
      1508.1884
 04  9  8 21  9 15.0010000  0  7G 3G 8G13G16G23G27G19
    -86329.55348    -68692.34244  23294018.4194   23294018.1464
      -108.9224
   -935046.72948   -721118.20145  22960386.0444   22960385.8374
      1410.1414
    599601.03049    457916.91047  20413301.5834   20413298.8294
     -1230.1414
   2615478.84247   2005463.60642  24401696.6534   24401696.8844
     -4494.1414
   2063022.33449   1583103.80147  21863229.4974   21863225.3804
     -3627.0004
   -175488.25249   -137656.48548  21594248.3104   21594247.3884
       141.5784
   -352808.41347   -267608.07943  24285339.4034   24285337.9354
      1503.0474
 04  9  8 21  9 30.0010000  0  7G 3G 8G13G16G23G27G19
    -84624.08248    -67363.37844  23294342.5284   23294343.1034
      -119.1874
   -956169.83049   -737577.74445  22956366.6384   22956365.8994
      1405.5474
    618117.85849    472345.60248  20416825.1534   20416822.4424
     -1239.3914
   2682922.31147   2058016.88942  24414531.7554   24414530.3064
     -4498.9844
   2117478.07549   1625536.81547  21873591.9664   21873587.9314
     -3634.4224
   -177580.99849   -139287.19748  21593850.3414   21593848.5954
       136.7194
   -375323.28148   -285152.08043  24281055.3254   24281053.9384
      1498.2974
 04  9  8 21  9 45.0010000  0  7G 3G 8G13G16G23G27G19
    -82762.98248    -65913.14244  23294696.7084   23294697.4894
      -129.1564
   -977222.23248   -753982.19845  22952360.4274   22952359.5404
      1401.2664
    636775.51349    486884.03847  20420375.5284   20420372.9934
     -1248.4374
   2750438.78448   2110627.07342  24427379.5834   24427378.6264
     -4503.4064
   2172047.87649   1668058.72047  21883976.2394   21883972.4464
     -3641.7194
   -179598.46149   -140859.23547  21593466.4034   21593465.0954
       132.0784
   -397764.58748   -302638.78443  24276784.8024   24276783.4034
      1493.7664
 04  9  8 21 10  0.0010000  0  7G 3G 8G13G16G23G27G19
    -80752.94148    -64346.87944  23295078.8724   23295079.3174
      -139.2974
   -998210.88848   -770336.96945  22948366.7784   22948365.5954
      1396.8444
    655567.00249    501526.74447  20423951.5914   20423948.8724
     -1257.5314
   2818020.88147   2163288.42442  24440239.7864   24440238.9584
     -4507.9694
   2226724.56449   1710663.90147  21894381.0674   21894377.0444
     -3648.9844
   -181547.69349   -142378.11848  21593095.4814   21593093.8604
       127.3914
   -420138.92648   -320073.29243  24272527.3254   24272525.2124
      1489.1094
 04  9  8 21 10 15.0010000  0  7G 3G 8G13G16G23G27G19
    -78590.84048    -62662.10343  23295490.5444   23295490.5364
      -149.0164
  -1019132.86148   -786639.79045  22944385.1144   22944384.4504
      1392.7814
    674495.40049    516276.14448  20427553.5364   20427551.1424
     -1266.2814
   2885671.19147   2216002.90742  24453113.0284   24453112.4504
     -4512.1254
   2281510.94749   1753354.56547  21904806.1144   21904802.4354
     -3655.8284
   -183425.84749   -143841.60748  21592737.8724   21592736.7434
       123.0944
   -442443.19647   -337453.22843  24268282.4114   24268280.3724
      1484.8914
 04  9  8 21 10 30.0010000  0  7G 3G 8G13G16G23G27G19
    -76279.86948    -60861.34043  23295930.5284   23295929.8964
      -158.9064
  -1039991.39548   -802893.17945  22940415.4664   22940415.0674
      1388.6254
    693557.38349    531129.63148  20431180.9894   20431178.4624
     -1275.1564
   2953386.08848   2268767.74542  24465999.1774   24465998.1574
     -4516.2814
   2336403.62349   1796128.05647  21915252.2314   21915247.7984
     -3662.9374
   -185236.35049   -145252.39147  21592393.6614   21592392.3724
       118.5634
   -464680.30647   -354780.81542  24264050.2944   24264049.2004
      1480.4224
 04  9  8 21 10 45.0010000  0  7G 3G 8G13G16G23G27G19
    -73820.46348    -58944.92543  23296398.7244   23296397.6854
      -168.9534
  -1060787.30548   -819097.75245  22936458.1614   22936457.4544
      1384.2504
    712752.43349    546086.81947  20434833.3804   20434830.9034
     -1284.2344
   3021164.55147   2321582.08142  24478896.7244   24478896.5324
     -4520.7194
   2391401.68549   1838983.67347  21925717.9354   21925714.0014
     -3670.1414
   -186979.66849   -146610.81347  21592061.8884   21592060.5214
       113.9384
   -486850.55247   -372056.32343  24259831.6144   24259830.6184
      1475.7034
 04  9  8 21 11  0.0010000  0  7G 3G 8G13G16G23G27G19
    -71211.90448    -56912.26743  23296894.7554   23296894.3454
      -178.6724
  -1081519.86548   -835252.96345  22932513.4664   22932512.1774
      1380.3284
    732081.17949    561148.18147  20438511.6924   20438508.9814
     -1292.8124
   3089006.81547   2374446.16642  24491807.2314   24491806.1494
     -4524.6564
   2446505.62249   1881921.79547  21936203.8724   21936199.8534
     -3676.8284
   -188655.56049   -147916.69147  21591742.7394   21591741.8134
       109.7344
   -508952.97747   -389278.93043  24255626.2634   24255625.0994
      1471.4384
 04  9  8 21 11 15.0010000  0  7G 3G 8G13G16G23G27G19
    -68459.09448    -54767.19244  23297418.7004   23297418.4234
      -188.5164
  -1102194.36648   -851362.95045  22928578.8254   22928578.2784
      1376.1884
    751538.54449    576309.75048  20442214.4194   20442211.6534
     -1301.5624
   3156907.30048   2427355.58442  24504728.5604   24504727.1574
     -4528.7664
   2501710.14349   1924938.26547  21946709.0444   21946704.9464
     -3683.8444
   -190268.97749   -149173.90947  21591436.1464   21591434.6654
       105.2974
   -530992.43647   -406452.46643  24251432.4894   24251431.3804
      1467.0784
 04  9  8 21 11 30.0010000  0  6G 3G 8G13G23G27G19
    -65558.14648    -52506.69544  23297970.6614   23297970.5604
      -198.3444
  -1122806.94648   -867424.67945  22924656.3964   22924655.6884
      1372.1414
    771128.48849    591574.64547  20445942.3254   20445939.6064
     -1310.3914
   2557018.98449   1968036.05347  21957233.6924   21957230.1534
     -3690.6874
   -191816.32049   -150379.62547  21591141.5054   21591139.7084
       100.9844
   -552964.73647   -423573.71443  24247251.3494   24247250.2554
      1462.5634
 04  9  8 21 11 45.0010000  0  6G 3G 8G13G23G27G19
    -62508.29648    -50130.15744  23298550.6144   23298550.9544
      -208.2504
  -1143356.97348   -883437.66545  22920746.0214   22920745.1464
      1367.9844
    790851.45949    606943.19047  20449695.2944   20449692.7394
     -1319.2504
   2612432.38849   2011215.30647  21967778.7164   21967774.6144
     -3697.6564
   -193296.98649   -151533.39447  21590859.5914   21590858.1424
        96.5474
   -574869.10447   -440641.99343  24243082.9814   24243081.3064
      1458.1254
 04  9  8 21 12  0.0010000  0  6G 3G 8G13G23G27G19
    -59305.91148    -47634.79144  23299160.7634   23299160.1964
      -218.7664
  -1163841.04548   -899399.24445  22916847.8644   22916847.4464
      1363.1724
    810711.16749    622418.29448  20453474.4814   20453471.9744
     -1328.7504
   2667953.81149   2054478.73647  21978343.9584   21978340.2084
     -3705.2344
   -194707.56449   -152632.53547  21590591.3174   21590589.4744
        91.4384
   -596701.56748   -457654.24843  24238928.1694   24238926.5524
      1452.8594
 04  9  8 21 12 15.0010000  0  6G 3G 8G13G23G27G19
    -55952.79548    -45021.95044  23299798.3414   23299797.8604
      -228.2034
  -1184261.21048   -915311.04545  22912962.3024   22912960.7944
      1359.6094
    830705.61949    637998.37848  20457279.2474   20457276.7474
     -1337.0944
   2723580.89449   2097824.49347  21988929.5604   21988926.3604
     -3711.5944
   -196050.20649   -153678.74047  21590335.8334   21590334.5954
        87.6254
   -618463.92048   -474611.88944  24234786.4354   24234784.9194
      1448.8594
 04  9  8 21 12 30.0010000  0  6G 3G 8G13G23G27G19
    -52454.02348    -42295.62844  23300464.0754   23300463.7164
      -238.3444
  -1204622.83048   -931177.21645  22909087.7314   22909086.7514
      1355.2664
    850829.63449    653679.41848  20461108.8494   20461106.2474
     -1346.0944
   2779308.44849   2141248.54147  21999534.2164   21999530.5954
     -3718.7344
   -197330.08449   -154676.05547  21590092.5284   21590090.4814
        83.0474
   -640160.96748   -491518.66444  24230658.2244   24230656.8764
      1444.0164
 04  9  8 21 12 45.0010000  0  6G 3G 8G13G23G27G19
    -48805.21748    -39452.39344  23301158.6224   23301157.9464
      -248.1724
  -1224921.37448   -946994.23844  22905224.6304   22905223.9504
      1351.1884
    871087.41749    669464.70948  20464963.7784   20464960.9704
     -1354.9694
   2835140.34949   2184753.90347  22010158.4974   22010154.9234
     -3725.5004
   -198543.02949   -155621.19847  21589861.1534   21589860.1184
        78.7194
   -661788.23548   -508371.01044  24226542.6064   24226540.9584
      1439.5474
 04  9  8 21 13  0.0010000  0  6G 3G 8G13G23G27G19
    -45012.17648    -36496.76544  23301880.2314   23301880.3804
      -257.7194
  -1245162.79948   -962766.74644  22901372.8104   22901371.7744
      1347.5164
    891473.05549    685349.61748  20468843.0754   20468840.3494
     -1363.3124
   2891070.60549   2228335.89547  22020801.8414   22020798.2674
     -3731.9694
   -199695.15749   -156518.95747  21589642.1694   21589640.7124
        74.8134
   -683351.31748   -525173.38043  24222439.3254   24222437.8214
      1435.3754
 04  9  8 21 13 15.0010000  0  6G 3G 8G13G23G27G19
    -41068.44448    -33423.70644  23302630.7864   23302631.3294
      -268.3754
  -1265340.93249   -978489.93645  22897532.8104   22897532.8964
      1342.6884
    911992.88649    701339.09048  20472747.7164   20472745.5214
     -1372.8754
   2947105.35349   2271999.31247  22031464.9504   22031461.0634
     -3739.5164
   -200780.15249   -157364.40847  21589435.6304   21589433.8334
        69.6884
   -704843.54447   -541920.51643  24218349.6464   24218347.6464
      1430.0944
 04  9  8 21 13 30.0010000  0  6G 3G 8G13G23G27G19
    -36978.06048    -30236.38344  23303409.5834   23303410.0634
      -277.4064
  -1285460.09348   -994167.17344  22893704.2944   22893703.8414
      1339.4694
    932642.90249    717430.01148  20476677.5674   20476674.9974
     -1380.8124
   3003240.16849   2315740.71047  22042147.0914   22042143.1344
     -3745.4694
   -201802.32549   -158160.89247  21589241.3414   21589239.3494
        66.2664
   -726268.86647   -558615.53643  24214271.4744   24214270.1384
      1426.2664
 04  9  8 21 13 45.0010000  0  6G 3G 8G13G23G27G19
    -32742.02248    -26935.55344  23304215.6614   23304215.9544
      -287.2974
  -1305521.29348  -1009799.24644  22889887.1384   22889886.4854
      1335.5004
    953421.80649    733621.35448  20480631.5364   20480629.0954
     -1389.6094
   3059473.68449   2359559.00446  22052848.1854   22052844.1884
     -3752.1564
   -202762.95649   -158909.44348  21589058.1464   21589056.9974
        62.0164
   -747628.25247   -575259.16943  24210207.7714   24210205.3644
      1421.7034
 04  9  8 21 14  0.0010000  0  6G 3G 8G13G23G27G19
    -28361.13048    -23521.84644  23305049.3964   23305049.4894
      -296.8284
  -1325525.45548  -1025386.87544  22886080.0604   22886079.0014
      1331.8134
    974328.74849    749912.48248  20484609.8964   20484607.3564
     -1398.0164
   3115804.84949   2403453.39247  22063567.6064   22063563.9424
     -3758.6414
   -203663.00049   -159610.76848  21588887.2634   21588885.6264
        58.0784
   -768922.14047   -591851.77643  24206155.8334   24206153.9624
      1417.4694
 04  9  8 21 14 15.0010000  0  6G 3G 8G13G23G27G19
    -23834.76148    -19994.80644  23305910.3884   23305910.4464
      -306.1414
  -1345472.25048  -1040929.81244  22882284.3024   22882284.0214
      1328.3134
    995364.12249    766303.68048  20488612.5524   20488610.3534
     -1406.1724
   3172233.99049   2447424.14547  22074305.7314   22074301.5284
     -3764.7504
   -204501.96849   -160264.50147  21588727.3494   21588725.9274
        54.3444
   -790149.87547   -608392.83443  24202115.5524   24202114.2204
      1413.4224
 04  9  8 21 14 30.0010000  0  6G 3G 8G13G23G27G19
    -19166.54348    -16357.23544  23306798.4584   23306798.3804
      -315.8754
  -1365365.38248  -1056430.92544  22878499.2944   22878498.4894
      1324.5784
   1016524.36349    782792.17248  20492639.3564   20492636.8134
     -1414.7344
   3228757.05849   2491468.06347  22085061.5914   22085057.8884
     -3771.2814
   -205283.79349   -160873.71648  21588578.3024   21588576.8924
        50.3134
   -811314.84347   -624884.95443  24198088.4034   24198086.8604
      1409.0004
 04  9  8 21 14 45.0010000  0  6G 3G 8G13G23G27G19
    -14349.16248    -12603.42543  23307715.2554   23307714.8724
      -325.7344
  -1385197.61948  -1071884.59544  22874725.1304   22874724.5054
      1320.5784
   1037816.70149    799383.59648  20496691.5134   20496689.2474
     -1423.3914
   3285380.98349   2535590.58246  22095836.6694   22095832.6384
     -3777.8124
   -206001.24749   -161432.76947  21588441.9744   21588440.3964
        46.1564
   -832409.43648   -641322.25143  24194074.1064   24194072.7984
      1404.4384
 04  9  8 21 15  0.0010000  0  6G 3G 8G13G23G27G19
     -9388.50948     -8737.97343  23308659.2244   23308658.7284
      -335.9534
  -1404975.18248  -1087295.64644  22870961.3644   22870960.1694
      1316.2344
   1059235.04349    816073.21147  20500767.3564   20500764.4314
     -1432.5474
   3342099.61549   2579786.89747  22106629.9664   22106626.3334
     -3784.8124
   -206660.67349   -161946.60847  21588316.5754   21588315.3924
        41.5634
   -853439.58648   -657709.32943  24190072.2474   24190070.0524
      1399.4224
 04  9  8 21 15 15.0010000  0  6G 3G 8G13G23G27G19
     -4284.66748     -4760.93343  23309629.8724   23309630.1344
      -345.1724
  -1424698.17248  -1102664.20144  22867207.8964   22867207.5134
      1312.7344
   1080779.29849    832860.93648  20504866.7004   20504864.0244
     -1440.6724
   3398912.67649   2624056.79246  22117441.6464   22117437.3454
     -3790.7974
   -207261.99049   -162415.16548  21588202.2004   21588200.7124
        37.9384
   -874404.99448   -674045.98443  24186082.4894   24186080.5174
      1395.2974
 04  9  8 21 15 30.0010000  0  6G 3G 8G13G23G27G19
       962.45448      -672.26044  23310628.6614   23310629.3414
      -354.7344
  -1444366.52248  -1117990.15944  22863465.2784   22863464.7594
      1309.2034
   1102449.52549    849746.82548  20508990.3414   20508987.9544
     -1449.0784
   3455819.99549   2668400.13647  22128270.5284   22128266.6734
     -3797.1724
   -207805.44349   -162838.62447  21588098.4504   21588096.8844
        34.0634
   -895305.38548   -690331.95844  24182105.4034   24182103.2164
      1391.0164
 04  9  8 21 15 45.0010000  0  6G 3G 8G13G23G27G19
      6354.96548      3529.71544  23311654.9814   23311655.9074
      -363.9224
  -1463978.46848  -1133272.16744  22859733.2554   22859733.0404
      1306.0164
   1124247.53749    866732.28948  20513138.3414   20513135.4424
     -1456.9844
   3512823.23949   2712818.23847  22139117.5214   22139114.1494
     -3802.9374
   -208289.18549   -163215.56447  21588006.9814   21588005.3724
        30.7504
   -916138.53148   -706565.51244  24178140.7394   24178139.4744
      1387.1254
 04  9  8 21 16  0.0010000  0  6G 3G 8G13G23G27G19
     11886.34748      7839.88644  23312707.7784   23312708.2474
      -373.7664
  -1483540.72948  -1148515.46844  22856010.6304   22856010.1734
      1302.1564
   1146166.70949    883812.15948  20517309.7164   20517307.1924
     -1465.7034
   3569915.49249   2757305.68347  22149982.3334   22149978.6184
     -3809.4534
   -208720.01449   -163551.27148  21587924.5604   21587923.5404
        26.6414
   -936910.75647   -722751.63844  24174188.6384   24174186.9464
      1382.4384
 04  9  8 21 16 15.0010000  0  6G 3G 8G13G23G27G19
     17563.14248     12263.37344  23313787.7244   23313788.3764
      -382.8594
  -1503046.89048  -1163715.04144  22852298.7554   22852298.3924
      1299.0634
   1168213.50149    900991.48048  20521504.8964   20521502.5134
     -1473.6414
   3627102.97549   2801867.34146  22160864.0134   22160860.7674
     -3815.1874
   -209091.46649   -163840.70147  21587853.8964   21587852.1534
        23.2974
   -957615.43347   -738885.09543  24170247.9974   24170246.5604
      1378.4844
 04  9  8 21 16 30.0010000  0  6G 3G 8G13G23G27G19
     23386.51448     16801.07144  23314896.3254   23314896.0794
      -392.9694
  -1522495.88448  -1178870.08244  22848597.7784   22848597.2784
      1294.8914
   1190389.05949    918271.12148  20525724.7004   20525722.3174
     -1482.4374
   3684386.62049   2846503.92847  22171765.2634   22171761.4814
     -3821.9064
   -209402.69449   -164083.22047  21587795.0994   21587793.0054
        18.9384
   -978251.20947   -754964.85443  24166320.3964   24166319.3844
      1373.6094
 04  9  8 21 16 45.0010000  0  6G 3G 8G13G23G27G19
     29352.36048     21449.81544  23316030.7864   23316031.2244
      -402.8754
  -1541891.94048  -1193983.87844  22844906.7084   22844906.1694
      1290.9534
   1212689.25049    935647.89148  20529968.3724   20529965.6344
     -1491.2504
   3741762.09149   2891212.05447  22182683.3964   22182680.1924
     -3828.4844
   -209657.78749   -164281.99747  21587746.4034   21587744.7514
        14.7504
   -998821.94747   -770993.95643  24162406.6304   24162404.6344
      1368.8134
 04  9  8 21 17  0.0010000  0  6G 3G 8G13G23G27G19
     35465.89948     26213.62844  23317194.2714   23317194.5094
      -412.1414
  -1561229.97448  -1209052.44944  22841227.0604   22841226.5954
      1287.5944
   1235119.14149    953125.72448  20534236.6304   20534233.8294
     -1499.2664
   3799234.15049   2935995.46147  22193620.2864   22193616.5054
     -3834.3284
   -209851.87149   -164433.21647  21587709.2634   21587707.9354
        11.2504
  -1019322.13547   -786968.08743  24158505.5364   24158503.5564
      1364.6724
 04  9  8 21 17 15.0010000  0  6G 3G 8G13G23G27G19
     41723.62648     31089.77944  23318384.9504   23318384.8884
      -421.5624
  -1580513.49148  -1224078.53444  22837557.2394   22837557.0994
      1284.1884
   1257675.06049    970701.75348  20538528.9424   20538526.5484
     -1507.5474
   3856799.17549   2980851.29547  22204574.0214   22204570.9464
     -3840.3594
   -209988.58949   -164539.74848  21587683.3174   21587681.7904
         7.6254
  -1039755.11147   -802889.83143  24154617.6224   24154614.9314
      1360.3594
 04  9  8 21 17 30.0010000  0  6G 3G 8G13G23G27G19
     48122.99648     36076.30444  23319603.0754   23319602.9114
      -431.4374
  -1599745.46648  -1239064.47444  22833897.6854   22833897.0524
      1280.3284
   1280354.39649    988373.95548  20542844.6924   20542842.1104
     -1516.1254
   3914454.16249   3025777.23547  22215545.3804   22215541.8294
     -3846.7974
   -210070.59149   -164603.64348  21587667.5914   21587665.9384
         3.5784
  -1060123.30548   -818761.13344  24150741.5134   24150739.1104
      1355.5004
 04  9  8 21 17 45.0010000  0  6G 3G 8G13G23G27G19
     54669.55548     41177.53144  23320849.0054   23320848.6884
      -440.7664
  -1618920.46548  -1254006.00844  22830248.8414   22830248.5714
      1276.9694
   1303162.76649   1006146.70647  20547184.7944   20547182.5244
     -1524.2974
   3972204.34149   3070777.35346  22226535.2784   22226531.3994
     -3852.6414
   -210092.78249   -164620.93548  21587663.4424   21587662.0524
        -0.0624
  -1080421.02648   -834577.49344  24146878.8414   24146876.3134
      1351.3284
 04  9  8 21 18  0.0010000  0  6G 3G 8G13G23G27G19
     61359.68948     46390.62344  23322122.3884   23322122.0714
      -451.0784
  -1638042.00448  -1268905.89244  22826609.6694   22826609.4934
      1272.6884
   1326096.08349   1024016.81847  20551548.8884   20551546.5914
     -1533.3754
   4030045.72949   3115848.53446  22237542.3024   22237538.3024
     -3859.4534
   -210058.75049   -164594.41547  21587669.7244   21587668.7434
        -4.4694
  -1100651.70648   -850341.63843  24143028.9034   24143026.7554
      1346.1254
 04  9  8 21 18 15.0010000  0  6G 3G 8G13G23G27G19
     68191.00948     51713.74644  23323422.3564   23323421.6344
      -460.0784
  -1657112.94148  -1283766.33044  22822981.0364   22822980.3064
      1269.7194
   1349151.90349   1041982.38347  20555936.4974   20555934.2634
     -1541.0784
   4087975.58549   3160988.66346  22248565.9034   22248562.3174
     -3864.8754
   -209971.22849   -164526.20947  21587686.4664   21587684.6814
        -7.6254
  -1120817.48748   -866055.18843  24139191.5054   24139189.1104
      1342.2504
 04  9  8 21 18 30.0010000  0  6G 3G 8G13G23G27G19
     75165.82748     57148.69444  23324749.2244   23324749.4424
      -469.7664
  -1676130.91948  -1298585.49944  22819361.8804   22819361.5714
      1266.0164
   1372332.63449   1060045.28448  20560347.5834   20560345.3174
     -1549.6094
   4145996.00349   3206199.35146  22259606.3494   22259602.7554
     -3871.0944
   -209828.01149   -164414.61047  21587714.1064   21587712.3884
       -11.4224
  -1140915.94848   -881716.28444  24135367.0754   24135364.8924
      1337.6254
 04  9  8 21 18 45.0010000  0  6G 3G 8G13G23G27G19
     82285.73948     62696.68244  23326104.1064   23326103.7594
      -479.7664
  -1695094.30848  -1313362.14644  22815753.3334   22815753.1064
      1262.1884
   1395639.76949   1078206.68948  20564782.8804   20564780.9854
     -1558.2194
   4204108.30649   3251481.64046  22270665.0134   22270661.6884
     -3877.4374
   -209627.63849   -164258.47248  21587752.1144   21587750.9114
       -15.5004
  -1160945.19847   -897323.45544  24131556.0444   24131553.6814
      1332.7814
 04  9  8 21 19  0.0010000  0  6G 3G 8G13G23G27G19
     89554.28448     68360.49444  23327486.8024   23327487.1884
      -489.2974
  -1713999.80748  -1328093.68144  22812156.0754   22812154.9784
      1258.7504
   1419076.74349   1096469.26648  20569242.1924   20569239.9894
     -1566.5004
   4262315.68549   3296838.02346  22281741.3724   22281737.9624
     -3883.3594
   -209366.79849   -164055.20848  21587801.0994   21587800.0834
       -19.1094
  -1180901.56947   -912873.81844  24127757.5604   24127756.1854
      1328.2814
 04  9  8 21 19 15.0010000  0  6G 3G 8G13G23G27G19
     96967.43548     74136.97044  23328898.1384   23328897.8924
      -499.1564
  -1732851.58448  -1342783.37244  22808568.6774   22808567.7394
      1254.8754
   1442639.26849   1114829.66248  20573726.3804   20573724.0094
     -1575.1564
   4320613.81849   3342265.10646  22292835.4894   22292831.6424
     -3889.6414
   -209049.65749   -163808.09048  21587861.6534   21587860.3374
       -23.1564
  -1200788.87147   -928370.34443  24123972.7084   24123971.2084
      1323.3754
 04  9  8 21 19 30.0010000  0  6G 3G 8G13G23G27G19
    104528.05148     80028.38544  23330336.6694   23330336.5324
      -508.7034
  -1751646.94448  -1357429.07944  22804991.2944   22804990.8454
      1251.3914
   1466330.11749   1133290.06148  20578234.5364   20578232.4544
     -1583.4064
   4379005.14949   3387764.82446  22303946.8254   22303943.2284
     -3895.6414
   -208673.68949   -163515.12548  21587933.0604   21587932.0794
       -26.8284
  -1220603.98947   -943810.65843  24120202.6144   24120200.3064
      1318.7664
 04  9  8 21 19 45.0010000  0  6G 3G 8G13G23G27G19
    112232.25748     86031.67244  23331802.8494   23331802.8134
      -518.6874
  -1770389.89948  -1372033.96744  22801425.4354   22801424.6144
      1247.5634
   1490145.43949   1151847.44648  20582766.4034   20582764.2984
     -1592.0474
   4437485.64449   3433334.01246  22315075.5754   22315072.3884
     -3901.9064
   -208242.82149   -163179.37448  21588015.9504   21588014.2044
       -30.7814
  -1240350.64447   -959197.63243  24116445.0524   24116442.5094
      1313.9534
 04  9  8 21 20  0.0010000  0  6G 3G 8G13G23G27G19
    120079.59048     92146.49444  23333296.8334   23333295.8024
      -527.7974
  -1789081.00648  -1386598.45145  22797868.1614   22797867.3564
      1244.4694
   1514084.80249   1170501.50248  20587322.0674   20587319.8294
     -1600.0314
   4496054.55549   3478972.11046  22326220.6464   22326217.0284
     -3907.3914
   -207757.55349   -162801.23847  21588107.9814   21588106.0754
       -34.0944
  -1260029.10847   -974531.44244  24112699.9274   24112698.0364
      1309.7814
 04  9  8 21 20 15.0010000  0  6G 3G 8G13G23G27G19
    128075.70948     98377.24544  23334817.6064   23334817.5994
      -538.0004
  -1807714.82048  -1401118.29944  22794322.6144   22794321.9544
      1240.3594
   1538153.67049   1189256.45648  20591902.2394   20591900.1494
     -1608.8754
   4554717.18349   3524683.21646  22337383.6774   22337380.0914
     -3913.9224
   -207212.53349   -162376.55248  21588211.3644   21588209.5794
       -38.2814
  -1279633.41748   -989807.48744  24108970.0994   24108967.6304
      1304.5784
 04  9  8 21 20 30.0010000  0  6G 3G 8G13G23G27G19
    136214.80448    104719.38844  23336366.3964   23336366.3374
      -547.5474
  -1826297.16548  -1415598.03144  22790786.3564   22790785.5444
      1236.9694
   1562346.11449   1208107.70248  20596505.9814   20596503.5564
     -1617.0624
   4613467.42649   3570462.59146  22348563.7244   22348559.9034
     -3919.7344
   -206613.72049   -161909.94848  21588325.5754   21588323.6144
       -41.8914
  -1299169.21748  -1005030.17444  24105252.2554   24105249.8024
      1299.9694
 04  9  8 21 20 45.0010000  0  6G 3G 8G13G23G27G19
    144495.91848    111172.21044  23337943.1144   23337942.5214
      -557.2814
  -1844829.17248  -1430038.53045  22787259.8564   22787258.9154
      1233.2504
   1586661.10049   1227054.44048  20601132.8564   20601130.7714
     -1625.6094
   4672304.09849   3616309.33546  22359759.6924   22359756.4894
     -3925.7814
   -205962.25849   -161402.31948  21588449.1774   21588448.0564
       -45.7344
  -1318637.27948  -1020200.05443  24101547.9114   24101544.8494
      1295.0784
 04  9  8 21 21  0.0010000  0  6G 3G 8G13G23G27G19
    152927.26648    117742.10844  23339546.5674   23339546.7004
      -566.9224
  -1863302.73848  -1444433.49245  22783743.8804   22783743.4784
      1229.8754
   1611106.67349   1246102.93548  20605784.4814   20605782.2784
     -1633.8444
   4731234.95649   3662229.47046  22370973.9114   22370970.6304
     -3931.6254
   -205250.17949   -160847.43847  21588584.9744   21588583.0324
       -49.2504
  -1338029.40348  -1035310.77744  24097857.1614   24097854.9784
      1290.4844
 04  9  8 21 21 15.0010000  0  6G 3G 8G13G23G27G19
    161499.53648    124421.80844  23341178.0444   23341177.8924
      -576.5314
  -1881727.23348  -1458790.22945  22780237.9424   22780237.1694
      1226.3594
   1635673.58249   1265245.97747  20610459.5214   20610457.0994
     -1642.1724
   4790250.42349   3708215.51746  22382203.9814   22382200.6304
     -3937.5164
   -204486.75549   -160252.56247  21588730.1224   21588728.7784
       -52.9224
  -1357354.43847  -1050369.22343  24094179.7004   24094177.2944
      1285.7664
 04  9  8 21 21 30.0010000  0  6G 3G 8G13G23G27G19
    170219.76348    131216.81144  23342836.9894   23342837.5134
      -586.2974
  -1900095.94748  -1473103.49545  22776742.6924   22776742.1924
      1222.6254
   1660368.54149   1284488.79848  20615159.1464   20615156.6184
     -1650.7034
   4849357.17249   3754272.70346  22393451.8494   22393448.6924
     -3943.5004
   -203665.40049   -159612.53347  21588886.5214   21588885.0994
       -56.7974
  -1376605.20147  -1065369.78544  24090516.4664   24090514.3964
      1280.7974
 04  9  8 21 21 45.0010000  0  6G 3G 8G13G23G27G19
    179087.20048    138126.50744  23344524.2784   23344525.0994
      -595.9534
  -1918409.49548  -1487373.76744  22773257.6464   22773257.1734
      1219.1884
   1685190.87449   1303830.87448  20619882.5524   20619880.1964
     -1658.9694
   4908554.27049   3800400.28747  22404716.6534   22404713.7594
     -3949.4374
   -202786.84949   -158927.95848  21589053.3964   21589051.8884
       -60.4224
  -1395782.18947  -1080312.84944  24086866.9584   24086865.8294
      1276.0314
 04  9  8 21 22  0.0010000  0  6G 3G 8G13G23G27G19
    188095.88547    145146.27544  23346239.0754   23346238.9894
      -605.3444
  -1936674.06848  -1501605.88244  22769781.8964   22769781.3884
      1215.9384
   1710134.63149   1323267.56348  20624629.4744   20624626.7514
     -1667.0944
   4967835.54349   3846593.46146  22415997.8964   22415993.6884
     -3954.9694
   -201857.20549   -158203.54747  21589230.4584   21589229.5134
       -63.7814
  -1414891.13947  -1095202.87244  24083230.6384   24083229.7044
      1271.5944
 04  9  8 21 22 15.0010000  0  6G 3G 8G13G23G27G19
    197249.83548    152279.22844  23347980.6774   23347981.1184
      -614.9064
  -1954885.70648  -1515796.76445  22766316.0054   22766315.9114
      1212.5784
   1735203.57749   1342801.79847  20629399.5994   20629397.0404
     -1675.2504
   5027204.64149   3892855.06046  22427295.5134   22427291.8724
     -3960.5624
   -200872.62649   -157436.33548  21589418.1384   21589416.3104
       -67.3124
  -1433927.88147  -1110036.64144  24079607.9664   24079606.8174
      1266.9064
 04  9  8 21 22 30.0010000  0  6G 3G 8G13G23G27G19
    206549.73647    159525.91644  23349750.2314   23349751.0134
      -624.9224
  -1973043.98248  -1529946.05145  22762860.8564   22762859.7244
      1208.6564
   1760398.26549   1362434.02648  20634193.8804   20634191.2904
     -1683.9374
   5086661.78849   3939185.28446  22438609.9274   22438605.8214
     -3966.8444
   -199832.66849   -156625.98148  21589616.0364   21589614.3724
       -71.2814
  -1452891.58647  -1124813.52444  24075999.2394   24075997.6654
      1261.7814
 04  9  8 21 22 45.0010000  0  6G 3G 8G13G23G27G19
    215997.47047    166887.78044  23351548.4504   23351548.9664
      -634.6724
  -1991146.76548  -1544052.10045  22759416.3174   22759415.1034
      1205.0474
   1785720.64749   1382165.73748  20639012.7784   20639009.6694
     -1692.3444
   5146208.73549   3985585.46647  22449941.1774   22449937.5994
     -3972.7504
   -198735.54249   -155771.07647  21589824.7864   21589823.4314
       -75.0314
  -1471780.04547  -1139531.77444  24072404.7944   24072403.3294
      1256.7034
 04  9  8 21 23  0.0010000  0  6G 3G 8G13G23G27G19
    225588.35948    174361.22644  23353373.4194   23353373.5014
      -644.1094
  -2009199.10248  -1558118.83745  22755980.7244   22755980.0134
      1201.8594
   1811165.92149   1401993.21947  20643854.7944   20643852.4354
     -1700.4224
   5205840.53749   4032051.79246  22461288.8414   22461285.2314
     -3978.2194
   -197586.00949   -154875.31747  21590043.2944   21590041.9154
       -78.2974
  -1490597.77447  -1154194.88744  24068824.2864   24068822.4504
      1252.1884
 04  9  8 21 23 15.0010000  0  6G 3G 8G13G23G27G19
    235325.62847    181948.70244  23355226.4034   23355226.7674
      -653.8914
  -2027197.99448  -1572143.94345  22752555.6614   22752555.3214
      1198.2664
   1836737.21749   1421918.89848  20648721.0754   20648718.2864
     -1708.8284
   5265560.16349   4078586.53846  22472653.0524   22472649.8994
     -3984.0944
   -196381.07749   -153936.40747  21590272.5284   21590271.4504
       -81.9694
  -1509341.24647  -1168800.16144  24065256.8644   24065254.7204
      1247.2664
 04  9  8 21 23 30.0010000  0  6G 3G 8G13G23G27G19
    245205.55348    189647.33944  23357106.8724   23357106.5874
      -663.8594
  -2045147.11148  -1586130.25045  22749140.3964   22749139.3924
      1194.5784
   1862430.72149   1441939.80348  20653610.2084   20653608.1494
     -1717.3594
   5325363.47649   4125186.48846  22484033.4114   22484029.8764
     -3990.1094
   -195124.67249   -152957.39747  21590511.6774   21590510.2164
       -85.8594
  -1528013.97447  -1183350.31444  24061703.7944   24061701.7824
      1242.0634
 04  9  8 21 23 45.0010000  0  6G 3G 8G13G23G27G19
    255234.23648    197461.90844  23359014.8254   23359015.0054
      -673.7194
  -2063040.54348  -1600073.15445  22745735.5134   22745734.4854
      1190.9064
   1888252.50549   1462060.67048  20658524.0214   20658521.6694
     -1725.9224
   5385256.29449   4171856.19046  22495430.5754   22495426.7164
     -3995.9694
   -193810.72149   -151933.53547  21590761.8884   21590759.9974
       -89.6724
  -1546609.68047  -1197840.42644  24058164.9354   24058163.0134
      1237.0314
 04  9  8 21 24  0.0010000  0  6G 3G 8G13G23G27G19
    265410.79848    205391.70444  23360951.7554   23360951.9464
      -683.2344
  -2080879.33448  -1613973.49545  22742340.4814   22742339.7284
      1187.5474
   1914201.44849   1482280.62448  20663461.6144   20663459.8374
     -1734.1094
   5445237.40749   4218594.69346  22506844.5524   22506841.0214
     -4001.5624
   -192440.37849   -150865.72948  21591022.5524   21591021.0014
       -93.1414
  -1565129.13947  -1212271.14344  24054640.6144   24054638.8174
      1232.0784
 04  9  8 21 24 15.0010000  0  6G 3G 8G13G23G27G19
    275732.36448    213434.49644  23362916.0524   23362916.4624
      -692.9064
  -2098666.33348  -1627833.47245  22738955.7944   22738954.5874
      1184.1564
   1940274.48249   1502597.27548  20668423.5134   20668421.0714
     -1742.3284
   5505303.54149   4265399.44246  22518274.8334   22518270.9354
     -4007.1414
   -191016.75449   -149756.40447  21591293.5054   21591292.0054
       -96.6414
  -1583574.94247  -1226644.47544  24051131.2244   24051129.0214
      1227.2504
 04  9  8 21 24 30.0010000  0  6G 3G 8G13G23G27G19
    286200.15048    221591.21144  23364907.5674   23364907.5954
      -702.8914
  -2116400.29748  -1641652.12645  22735581.0444   22735580.4504
      1180.3914
   1966473.21649   1523011.86448  20673409.0364   20673406.5484
     -1750.9844
   5565455.93849   4312271.41146  22529721.5054   22529717.9464
     -4013.1874
   -189538.66749   -148604.65748  21591574.8494   21591573.2744
      -100.5004
  -1601945.59147  -1240959.23144  24047634.9424   24047633.5794
      1222.0004
 04  9  8 21 24 45.0010000  0  6G 3G 8G13G23G27G19
    296816.47448    229863.67244  23366927.8564   23366927.9384
      -713.0004
  -2134079.09048  -1655427.79845  22732216.7004   22732216.2944
      1176.4064
   1992799.77049   1543526.05148  20678418.7314   20678416.4384
     -1759.7194
   5625696.50049   4359212.07046  22541184.9194   22541181.2244
     -4019.3284
   -188003.85949   -147408.69148  21591866.8174   21591865.3134
      -104.5784
  -1620238.46447  -1255213.37244  24044153.6534   24044152.6814
      1216.5164
 04  9  8 21 25  0.0010000  0  6G 3G 8G13G23G27G19
    307578.63648    238249.77844  23368975.9974   23368975.9464
      -722.3284
  -2151705.73048  -1669162.81045  22728862.2394   22728862.1964
      1173.3444
   2019250.86849   1564137.30748  20683451.8884   20683449.9424
     -1767.5474
   5686022.16149   4406219.06546  22552664.0754   22552660.8884
     -4024.4694
   -186415.25849   -146170.81548  21592169.2244   21592167.7204
      -107.7034
  -1638456.31447  -1269409.07244  24040687.3964   24040685.3994
      1211.9844
 04  9  8 21 25 15.0010000  0  6G 3G 8G13G23G27G19
    318484.08848    246747.54644  23371051.0364   23371051.4424
      -731.7974
  -2169282.77448  -1682859.19845  22725517.8254   22725517.0244
      1170.2194
   2045824.22849   1584843.80447  20688508.9664   20688506.9664
     -1775.5314
   5746430.14449   4453290.18546  22564159.9194   22564156.0244
     -4029.8594
   -184775.51049   -144893.09147  21592480.8804   21592479.7554
      -110.9374
  -1656601.25648  -1283547.96044  24037234.4894   24037232.9894
      1207.2974
 04  9  8 21 25 30.0010000  0  6G 3G 8G13G23G27G19
    329536.43947    255359.77544  23373154.4424   23373154.7904
      -741.4534
  -2186806.66148  -1696514.15645  22722182.7784   22722181.9584
      1166.7664
   2072523.29149   1605648.26648  20693589.5134   20693587.0834
     -1783.8754
   5806923.73049   4500428.01546  22575671.1464   22575667.8414
     -4035.5474
   -183081.23349   -143572.87047  21592803.3024   21592802.1614
      -114.5314
  -1674669.47647  -1297627.06844  24033796.3724   24033793.9154
      1202.2194
 04  9  8 21 25 45.0010000  0  6G 3G 8G13G23G27G19
    340735.14348    264086.03844  23375285.8174   23375285.0634
      -751.2034
  -2204277.95748  -1710128.12045  22718858.4894   22718857.5604
      1163.2974
   2099347.55549   1626550.28547  20698694.0914   20698691.7744
     -1792.1564
   5867502.09049   4547631.91446  22587198.7784   22587195.3964
     -4041.0474
   -181333.01349   -142210.61447  21593136.2004   21593134.4814
      -117.9844
  -1692661.30947  -1311646.65744  24030372.7084   24030371.0244
      1197.2194
 04  9  8 21 26  0.0010000  0  6G 3G 8G13G23G27G19
    352077.88748    272924.55744  23377444.0754   23377443.6264
      -761.3754
  -2221699.00548  -1723702.95945  22715543.1464   22715542.3564
      1159.4064
   2126294.49749   1647547.88648  20703821.5994   20703819.6304
     -1800.8444
   5928162.75048   4594899.92246  22598742.4424   22598739.2474
     -4047.0784
   -179533.30849   -140808.24347  21593478.6464   21593477.1774
      -121.9844
  -1710578.75147  -1325608.27844  24026962.8644   24026960.7004
      1191.7194
 04  9  8 21 26 15.0010000  0  6G 3G 8G13G23G27G19
    363571.18547    281880.38444  23379631.1224   23379631.0054
      -771.3594
  -2239063.49548  -1737233.70945  22712238.9194   22712238.0754
      1155.6564
   2153370.72749   1668646.24248  20708974.2554   20708971.6854
     -1809.5004
   5988911.91849   4642236.91746  22610302.8334   22610299.0994
     -4053.0314
   -177675.71749   -139360.76847  21593832.1384   21593830.8294
      -125.8754
  -1728415.19847  -1339506.77844  24023568.6694   24023566.6654
      1186.2664
 04  9  8 21 26 30.0010000  0  6G 3G 8G13G23G27G19
    375212.98647    290951.93744  23381846.0444   23381846.7824
      -780.5164
  -2256373.67648  -1750722.14645  22708944.8964   22708943.8724
      1152.7504
   2180573.98549   1689843.58047  20714150.4194   20714148.0444
     -1817.2504
   6049747.18749   4689640.99146  22621878.7554   22621875.3024
     -4058.0314
   -175762.43149   -137869.89547  21594196.1224   21594194.2744
      -128.8284
  -1746172.40547  -1353343.55344  24020189.9274   24020188.4814
      1181.8594
 04  9  8 21 26 45.0010000  0  6G 3G 8G13G23G27G19
    386993.66547    300131.69644  23384087.9114   23384088.6064
      -790.2974
  -2273639.01348  -1764175.64245  22705659.2394   22705658.4784
      1149.2194
   2207894.62949   1711132.38747  20719349.8254   20719347.4114
     -1825.5624
   6110658.61649   4737104.40746  22633470.1614   22633466.6774
     -4063.6414
   -173803.29649   -136343.29948  21594568.9814   21594567.5604
      -132.4224
  -1763859.77947  -1367125.88844  24016824.0444   24016822.3684
      1176.5004
 04  9  8 21 27  0.0010000  0  6G 3G 8G13G23G27G19
    398921.85247    309426.40744  23386357.4584   23386358.3214
      -800.2034
  -2290851.10548  -1777587.64845  22702383.9034   22702383.3214
      1145.6254
   2235341.18549   1732519.30147  20724572.6304   20724570.4664
     -1833.9694
   6171654.54448   4784633.67746  22645077.5134   22645073.6924
     -4069.2504
   -171789.76849   -134774.31847  21594952.0754   21594950.7944
      -136.0784
  -1781468.42247  -1380846.86744  24013472.8724   24013471.1064
      1171.2034
 04  9  8 21 27 15.0020000  0  6G 3G 8G13G23G27G19
    410992.38047    318832.02044  23388654.6354   23388654.8424
      -809.8284
  -2308017.16748  -1790963.78845  22699117.1664   22699116.4864
      1142.3914
   2262909.38149   1754001.01248  20729819.0804   20729816.3614
     -1842.1724
   6232732.80249   4832227.09546  22656700.0964   22656696.4394
     -4074.5784
   -169727.76049   -133167.56347  21595344.5024   21595342.8184
      -139.4534
  -1799005.36146  -1394511.97944  24010135.1114   24010133.5964
      1166.2974
 04  9  8 21 27 30.0020000  0  6G 3G 8G13G23G27G19
    423209.46247    328351.83944  23390979.0804   23390979.7524
      -819.0944
  -2325129.07748  -1804297.71945  22695860.9794   22695860.0684
      1139.3594
   2290601.36549   1775579.17948  20735088.1824   20735086.0964
     -1850.0004
   6293890.85048   4879882.69646  22668338.7834   22668335.0844
     -4079.6564
   -167611.95349   -131518.87047  21595746.9244   21595746.0644
      -142.5314
  -1816462.11146  -1408114.63744  24006813.7834   24006811.3344
      1161.3594
 04  9  8 21 27 45.0020000  0  6G 3G 8G13G23G27G19
    435569.15147    337982.78244  23393331.4004   23393332.0214
      -828.8444
  -2342192.97948  -1817594.25645  22692613.7754   22692613.4044
      1135.9384
   2318414.08749   1797251.42248  20740381.1044   20740378.5454
     -1858.2194
   6355127.68948   4927599.67946  22679991.2444   22679987.6744
     -4085.0624
   -165447.04049   -129831.92747  21596158.9164   21596157.6934
      -145.9534
  -1833844.33347  -1421659.20644  24003505.8074   24003504.1044
      1156.3914
 04  9  8 21 28  0.0020000  0  6G 3G 8G13G23G27G19
    448075.99847    347728.38244  23395711.7134   23395712.0884
      -838.6414
  -2359204.19048  -1830849.73145  22689376.9324   22689376.0374
      1132.3914
   2346352.02449   1819021.23648  20745697.3854   20745695.3114
     -1866.6564
   6416447.61649   4975381.41946  22691660.0254   22691656.6544
     -4090.7504
   -163228.62249   -128103.28748  21596581.1044   21596579.8224
      -149.6414
  -1851147.24647  -1435141.92944  24000213.6194   24000212.2444
      1150.9844
 04  9  8 21 28 15.0020000  0  6G 3G 8G13G23G27G19
    460730.18947    357588.81244  23398119.0964   23398119.7524
      -848.6414
  -2376162.62148  -1844064.07145  22686149.9864   22686149.0884
      1128.6884
   2374415.36249   1840888.76848  20751037.6274   20751035.1044
     -1875.2504
   6477850.61648   5023227.87446  22703344.4634   22703341.5884
     -4096.5164
   -160956.49249   -126332.78947  21597013.5644   21597012.3934
      -153.5164
  -1868370.41147  -1448562.54544  23996935.6664   23996933.9944
      1145.4224
 04  9  8 21 28 30.0020000  0  6G 3G 8G13G23G27G19
    473535.73247    367567.15944  23400555.7604   23400556.7684
      -858.6564
  -2393064.44348  -1857234.32045  22682933.4394   22682932.3384
      1125.0634
   2402608.04649   1862857.07848  20756402.7834   20756399.9824
     -1883.6874
   6539340.35748   5071141.91746  22715045.8464   22715042.4944
     -4102.0624
   -158626.82149   -124517.46648  21597456.9474   21597455.4284
      -157.1414
  -1885509.54747  -1461917.69344  23993674.3304   23993673.1074
      1139.9384
 04  9  8 21 28 45.0020000  0  6G 3G 8G13G23G27G19
    486489.99148    377661.39444  23403021.1824   23403021.6744
      -868.0164
  -2409912.47148  -1870362.63245  22679727.4244   22679726.5104
      1121.9844
   2430927.30649   1884924.03547  20761791.5024   20761788.5334
     -1891.6094
   6600913.98748   5119121.35346  22726762.5104   22726758.9674
     -4107.1874
   -156242.41049   -122659.48148  21597910.8694   21597909.1044
      -160.2194
  -1902567.07647  -1475209.22644  23990428.5804   23990426.8384
      1134.9694
 04  9  8 21 29  0.0020000  0  6G 3G 8G13G23G27G19
    499587.55247    387867.30444  23405513.7294   23405514.1864
      -877.9374
  -2426712.14548  -1883453.27946  22676530.4004   22676529.8384
      1118.4844
   2459367.69649   1907085.36948  20767203.8384   20767201.3504
     -1900.0624
   6662565.70648   5167161.61846  22738494.8224   22738491.0214
     -4112.6094
   -153808.78549   -120763.14448  21598373.8464   21598372.9944
      -163.8284
  -1919548.22747  -1488441.26544  23987197.0804   23987195.1274
      1129.6094
 04  9  8 21 29 15.0020000  0  6G 3G 8G13G23G27G19
    512829.14647    398185.43044  23408033.3544   23408033.8114
      -887.6724
  -2443462.56348  -1896505.53545  22673342.9004   22673341.9474
      1115.0314
   2487929.75249   1929341.51647  20772638.7834   20772636.3424
     -1908.2504
   6724295.99848   5215263.12246  22750241.8144   22750238.5104
     -4118.0164
   -151325.33249   -118827.98747  21598846.5104   21598845.1864
      -167.2344
  -1936452.05546  -1501613.04244  23983979.4944   23983978.5924
      1124.2974
 04  9  8 21 29 30.0020000  0  6G 3G 8G13G23G27G19
    526218.12947    408618.42044  23410581.2364   23410581.4394
      -897.1414
  -2460160.55448  -1909516.94146  22670165.6354   22670164.5144
      1111.8594
   2516616.96748   1951695.18448  20778097.7134   20778095.4674
     -1916.2974
   6786107.97348   5263428.25946  22762004.0724   22762000.7214
     -4123.1414
   -148788.74449   -116851.41948  21599328.9944   21599327.9944
      -170.4534
  -1953274.89947  -1514721.71144  23980778.7754   23980777.2644
      1119.2344
 04  9  8 21 29 45.0020000  0  6G 3G 8G13G23G27G19
    539751.15346    419163.63344  23413156.6114   23413156.7364
      -907.3594
  -2476809.50448  -1922490.13646  22666997.1114   22666996.1274
      1108.0314
   2545425.93148   1974143.72048  20783579.8774   20783577.6314
     -1925.0004
   6847998.18148   5311654.36746  22773781.2834   22773778.1584
     -4128.9694
   -146202.43649   -114836.10948  21599821.0884   21599820.2054
      -174.3754
  -1970019.72247  -1527769.59244  23977592.8544   23977590.7914
      1113.4384
 04  9  8 21 30  0.0020000  0  6G 3G 8G13G23G27G19
    553434.46347    429825.96244  23415759.8544   23415760.4984
      -917.0624
  -2493403.32048  -1935420.37446  22663839.5574   22663838.4474
      1104.7194
   2574362.73849   1996691.86647  20789086.3854   20789084.3574
     -1933.1414
   6909972.53848   5359946.05146  22785574.6974   22785571.1074
     -4134.1564
   -143560.36549   -112777.34547  21600323.8934   21600323.0924
      -177.7344
  -1986680.11647  -1540751.69944  23974421.7444   23974419.9084
      1108.0474
 04  9  8 21 30 15.0020000  0  6G 3G 8G13G23G27G19
    567263.33247    440601.72644  23418391.8304   23418392.1934
      -926.9374
  -2509946.70848  -1948311.30346  22660690.8614   22660690.2914
      1101.0164
   2603422.61948   2019335.92847  20794616.2134   20794613.8304
     -1941.6094
   6972025.94248   5408299.32146  22797383.1274   22797379.7174
     -4139.7344
   -140867.35749   -110678.90347  21600836.2294   21600835.5184
      -181.3914
  -2003260.61847  -1553671.54044  23971266.5724   23971264.6974
      1102.5164
 04  9  8 21 30 30.0020000  0  6G 3G 8G13G23G27G19
    581237.91647    451491.01644  23421051.0884   23421051.2994
      -936.4374
  -2526439.68648  -1961162.96746  22657552.6824   22657552.2054
      1097.9384
   2632605.66149   2042075.94448  20800169.7054   20800167.5064
     -1949.5624
   7034158.20848   5456714.02746  22809206.6664   22809202.7834
     -4144.7034
   -138123.38949   -108540.74247  21601358.5104   21601357.2014
      -184.5624
  -2019760.85747  -1566528.84044  23968126.6504   23968124.9474
      1097.4534
 04  9  8 21 30 45.0020000  0  7G 3G 8G13G10G23G27G19
    595358.66947    462494.20144  23423738.3544   23423738.3114
      -946.3444
  -2542882.00348  -1973975.14046  22654423.9474   22654423.2014
      1094.3284
   2661912.11649   2064912.14247  20805746.5964   20805744.1314
     -1957.9534
    -44215.04356    -30776.08553  24624941.4164   24624941.3304
      1100.8284
   7096369.58748   5505190.40446  22821045.0964   22821041.1074
     -4150.1414
   -135327.99749   -106362.52047  21601890.7294   21601888.8894
      -188.1724
  -2036180.09847  -1579323.02344  23965002.3304   23965000.4794
      1091.8284
 04  9  8 21 31  0.0020000  0  7G 3G 8G13G10G23G27G19
    609625.50947    473611.24244  23426453.2134   23426453.3424
      -956.1874
  -2559273.73248  -1986747.89746  22651304.4324   22651304.0724
      1090.8134
   2691341.89149   2087844.42847  20811346.5724   20811343.7254
     -1966.3124
    -60670.38847    -43598.42443  24621810.5104   24621809.8264
      1092.9064
   7158659.71248   5553728.13046  22832898.6114   22832895.1394
     -4155.5314
   -132481.64749   -104144.57448  21602432.1894   21602430.8544
      -191.7814
  -2052518.16447  -1592053.95344  23961893.1354   23961891.1394
      1086.2664
 04  9  8 21 31 15.0020000  0  7G 3G 8G13G10G23G27G19
    624038.76847    484842.32844  23429196.4554   23429195.8614
      -965.5784
  -2575614.38348  -1999480.85445  22648195.0334   22648194.0374
      1087.9844
   2720895.14249   2110872.92548  20816970.6274   20816968.3464
     -1974.0004
    -77009.49747    -56330.15643  24618701.5724   24618700.4284
      1085.6564
   7221028.57948   5602327.21746  22844767.1274   22844763.2874
     -4160.3284
   -129583.92349   -101886.60647  21602983.8384   21602982.6154
      -194.5474
  -2068774.52848  -1604721.22244  23958799.9714   23958797.6864
      1081.3754
 04  9  8 21 31 30.0020000  0  7G 3G 8G13G10G23G27G19
    638591.28047    496181.97044  23431965.9164   23431965.0764
      -974.6254
  -2591911.34248  -2012179.76346  22645093.9324   22645093.2564
      1085.2344
   2750564.78049   2133992.10648  20822616.6824   20822614.2054
     -1981.6724
    -93239.18547    -68976.69943  24615612.5644   24615611.9944
      1078.4534
   7283468.97448   5650982.03946  22856649.3074   22856645.6394
     -4164.8594
   -126642.00049    -99594.19847  21603543.3544   21603541.9754
      -197.4534
  -2084955.98447  -1617330.09544  23955720.4324   23955718.5254
      1076.4384
 04  9  8 21 31 45.0020000  0  7G 3G 8G13G10G23G27G19
    653291.12947    507636.39244  23434762.9244   23434762.4084
      -985.0784
  -2608156.55148  -2024838.35146  22642002.5184   22642001.6894
      1081.0784
   2780358.71249   2157208.15148  20828286.4164   20828283.8304
     -1990.6094
   -109351.47146    -81531.69143  24612546.2754   24612545.7134
      1070.1094
   7345988.59648   5699698.59646  22868546.2604   22868542.5144
     -4170.7814
   -123647.94849    -97261.16848  21604113.5644   21604111.4204
      -201.5314
  -2101054.21247  -1629874.13344  23952656.7214   23952655.4634
      1070.2504
 04  9  8 21 32  0.0020000  0  7G 3G 8G13G10G23G27G19
    668137.99747    519205.39144  23437587.9324   23437587.3264
      -994.3754
  -2624350.49148  -2037456.98546  22638920.9164   22638920.4244
      1078.2344
   2810276.79649   2180520.94748  20833979.5104   20833976.8544
     -1998.2664
   -125346.28946    -93995.16943  24609502.7914   24609501.9904
      1062.7504
   7408586.92848   5748476.49946  22880458.3854   22880454.7214
     -4175.4534
   -120602.15849    -94887.81648  21604692.7054   21604691.4554
      -204.4694
  -2117069.24047  -1642353.32244  23949609.5184   23949607.3614
      1065.2344
 04  9  8 21 32 15.0020000  0  7G 3G 8G13G10G23G27G19
    683132.98247    530889.79444  23440441.4634   23440440.8034
     -1004.8594
  -2640491.72748  -2050034.56346  22635849.6434   22635848.7524
      1074.1564
   2840320.01849   2203931.23448  20839696.4794   20839694.3464
     -2007.1564
   -141222.36146   -106366.12843  24606481.4474   24606481.4004
      1054.2814
   7471264.90948   5797316.44046  22892385.4244   22892382.0804
     -4181.3754
   -117503.54349    -92473.32248  21605282.6114   21605281.2134
      -208.5474
  -2132999.71947  -1654766.65244  23946577.9714   23946576.4084
      1059.0784
 04  9  8 21 32 30.0020000  0  7G 3G 8G13G10G23G27G19
    698272.34148    542686.71244  23443322.4084   23443321.6824
     -1013.8444
  -2656584.29648  -2062574.21146  22632787.1664   22632786.3264
      1071.4064
   2870484.52049   2227436.03548  20845436.6504   20845434.3264
     -2014.7664
   -156983.25045   -118647.29143  24603482.1584   24603482.0764
      1047.1564
   7534018.44548   5846215.26946  22904326.8144   22904323.6704
     -4185.8754
   -114356.10649    -90020.76347  21605881.2214   21605880.0494
      -211.2814
  -2148849.14948  -1667116.80944  23943562.1114   23943559.9594
      1054.1414
 04  9  8 21 32 45.0020000  0  7G 3G 8G13G10G23G27G19
    713557.65847    554597.35244  23446230.7214   23446230.0144
     -1023.8914
  -2672626.63848  -2075074.71546  22629733.7444   22629733.8734
      1067.8284
   2900771.94349   2251036.62148  20851200.0494   20851197.3964
     -2023.2814
   -172627.19945   -130837.36942  24600504.3774   24600504.5884
      1039.0474
   7596848.89548   5895174.03646  22916283.3934   22916279.5964
     -4191.2194
   -111158.23649    -87528.91948  21606489.7914   21606488.9204
      -214.9064
  -2164615.64748  -1679402.36244  23940562.1434   23940559.8574
      1048.3284
 04  9  8 21 33  0.0020000  0  7G 3G 8G13G10G23G27G19
    728990.29047    566622.79544  23449167.8074   23449167.1784
     -1033.5784
  -2688617.48548  -2087535.09946  22626691.2134   22626690.2914
      1064.5314
   2931183.36649   2274733.82848  20856987.3304   20856984.5024
     -2031.3594
   -188152.75945   -142935.17742  24597550.9714   24597550.4044
      1031.2504
   7659757.28848   5944193.53646  22928254.2214   22928251.3344
     -4196.3124
   -107908.77549    -84996.86248  21607108.1974   21607107.0454
      -218.2034
  -2180297.63548  -1691622.06344  23937578.1274   23937575.7054
      1042.7504
 04  9  8 21 33 15.0020000  0  7G 3G 8G13G10G23G27G19
    744568.25647    578761.46144  23452132.0724   23452131.5724
     -1043.3444
  -2704558.90549  -2099956.97146  22623657.2914   22623656.4514
      1060.9534
   2961716.60649   2298525.95448  20862797.6894   20862795.2954
     -2039.7814
   -203561.67546   -154942.08642  24594618.7134   24594618.2404
      1023.2194
   7722741.38848   5993272.02346  22940239.7994   22940237.3114
     -4201.5944
   -104609.68749    -82426.15747  21607736.0184   21607734.5294
      -221.7034
  -2195896.93848  -1703777.35244  23934608.9554   23934606.5214
      1037.0784
 04  9  8 21 33 30.0020000  0  7G 3G 8G13G10G23G27G19
    760293.37847    591014.81844  23455124.3694   23455124.1664
     -1053.2344
  -2720449.12049  -2112338.93846  22620634.0494   22620632.8734
      1057.6884
   2992373.81349   2322414.67747  20868631.3774   20868628.8544
     -2047.8914
   -218852.03646   -166856.64743  24591708.5024   24591708.5534
      1015.4534
   7785802.72748   6042410.69646  22952239.7754   22952237.2014
     -4206.6094
   -101259.36949    -79815.50948  21608373.6504   21608372.1864
      -224.9844
  -2211411.42948  -1715866.54144  23931656.5804   23931654.2484
      1031.5314
 04  9  8 21 33 45.0020000  0  7G 3G 8G13G10G23G27G19
    776163.66247    603381.28544  23458144.2444   23458144.3264
     -1062.7974
  -2736290.13549  -2124682.56646  22617619.6044   22617618.6434
      1054.5004
   3023152.72349   2346398.23848  20874488.5494   20874486.4904
     -2055.9374
   -234025.75246   -178680.28542  24588821.9714   24588821.4434
      1007.6724
   7848939.03548   6091607.79046  22964254.4714   22964251.2714
     -4211.5474
    -97859.86249    -77166.52748  21609020.5884   21609019.0764
      -228.2034
  -2226842.93948  -1727891.03744  23928720.1504   23928718.1074
      1026.0474
 04  9  8 21 34  0.0020000  0  7G 3G 8G13G10G23G27G19
    792176.62947    615858.92644  23461191.7524   23461190.9434
     -1071.8754
  -2752084.29449  -2136989.69346  22614613.8774   22614612.8184
      1051.7974
   3054050.75649   2370474.61648  20880368.1274   20880366.1154
     -2063.4534
   -249085.04146   -190414.76242  24585955.7134   24585955.6394
      1000.4844
   7912147.60848   6140861.18046  22976282.7294   22976279.7014
     -4215.9534
    -94413.74249    -74481.24848  21609676.3464   21609674.8304
      -230.9064
  -2242193.54248  -1739852.52844  23925798.3694   23925797.4124
      1021.1564
 04  9  8 21 34 15.0020000  0  7G 3G 8G13G10G23G27G19
    808334.91048    628449.78944  23464266.4244   23464266.5614
     -1082.2194
  -2767829.30549  -2149258.52446  22611617.7134   22611616.8934
      1047.8754
   3085070.60349   2394645.91648  20886270.8854   20886268.8934
     -2072.2344
   -264026.88146   -202057.76543  24583113.2364   24583112.1074
       992.0004
   7975430.81148   6190172.73946  22988325.2524   22988322.1824
     -4221.6094
    -90918.38849    -71757.59848  21610341.6114   21610339.8814
      -234.8444
  -2257460.31148  -1751748.66644  23922894.1894   23922891.6234
      1014.8134
 04  9  8 21 34 30.0020000  0  7G 3G 8G13G10G23G27G19
    824640.90948    641155.77044  23467369.4634   23467368.6114
     -1092.0784
  -2783522.47848  -2161486.95846  22608631.0644   22608630.1464
      1044.3284
   3116214.53749   2418913.91447  20892197.4634   20892194.7214
     -2080.4844
   -278848.85046   -213607.33043  24580292.0574   24580291.4474
       984.0474
   8038790.92948   6239544.22646  23000382.0024   23000378.9944
     -4226.7194
    -87371.39249    -68993.70247  21611016.3854   21611015.2524
      -238.3124
  -2272640.55347  -1763577.37244  23920004.3544   23920002.8894
      1009.0164
 04  9  8 21 34 45.0020000  0  7G 3G 8G13G10G23G27G19
    841097.60147    653979.17944  23470501.0804   23470500.1784
     -1102.1414
  -2799161.24749  -2173672.99746  22605655.2444   22605654.5574
      1040.8284
   3147485.44449   2443280.84548  20898148.1194   20898145.8424
     -2088.9224
   -293547.71346   -225060.96642  24577494.8614   24577493.7714
       975.7664
   8102230.62948   6288977.73445  23012454.5884   23012451.1504
     -4231.9064
    -83769.98549    -66187.41047  21611702.0884   21611700.7014
      -241.8444
  -2287731.09948  -1775336.21044  23917133.4794   23917131.1584
      1003.0314
 04  9  8 21 35  0.0020000  0  7G 3G 8G13G10G23G27G19
    857697.31247    666914.03144  23473659.9244   23473659.3734
     -1111.3124
  -2814753.28649  -2185822.63346  22602688.2684   22602687.1744
      1038.0784
   3178875.61349   2467740.71548  20904121.6504   20904119.5064
     -2096.4844
   -308131.07546   -236424.61242  24574719.3144   24574718.4984
       968.4694
   8165741.99648   6338467.06946  23024539.9864   23024536.7404
     -4236.3124
    -80121.89249    -63344.73947  21612395.9324   21612394.2994
      -244.6564
  -2302739.32448  -1787030.89244  23914277.3074   23914275.4364
       997.9534
 04  9  8 21 35 15.0020000  0  7G 3G 8G13G10G23G27G19
    874442.99348    679962.61044  23476846.1584   23476846.5184
     -1121.2814
  -2830295.53949  -2197933.46446  22599731.0804   22599729.8894
      1034.4224
   3210388.05249   2492295.83948  20910118.2834   20910115.6004
     -2104.9534
   -322595.71946   -247695.78742  24571966.6974   24571966.5184
       960.3444
   8229327.75548   6388014.37446  23036640.0414   23036636.6154
     -4241.6254
    -76424.14349    -60463.38247  21613099.4944   21613097.3934
      -248.1254
  -2317662.01648  -1798658.92944  23911437.5104   23911436.1544
       992.0164
 04  9  8 21 35 30.0020000  0  7G 3G 8G13G10G23G27G19
    891332.93548    693123.60644  23480060.8144   23480060.9364
     -1130.8914
  -2845789.70249  -2210006.82746  22596782.5574   22596781.4124
      1031.2814
   3242020.94549   2516944.84448  20916137.6114   20916135.5844
     -2112.9224
   -336943.21446   -258875.60542  24569236.2214   24569236.8574
       952.5634
   8292985.89848   6437618.08946  23048754.1824   23048750.8774
     -4246.3914
    -72678.66749    -57544.82647  21613812.4394   21613810.6824
      -251.3444
  -2332500.59948  -1810221.42445  23908614.2364   23908611.9124
       986.2814
 04  9  8 21 35 45.0020000  0  7G 3G 8G13G10G23G27G19
    908372.84448    706401.47544  23483302.7054   23483303.2364
     -1140.8124
  -2861229.99049  -2222038.20846  22593844.1044   22593843.3144
      1027.6564
   3273779.92949   2541692.09747  20922181.2754   20922178.9284
     -2121.3124
   -351167.55246   -269959.47842  24566529.5254   24566529.5214
       944.3134
   8356721.80348   6487282.40346  23060882.7994   23060879.1394
     -4251.4844
    -68879.77749    -54584.64848  21614535.2754   21614533.7994
      -254.9374
  -2347249.11648  -1821713.75244  23905807.5184   23905805.2794
       980.4064
 04  9  8 21 36  0.0020000  0  7G 3G 8G13G10G23G27G19
    925557.09147    719791.80044  23486573.2214   23486572.9634
     -1150.3594
  -2876622.10449  -2234032.05246  22590915.2684   22590914.8304
      1024.6094
   3305659.39149   2566533.23448  20928247.7754   20928245.2404
     -2129.2344
   -365274.29045   -280951.71642  24563845.8074   24563845.7134
       936.6564
   8420529.67448   6537002.78146  23073024.8464   23073021.3074
     -4256.2194
    -65033.08349    -51587.22048  21615267.8074   21615266.1194
      -258.0164
  -2361912.79848  -1833139.97944  23903016.9394   23903014.6894
       974.7034
 04  9  8 21 36 15.0020000  0  7G 3G 8G13G10G23G27G19
    942884.35048    733293.56244  23489870.3224   23489870.8854
     -1159.8284
  -2891967.60049  -2245989.55946  22587995.1114   22587994.4124
      1021.5474
   3337657.80349   2591467.06048  20934336.6584   20934334.5644
     -2137.1254
   -379264.40445   -291853.06642  24561182.7524   24561182.8504
       928.8284
   8484407.97148   6586778.05245  23085180.5724   23085177.3264
     -4260.7664
    -61139.95649    -48553.61548  21616008.1584   21616006.4434
      -261.0314
  -2376492.85448  -1844501.02644  23900242.3074   23900240.4754
       969.2344
 04  9  8 21 36 30.0020000  0  7G 3G 8G13G10G23G27G19
    960357.71547    746909.19144  23493195.1434   23493195.6934
     -1169.8754
  -2907263.38649  -2257908.34146  22585084.4554   22585083.6114
      1017.9384
   3369778.18549   2616495.91448  20940449.1434   20940446.2754
     -2145.5164
   -393134.75246   -302661.10042  24558543.5024   24558543.2684
       920.5944
   8548359.59748   6636610.44245  23097350.1354   23097346.6434
     -4265.9534
    -57197.46449    -45481.53947  21616758.5104   21616756.8184
      -264.6094
  -2390985.81948  -1855794.23244  23897484.9864   23897481.9984
       963.1724
 04  9  8 21 36 45.0020000  0  7G 3G 8G13G10G23G27G19
    977976.40848    760638.06344  23496547.5804   23496548.3384
     -1179.9534
  -2922510.12649  -2269788.90946  22582182.7054   22582181.7794
      1014.3444
   3402019.79049   2641619.23148  20946584.3774   20946582.0064
     -2154.0164
   -406885.99246   -313376.34343  24555926.8854   24555926.8964
       912.2504
   8612383.49148   6686499.16645  23109533.7134   23109530.0644
     -4271.1254
    -53206.35249    -42371.57348  21617517.8774   21617516.3654
      -268.2034
  -2405392.22048  -1867019.96644  23894742.8464   23894740.5644
       956.9844
 04  9  8 21 37  0.0020000  0  7G 3G 8G13G10G23G27G19
    995742.81048    774481.99744  23499928.6044   23499928.9754
     -1189.2034
  -2937705.62449  -2281629.54446  22579291.1434   22579289.9284
      1011.6094
   3434384.91049   2666838.79948  20952743.4244   20952740.9904
     -2161.5784
   -420515.67446   -323996.85342  24553333.6354   24553333.2874
       904.7664
   8676481.59748   6736445.70446  23121731.0724   23121727.3144
     -4275.4064
    -49164.59449    -39222.14448  21618287.1114   21618285.4514
      -270.9224
  -2419709.60948  -1878176.32944  23892018.2364   23892016.2994
       951.6884
 04  9  8 21 37 15.0020000  0  7G 3G 8G13G10G23G27G19
   1013653.28147    788438.21444  23503336.6584   23503336.6704
     -1198.7504
  -2952853.29349  -2293432.91246  22576409.0724   22576407.9124
      1008.3444
   3466870.02649   2692151.86248  20958925.3464   20958922.9594
     -2169.6254
   -434027.02046   -334525.13942  24550762.3384   24550761.9824
       896.9384
   8740650.27248   6786447.23945  23133942.0724   23133938.5454
     -4280.1254
    -45075.62449    -36035.93348  21619065.1584   21619063.6704
      -274.1094
  -2433941.08948  -1889265.77044  23889309.8074   23889308.0214
       945.9694
 04  9  8 21 37 30.0020000  0  7G 3G 8G13G10G23G27G19
   1031710.82948    802509.03944  23506772.7444   23506773.4364
     -1208.5004
  -2967950.18049  -2305196.70746  22573535.9394   22573534.9434
      1005.0314
   3499477.97849   2717560.65648  20965129.9714   20965127.7754
     -2177.7034
   -447416.76946   -344958.70842  24548213.9394   24548213.8304
       888.8134
   8804892.27248   6836505.91445  23146166.9714   23146163.6074
     -4284.9694
    -40936.49349    -32810.63648  21619852.5184   21619851.2134
      -277.3754
  -2448083.42448  -1900285.72144  23886618.9324   23886616.8184
       940.0944
 04  9  8 21 37 45.0020000  0  7G 3G 8G13G10G23G27G19
   1049906.80648    816687.74244  23510236.2134   23510236.1394
     -1217.8124
  -2983005.31349  -2316927.97746  22570671.1434   22570670.2134
      1002.1094
   3532200.05249   2743058.37048  20971356.9004   20971354.5964
     -2185.3754
   -460693.48145   -355304.15642  24545687.5024   24545687.0574
       881.0634
   8869198.69048   6886614.77046  23158404.0494   23158400.9904
     -4289.3914
    -36755.93449    -29553.05447  21620648.0254   21620646.8144
      -280.2194
  -2462145.05348  -1911242.81844  23883943.2834   23883941.2644
       934.6254
 04  9  8 21 38  0.0020000  0  7G 3G 8G13G10G23G27G19
   1068244.60847    830976.94044  23513725.2754   23513725.9634
     -1226.8124
  -2998014.81049  -2328623.68146  22567814.8304   22567814.1004
       999.5474
   3565039.56249   2768647.59748  20977606.0494   20977603.9674
     -2192.7814
   -473853.57046   -365558.75042  24543183.0334   24543183.1934
       873.7814
   8933572.67848   6936776.28846  23170654.0724   23170650.5374
     -4293.4374
    -32530.54049    -26260.53647  21621451.8854   21621450.8504
      -282.7974
  -2476122.26548  -1922134.11945  23881283.2604   23881281.3424
       929.4224
 04  9  8 21 38 15.0020000  0  7G 3G 8G13G10G23G27G19
   1086727.81547    845379.42944  23517242.6824   23517242.7294
     -1237.0314
  -3012975.52549  -2340281.36846  22564968.0804   22564967.1784
       995.7974
   3598000.10049   2794331.12348  20983878.2214   20983875.8424
     -2201.2974
   -486893.26046   -375719.50542  24540701.8384   24540701.7754
       865.2814
   8998017.60048   6986993.07445  23182917.4004   23182914.3264
     -4298.5784
    -28256.83849    -22930.37548  21622265.3854   21622264.0414
      -286.4534
  -2490011.14047  -1932956.59444  23878640.1354   23878638.5684
       923.0314
 04  9  8 21 38 30.0020000  0  7G 3G 8G13G10G23G27G19
   1105353.64147    859893.05744  23520786.7054   23520787.0414
     -1246.9224
  -3027890.07349  -2351903.08946  22562129.7604   22562128.7714
       992.4224
   3631078.70049   2820106.63348  20990172.8854   20990170.7214
     -2209.5314
   -499815.25647   -385788.58842  24538243.5414   24538242.4284
       857.2504
   9062530.44748   7037262.78546  23195194.4554   23195190.9434
     -4303.4844
    -23937.66149    -19564.78948  21623087.5804   21623085.9474
      -289.8284
  -2503814.25347  -1943712.24144  23876013.7134   23876011.4864
       917.0164
 04  9  8 21 38 45.0020000  0  7G 3G 8G13G10G23G27G19
   1124124.71046    874519.87744  23524358.9004   23524359.1744
     -1256.2814
  -3042755.89149  -2363486.83246  22559300.8074   22559300.0844
       989.4224
   3664278.08949   2845976.27948  20996490.8384   20996488.4044
     -2217.3124
   -512616.54847   -395763.62443  24535807.2524   24535806.4714
       849.3754
   9127113.61348   7087587.30246  23207483.6584   23207480.7324
     -4307.9374
    -19570.43949    -16161.75747  21623918.5804   21623916.4634
      -292.7814
  -2517528.68548  -1954398.76844  23873403.7214   23873402.0024
       911.2504
 04  9  8 21 39  0.0020000  0  7G 3G 8G13G10G23G27G19
   1143045.25547    889263.15244  23527959.0104   23527959.2444
     -1266.6564
  -3057568.86849  -2375029.40446  22556482.3854   22556480.9084
       985.5474
   3697602.40249   2871943.26948  21002831.8934   21002829.8654
     -2226.0164
   -525292.84648   -405641.24343  24533395.3074   24533394.5104
       840.6564
   9191771.01148   7137969.65746  23219787.1584   23219784.5764
     -4313.1564
    -15151.02149    -12718.05148  21624759.4004   21624757.7604
      -296.6414
  -2531149.95948  -1965012.71544  23870811.7754   23870809.9554
       904.7664
 04  9  8 21 39 15.0020000  0  7G 3G 8G13G10G23G27G19
   1162115.01647    904122.72144  23531588.3774   23531587.7754
     -1275.9224
  -3072328.81549  -2386530.65046  22553673.3854   22553672.1544
       982.4384
   3731051.45049   2898007.45648  21009197.1664   21009194.8424
     -2233.7664
   -537844.04947   -415421.40143  24531006.0574   24531006.6824
       832.8444
   9256502.30048   7188409.58945  23232105.3614   23232102.8184
     -4317.5624
    -10679.61348     -9233.84248  21625610.2754   21625608.8344
      -299.5784
  -2544677.90148  -1975553.92044  23868237.5724   23868235.9864
       899.0164
 04  9  8 21 39 30.0020000  0  7G 3G 8G13G10G23G27G19
   1181325.64047    919092.03144  23535244.0644   23535243.5534
     -1285.6094
  -3087044.43349  -2397997.35946  22550872.8304   22550871.8964
       979.4694
   3764616.68949   2924162.17048  21015584.5334   21015582.3144
     -2241.7034
   -550278.43647   -425110.52643  24528640.5494   24528640.0414
       824.9384
   9321298.75848   7238900.30346  23244435.5644   23244433.2324
     -4322.0784
     -6164.72949     -5715.74147  21626469.6354   21626467.8934
      -302.5944
  -2558120.65748  -1986028.76344  23865679.1504   23865677.2524
       893.2344
 04  9  8 21 39 45.0020000  0  7G 3G 8G13G10G23G27G19
   1200682.91147    934175.61344  23538927.4794   23538927.8344
     -1294.8124
  -3101709.90649  -2409424.99146  22548082.1114   22548081.6894
       976.5474
   3798303.84749   2950411.88847  21021994.9794   21021992.8304
     -2249.2664
   -562590.05448   -434703.98743  24526297.5494   24526297.2794
       817.3134
   9386165.95348   7289446.12646  23256779.7994   23256777.0254
     -4326.2664
     -1600.58449     -2159.27647  21627337.8694   21627336.1004
      -305.3594
  -2571472.14148  -1996432.50044  23863138.9244   23863136.0764
       887.6564
 04  9  8 21 40  0.0020000  0  7G 3G 8G13G10G23G27G19
   1220182.71747    949370.26744  23542638.3774   23542637.6394
     -1304.7504
  -3116329.37149  -2420816.76646  22545300.2364   22545299.0494
       973.0634
   3832108.73748   2976753.35348  21028427.4794   21028425.2324
     -2257.5624
   -574782.82447   -444204.86543  24523976.8544   24523976.9164
       808.9224
   9451099.50048   7340043.66046  23269136.5574   23269134.0374
     -4331.0474
      3008.69448      1432.37247  21628214.8694   21628213.7914
      -308.7974
  -2584736.22548  -2006768.15944  23860614.8224   23860611.7324
       881.3594
 04  9  8 21 40 15.0020000  0  7G 3G 8G13G10G23G27G19
   1239820.99647    964672.83344  23546375.3614   23546375.6314
     -1314.0624
  -3130906.81349  -2432175.80146  22542526.3934   22542525.6074
       970.1254
   3866027.37049   3003183.44348  21034882.4394   21034880.5614
     -2265.4064
   -586860.50247   -453615.99743  24521678.7054   24521678.7714
       801.0004
   9516095.23248   7390689.65145  23281504.6434   23281502.0884
     -4335.4534
      7658.99248      5055.98747  21629100.1824   21629098.4554
      -311.7194
  -2597916.52248  -2017038.48844  23858106.5334   23858104.1004
       875.5634
 04  9  8 21 40 30.0020000  0  7G 3G 8G13G10G23G27G19
   1259608.34448    980091.53844  23550141.0254   23550141.2294
     -1323.9844
  -3145431.71449  -2443493.90746  22539762.2604   22539761.3504
       966.6564
   3900070.25049   3029710.35648  21041360.6744   21041358.2754
     -2273.5474
   -598812.26947   -462929.08643  24519404.7214   24519404.2524
       792.6414
   9581163.54448   7441392.20145  23293887.0104   23293884.0924
     -4340.2034
     12361.00948      8719.89248  21629994.7994   21629993.2754
      -315.0784
  -2611002.12348  -2027235.04745  23855617.0184   23855614.2564
       869.2344
 04  9  8 21 40 45.0020000  0  7G 3G 8G13G10G23G27G19
   1279539.17547    995622.05044  23553933.6434   23553933.4864
     -1333.5944
  -3159909.45549  -2454775.25246  22537007.2754   22537006.3694
       963.5314
   3934231.82248   3056329.75748  21047861.2524   21047858.8344
     -2281.4694
   -610643.57148   -472148.28643  24517153.3304   24517152.5534
       784.6254
   9646298.70748   7492146.82645  23306281.6824   23306278.6074
     -4344.6564
     17108.94948     12419.58748  21630898.1504   21630896.6464
      -318.0784
  -2623998.52848  -2037362.09745  23853143.3774   23853140.9284
       863.3284
 04  9  8 21 41  0.0020000  0  7G 3G 8G13G10G23G27G19
   1299611.11147   1011262.52444  23557753.2134   23557753.0064
     -1343.0004
  -3174342.62649  -2466021.86646  22534260.5964   22534259.7094
       960.6564
   3968509.59948   3083039.70048  21054384.0104   21054382.0374
     -2289.1564
   -622356.64948   -481275.33943  24514924.4084   24514924.2014
       776.8754
   9711497.91048   7542951.37846  23318688.4634   23318685.7684
     -4348.8444
     21900.47748     16153.24947  21631810.0644   21631808.7484
      -320.9694
  -2636907.76548  -2047421.21645  23850686.6354   23850684.6314
       857.5944
 04  9  8 21 41 15.0020000  0  7G 3G 8G13G10G23G27G19
   1319834.63947   1027021.14144  23561601.4634   23561601.7874
     -1353.0784
  -3188720.78749  -2477225.60946  22531524.4714   22531523.5574
       957.0314
   4002914.10649   3109848.40648  21060930.9474   21060929.0374
     -2297.5944
   -633940.68847   -490301.85243  24512720.0724   24512719.3074
       768.2814
   9776771.53648   7593813.91345  23331110.1824   23331107.1584
     -4353.7814
     26746.11248     19929.07848  21632732.0964   21632730.0884
      -324.5004
  -2649719.05448  -2057403.98545  23848248.9554   23848247.1894
       851.0784
 04  9  8 21 41 30.0020000  0  7G 3G 8G13G10G23G27G19
   1340202.75848   1042892.38844  23565477.6504   23565478.0334
     -1362.6874
  -3203050.85249  -2488391.89546  22528797.5414   22528796.4084
       953.7344
   4037438.31749   3136750.37848  21067500.3614   21067498.3384
     -2305.5164
   -645402.43447   -499233.06543  24510538.5884   24510538.3144
       760.1564
   9842112.40848   7644728.82745  23343543.6044   23343541.0454
     -4358.2344
     31638.74748     23741.51147  21633663.4554   21633661.8734
      -327.6724
  -2662438.99248  -2067315.60645  23845828.2524   23845826.3224
       845.0004
 04  9  8 21 41 45.0020000  0  7G 3G 8G13G10G23G27G19
   1360713.46048   1058874.76644  23569380.8854   23569380.4904
     -1371.7034
  -3217334.60149  -2499522.07646  22526079.4634   22526078.6704
       951.0784
   4072080.15249   3163744.00947  21074092.9944   21074090.8694
     -2313.0164
   -656743.72547   -508070.42843  24508380.3774   24508380.6234
       752.4384
   9907518.31047   7695694.43845  23355989.8144   23355986.9004
     -4362.2034
     36576.46949     27589.09248  21634602.7054   21634601.4714
      -330.2344
  -2675069.37148  -2077157.44545  23843424.9474   23843422.4754
       839.4224
 04  9  8 21 42  0.0020000  0  7G 3G 8G13G10G23G27G19
   1381366.99347   1074968.42844  23573310.4324   23573310.6394
     -1382.0784
  -3231571.96049  -2510616.10446  22523370.3224   22523369.6074
       947.1564
   4106839.75848   3190829.41148  21080707.0964   21080704.9754
     -2321.6414
   -667964.28447   -516813.70043  24506245.5804   24506244.7684
       743.6094
   9972989.12648   7746710.63345  23368448.7754   23368446.0574
     -4367.2814
     41559.23649     31471.77348  21635551.0184   21635549.3344
      -334.0624
  -2687609.63248  -2086929.04145  23841038.0574   23841036.5104
       832.6414
 04  9  8 21 42 15.0020000  0  7G 3G 8G13G10G23G27G19
   1402169.00047   1091177.78744  23577269.4634   23577268.9164
     -1391.8284
  -3245757.38349  -2521669.68146  22520670.9244   22520669.7754
       943.9224
   4141722.69649   3218010.91548  21087345.5644   21087343.2914
     -2329.6564
   -679058.17647   -525458.27543  24504134.0334   24504133.6394
       735.2974
  10038530.32548   7797781.65845  23380921.3934   23380918.2524
     -4371.8284
     46592.99649     35394.17548  21636508.5724   21636507.6664
      -337.3124
  -2700053.78548  -2096625.74945  23838670.3224   23838668.3774
       826.3444
 04  9  8 21 42 30.0020000  0  7G 3G 8G13G10G23G27G19
   1423118.04047   1107501.69645  23581256.1664   23581256.1584
     -1401.4064
  -3259892.26749  -2532683.86346  22517981.0104   22517980.2644
       940.7814
   4176727.47349   3245287.34848  21094006.3074   21094004.2684
     -2337.5624
   -690026.73047   -534005.16743  24502046.8304   24502047.0684
       727.1724
  10104140.21647   7848906.20845  23393406.1434   23393402.7444
     -4376.1564
     51675.97448     39354.94248  21637476.1744   21637474.9164
      -340.4374
  -2712403.11048  -2106248.58645  23836320.2604   23836318.2914
       820.2814
 04  9  8 21 42 45.0020000  0  7G 3G 8G13G10G23G27G19
   1444213.25748   1123939.53545  23585270.2444   23585270.3544
     -1411.0624
  -3273977.45749  -2543659.32546  22515300.8854   22515299.9124
       937.3914
   4211853.25749   3272658.08048  21100690.6274   21100688.1074
     -2345.6874
   -700870.51147   -542454.83543  24499983.0024   24499983.4284
       718.8754
  10169817.82947   7900083.54245  23405904.1114   23405900.6704
     -4380.6724
     56807.44749     43353.48647  21638452.7364   21638451.1974
      -343.6254
  -2724658.09148  -2115797.89645  23833988.6194   23833986.5844
       813.9844
 04  9  8 21 43  0.0020000  0  7G 3G 8G13G10G23G27G19
   1465450.65147   1140488.16744  23589311.7604   23589311.9674
     -1420.6094
  -3288016.72249  -2554599.00146  22512629.2684   22512628.2524
       934.4224
   4247096.00249   3300119.95348  21107397.3464   21107395.0214
     -2353.4844
   -711593.34647   -550810.28043  24497943.3544   24497942.7644
       710.6724
  10235558.85747   7951310.28945  23418414.2834   23418411.4904
     -4384.8444
     61983.50349     47386.78247  21639437.7604   21639436.1354
      -346.5784
  -2736822.45448  -2125276.59445  23831673.4714   23831671.0804
       807.8594
 04  9  8 21 43 15.0020000  0  7G 3G 8G13G10G23G27G19
   1486835.82247   1157151.93544  23593380.5964   23593381.0294
     -1430.2034
  -3302004.47149  -2565498.53946  22509967.2994   22509966.3114
       931.2504
   4282461.37249   3327677.36948  21114126.7604   21114124.1544
     -2361.4064
   -722189.41447   -559066.96643  24495926.5884   24495926.1354
       702.5784
  10301368.73948   8002590.68045  23430937.5104   23430934.6044
     -4389.2974
     67209.63449     51459.09448  21640432.3074   21640430.8854
      -349.7344
  -2748890.26548  -2134680.05245  23829377.4634   23829374.7714
       801.6884
 04  9  8 21 43 30.0020000  0  7G 3G 8G13G10G23G27G19
   1508360.71947   1173924.57344  23597476.6584   23597477.1704
     -1439.8284
  -3315948.75049  -2576364.20747  22507313.5104   22507312.7794
       928.0314
   4317941.17549   3355323.95348  21120878.8774   21120876.5334
     -2369.3124
   -732666.42347   -567230.84343  24493933.4324   24493932.9824
       694.3754
  10367239.30347   8053918.34345  23443472.2364   23443469.0144
     -4393.5314
     72477.74949     55564.11548  21641434.8074   21641433.3114
      -352.7504
  -2760869.19148  -2144014.26345  23827097.6824   23827095.6664
       795.4844
 04  9  8 21 43 45.0020000  0  7G 3G 8G13G10G23G27G19
   1530032.19048   1190811.44144  23601601.1894   23601600.7444
     -1449.6094
  -3329842.98049  -2587190.86946  22504669.8854   22504669.0964
       924.6884
   4353542.23649   3383065.03248  21127653.1584   21127650.7834
     -2377.3594
   -743017.46747   -575296.56943  24491963.5724   24491962.9944
       685.8284
  10433177.04647   8105298.38145  23456019.7214   23456016.4204
     -4398.0474
     77794.70749     59707.20947  21642446.4004   21642444.9244
      -356.0474
  -2772752.13248  -2153273.64945  23824836.0724   23824833.7994
       789.0944
 04  9  8 21 44  0.0020000  0  7G 3G 8G13G10G23G27G19
   1551846.71248   1207809.77244  23605752.3074   23605752.2054
     -1458.7664
  -3343690.41549  -2597981.05646  22502034.4864   22502033.7484
       921.9694
   4389260.92548   3410897.78047  21134450.3144   21134447.7134
     -2384.8754
   -753246.00347   -583266.84543  24490016.6824   24490016.0334
       678.1884
  10499178.26047   8156727.85645  23468579.1584   23468576.5334
     -4401.9224
     83156.84449     63885.50248  21643466.7684   21643465.6154
      -358.6724
  -2784542.47548  -2162460.88945  23822592.5414   23822590.1354
       783.2194
 04  9  8 21 44 15.0020000  0  7G 3G 8G13G10G23G27G19
   1573805.48548   1224920.50844  23609930.2134   23609930.8694
     -1469.1414
  -3357489.94649  -2608733.92946  22499408.9324   22499407.6234
       917.9064
   4425098.44649   3438823.11447  21141270.3074   21141267.0644
     -2393.4844
   -763350.39946   -591140.38543  24488094.1894   24488093.1934
       669.0474
  10565243.94848   8208207.56945  23481151.1974   23481148.1664
     -4406.9064
     88565.47649     68100.01848  21644496.0964   21644494.4124
      -362.5474
  -2796238.61748  -2171574.75045  23820366.8304   23820364.3964
       776.2034
 04  9  8 21 44 30.0020000  0  7G 3G 8G13G10G23G27G19
   1595913.66548   1242147.66144  23614137.1044   23614137.9394
     -1478.4844
  -3371236.21549  -2619445.30146  22496792.9714   22496791.8574
       915.0784
   4461060.02349   3466845.09747  21148113.3854   21148110.5964
     -2401.1874
   -773325.35246   -598913.03343  24486195.6664   24486194.9204
       661.1254
  10631379.07747   8259741.40345  23493736.6744   23493733.3304
     -4410.9064
     94025.85549     72354.86048  21645534.8774   21645533.3574
      -365.3444
  -2807834.97948  -2180610.84145  23818160.0574   23818157.4714
       770.2034
 04  9  8 21 44 45.0020000  0  7G 3G 8G13G10G23G27G19
   1618165.84448   1259487.02344  23618371.9794   23618372.3034
     -1488.4534
  -3384934.80549  -2630119.51446  22494186.0644   22494185.5104
       911.4534
   4497140.11649   3494959.45048  21154979.0184   21154976.9124
     -2409.4064
   -783176.08446   -606588.91943  24484320.8544   24484320.3574
       652.3914
  10697578.03747   8311324.97345  23506333.6974   23506330.5184
     -4415.6094
     99532.42549     76645.70748  21646583.0414   21646581.5104
      -368.8284
  -2819336.80048  -2189573.27745  23815971.2364   23815968.4754
       763.4844
 04  9  8 21 45  0.0020000  0  7G 3G 8G13G10G23G27G19
   1640565.67548   1276941.43944  23622634.2834   23622634.7294
     -1498.1564
  -3398581.98849  -2640753.66247  22491589.0254   22491587.9164
       908.1884
   4533342.49248   3523169.07548  21161868.2524   21161865.4394
     -2417.4694
   -792898.76446   -614165.02843  24482471.1274   24482469.6894
       644.1564
  10763844.36847   8362961.03245  23518943.7834   23518940.8264
     -4419.9844
    105088.88348     80975.40648  21647640.6434   21647639.0184
      -371.9534
  -2830739.99648  -2198458.87744  23813801.5884   23813798.7294
       756.9844
 04  9  8 21 45 15.0020000  0  7G 3G 8G13G10G23G27G19
   1663110.27348   1294508.66544  23626924.2134   23626924.6194
     -1507.8754
  -3412180.46849  -2651349.87347  22489001.4004   22489000.6824
       904.8284
   4569664.11649   3551471.63347  21168779.9394   21168777.7094
     -2425.5164
   -802495.88046   -621643.28143  24480644.5724   24480643.5494
       635.5944
  10830174.78547   8414647.03745  23531566.3544   23531563.4394
     -4424.2664
    110692.39849     85341.77948  21648706.7364   21648705.4244
      -375.2194
  -2842047.20748  -2207269.66644  23811650.0724   23811646.4204
       750.4224
 04  9  8 21 45 30.0020000  0  7G 3G 8G13G10G23G27G19
   1685803.41648   1312191.63844  23631242.9244   23631243.1114
     -1517.3444
  -3425726.27949  -2661905.03247  22486423.9164   22486422.8224
       901.7194
   4606108.75849   3579870.04247  21175715.0104   21175712.8304
     -2433.3914
   -811963.46746   -629020.59543  24478842.7444   24478842.4324
       627.2814
  10896573.04147   8466385.89545  23544201.0254   23544198.6704
     -4428.3754
    116346.77149     89747.79248  21649782.7364   21649781.4514
      -378.2194
  -2853254.25648  -2216002.41744  23809517.3074   23809514.1354
       744.2664
 04  9  8 21 45 45.0020000  0  7G 3G 8G13G10G23G27G19
   1708635.12548   1329982.59344  23635587.8934   23635587.7834
     -1527.1254
  -3439229.71149  -2672427.18347  22483853.8934   22483853.1784
       898.4064
   4642666.47049   3608356.55747  21182672.1274   21182669.7994
     -2441.3124
   -821311.30346   -636304.61443  24477064.4084   24477063.7054
       618.8754
  10963028.95747   8518169.69145  23556847.4004   23556844.8184
     -4432.7664
    122042.03649     94185.65647  21650866.2364   21650864.9904
      -381.4534
  -2864370.80248  -2224664.63744  23807401.3144   23807398.6784
       737.6414
 04  9  8 21 46  0.0020000  0  7G 3G 8G13G10G23G27G19
   1731612.30948   1347886.90044  23639959.9864   23639960.2014
     -1536.7664
  -3452683.53849  -2682910.66947  22481293.9004   22481292.8964
       895.1724
   4679344.06749   3636936.49348  21189651.3934   21189649.0024
     -2449.2974
   -830532.33146   -643489.79143  24475308.8304   24475308.8934
       610.2344
  11029549.14647   8570003.56345  23569506.4004   23569503.1624
     -4436.9224
    127785.10348     98660.77448  21651959.1744   21651958.1624
      -384.6564
  -2875389.64548  -2233250.72344  23805304.1974   23805302.1274
       731.1884
 04  9  8 21 46 15.0020000  0  8G 3G 8G13G10G23G27G19G28
   1754735.24848   1365904.78944  23644360.3464   23644360.7994
     -1546.4694
  -3466087.49149  -2693355.29847  22478743.0574   22478742.4394
       891.8444
   4716141.67949   3665609.95248  21196653.9084   21196651.3854
     -2457.3124
   -839626.16246   -650575.89443  24473578.9714   24473578.7564
       601.9384
  11096133.74748   8621887.62345  23582176.6824   23582174.5614
     -4441.0944
    133576.13549    103173.27647  21653061.3144   21653060.1194
      -387.7034
  -2886310.24248  -2241760.26844  23803226.6114   23803224.1274
       724.7194
    -76550.36958    -56514.75653  24969600.9794   24969600.4754
      2159.6414
 04  9  8 21 46 30.0020000  0  8G 3G 8G13G10G23G27G19G28
   1777999.17848   1384032.52244  23648787.5254   23648787.2174
     -1555.5004
  -3479446.53149  -2703764.92347  22476201.1114   22476200.6784
       889.2194
   4753054.63349   3694373.28748  21203678.0644   21203675.7564
     -2464.5004
   -848597.33146   -657566.39543  24471871.4794   24471871.5454
       594.0634
  11162777.78047   8673818.00145  23594858.7914   23594856.0534
     -4444.6874
    139410.45249    107719.50247  21654171.4324   21654170.0374
      -390.1874
  -2897137.03448  -2250196.67744  23801165.5024   23801163.8344
       718.8134
   -108932.86548    -81747.80943  24963438.9554   24963437.7444
      2157.9064
 04  9  8 21 46 45.0020000  0  8G 3G 8G13G10G23G27G19G28
   1801402.25348   1402268.68444  23653240.8464   23653240.3544
     -1564.8914
  -3492762.44649  -2714140.95147  22473666.9864   22473666.1744
       886.2974
   4790081.03849   3723225.00648  21210724.2444   21210721.3464
     -2472.1724
   -857447.43946   -664462.55243  24470188.2524   24470187.2604
       585.9844
  11229479.12248   8725793.02045  23607551.2994   23607548.5454
     -4448.6414
    145286.23149    112298.02347  21655289.6894   21655288.2294
      -393.1094
  -2907871.53548  -2258561.19245  23799123.6894   23799121.3184
       712.5634
   -141285.73948   -106957.78343  24957281.7364   24957281.6394
      2155.8444
 04  9  8 21 47  0.0020000  0  8G 3G 8G13G10G23G27G19G28
   1824951.59648   1420618.83944  23657722.2834   23657721.9714
     -1574.4224
  -3506028.09149  -2724477.79947  22471143.0724   22471141.9124
       883.0944
   4827227.95849   3752170.65847  21217792.6274   21217790.1974
     -2480.1414
   -866169.24046   -671258.76843  24468527.7914   24468527.3654
       577.5474
  11296244.89447   8777818.29045  23620256.4864   23620253.3344
     -4452.9064
    151210.46849    116914.32047  21656417.0964   21656415.2404
      -396.2194
  -2918506.39848  -2266848.06545  23797099.9004   23797097.9364
       706.0474
   -173601.70748   -132138.98143  24951133.1974   24951132.3894
      2153.5784
 04  9  8 21 47 15.0020000  0  8G 3G 8G13G10G23G27G19G28
   1848643.38548   1439079.96644  23662230.1504   23662230.0644
     -1584.2814
  -3519247.04049  -2734778.28247  22468627.4244   22468626.4204
       879.5944
   4864491.66349   3781207.29048  21224883.9864   21224881.3934
     -2488.2344
   -874766.27046   -677957.75043  24466891.9794   24466891.4284
       568.9224
  11363070.87347   8829890.42745  23632973.1664   23632969.9164
     -4457.0944
    157179.49449    121565.49748  21657552.9004   21657551.3504
      -399.5944
  -2929045.17748  -2275060.07145  23795094.2134   23795092.0024
       699.2814
   -205884.45548   -157294.33143  24944989.0254   24944988.6154
      2151.0164
 04  9  8 21 47 30.0020000  0  8G 3G 8G13G10G23G27G19G28
   1872477.99848   1457652.40844  23666765.8144   23666766.5064
     -1593.7194
  -3532418.86949  -2745042.03047  22466120.7754   22466120.0024
       876.6094
   4901872.45749   3810335.18348  21231997.3854   21231994.8544
     -2495.9064
   -883237.86446   -684558.94544  24465280.2914   24465279.6434
       560.6724
  11429957.43247   8882009.79745  23645701.2684   23645698.9984
     -4461.0474
    163193.68549    126251.88848  21658697.2444   21658695.8774
      -402.4224
  -2939487.05148  -2283196.56345  23793107.4394   23793104.3574
       692.8754
   -238133.11448   -182423.08143  24938852.2754   24938852.2444
      2148.8914
 04  9  8 21 47 45.0020000  0  8G 3G 8G13G10G23G27G19G28
   1896453.76548   1476334.82744  23671327.8694   23671328.2054
     -1603.2814
  -3545545.11249  -2755270.25347  22463623.0024   22463622.2644
       873.2504
   4939368.74749   3839553.06448  21239132.5334   21239130.2714
     -2503.8444
   -891585.35147   -691063.48044  24463691.9554   24463691.1504
       552.0634
  11496902.63948   8934174.86145  23658440.6664   23658437.4714
     -4465.2344
    169251.50149    130972.28248  21659850.5644   21659848.9004
      -405.5944
  -2949833.32248  -2291258.58045  23791138.6584   23791135.9084
       686.3284
   -270349.11247   -207526.41743  24932721.4324   24932721.6394
      2146.3914
 04  9  8 21 48  0.0020000  0  8G 3G 8G13G10G23G27G19G28
   1920572.16848   1495128.38044  23675917.5104   23675917.6824
     -1612.8914
  -3558624.53449  -2765462.01547  22461134.0804   22461133.2834
       870.2194
   4976981.81549   3868861.92647  21246290.1664   21246288.0844
     -2511.5784
   -899807.24547   -697470.15244  24462127.1434   24462126.7794
       543.7504
  11563907.85448   8986386.68245  23671191.4394   23671188.4044
     -4469.1254
    175354.26749    135727.66948  21661011.5254   21661010.0574
      -408.5624
  -2960082.36248  -2299244.81445  23789188.0494   23789185.3654
       679.9064
   -302531.01247   -232603.16442  24926597.9944   24926597.8574
      2144.1094
 04  9  8 21 48 15.0020000  0  8G 3G 8G13G10G23G27G19G28
   1944832.69048   1514032.71444  23680534.4164   23680534.2754
     -1621.8914
  -3571657.41649  -2775617.48747  22458654.0104   22458653.1544
       867.5004
   5014711.23449   3898261.46147  21253469.5644   21253467.8654
     -2518.9844
   -907903.80447   -703779.13444  24460585.8774   24460585.3614
       535.7034
  11630972.17748   9038644.55745  23683953.3224   23683950.3264
     -4472.7974
    181501.58549    140517.80148  21662181.3224   21662179.7404
      -411.1094
  -2970234.14448  -2307155.26745  23787256.4474   23787253.7914
       673.7504
   -334679.11547   -257653.56342  24920479.8694   24920479.6704
      2142.2034
 04  9  8 21 48 30.0030000  0  8G 3G 8G13G10G23G27G19G28
   1969236.46148   1533048.64844  23685178.1324   23685178.3514
     -1631.3754
  -3584645.01849  -2785737.67947  22456182.3584   22456181.4644
       864.3754
   5052558.88049   3927753.13848  21260671.8354   21260669.6164
     -2526.7814
   -915875.83347   -709991.11143  24459069.1554   24459068.9014
       527.3914
  11698099.49848   9090951.52645  23696727.5384   23696724.9334
     -4476.7504
    187693.32649    145342.54148  21663359.4834   21663358.0074
      -414.0944
  -2980289.69348  -2314990.72945  23785342.3124   23785340.0154
       667.2974
   -366795.77847   -282679.43942  24914368.1794   24914368.6834
      2140.0164
 04  9  8 21 48 45.0030000  0  8G 3G 8G13G10G23G27G19G28
   1993781.86848   1552174.93044  23689849.4054   23689849.1554
     -1641.3914
  -3597584.28749  -2795820.22647  22453720.0934   22453719.4294
       860.8444
   5090521.22849   3957334.15948  21267895.9764   21267893.6514
     -2535.0004
   -923720.46747   -716103.82343  24457576.2334   24457575.9644
       518.4534
  11765282.32548   9143301.73745  23709512.1324   23709509.3944
     -4481.1254
    193930.37249    150202.56648  21664546.5384   21664544.8784
      -417.5314
  -2990245.66748  -2322748.62145  23783447.8194   23783445.4174
       660.1884
   -398874.91447   -307676.12442  24908263.5384   24908264.2764
      2137.1724
 04  9  8 21 49  0.0030000  0  8G 3G 8G13G10G23G27G19G28
   2018474.30448   1571415.78244  23694548.3584   23694548.3004
     -1651.1874
  -3610471.85049  -2805862.47947  22451267.8824   22451266.4604
       857.3444
   5128604.51549   3987009.44348  21275142.7654   21275140.6364
     -2543.0164
   -931434.27947   -722114.57743  24456108.7334   24456107.7264
       509.7974
  11832528.60748   9195701.38645  23722308.2574   23722305.8824
     -4485.3754
    200216.83049    155101.10748  21665742.6944   21665741.4764
      -420.8284
  -3000098.73948  -2330426.31244  23781572.4294   23781570.7294
       653.3284
   -430914.81047   -332642.18742  24902166.7884   24902166.5894
      2134.5474
 04  9  8 21 49 15.0030000  0  8G 3G 8G13G10G23G27G19G28
   2043311.66048   1590769.57244  23699274.6014   23699275.1754
     -1660.7034
  -3623309.78249  -2815866.04847  22448824.5464   22448823.7654
       854.1094
   5166806.83149   4016777.46948  21282412.4994   21282410.2454
     -2550.8284
   -939019.05347   -728024.77643  24454664.4134   24454664.1874
       501.3754
  11899836.20248   9248148.81945  23735116.0304   23735114.0774
     -4489.2344
    206550.81049    160036.68548  21666947.9524   21666946.1944
      -423.8754
  -3009850.45548  -2338025.01544  23779716.8514   23779714.7964
       646.7344
   -462917.05448   -357578.97443  24896076.9294   24896076.9214
      2132.1724
 04  9  8 21 49 30.0030000  0  8G 3G 8G13G10G23G27G19G28
   2068294.66948   1610236.86845  23704028.6244   23704029.3004
     -1670.3124
  -3636097.25149  -2825830.29347  22446391.2574   22446390.2764
       850.9694
   5205128.91549   4046638.82748  21289704.8514   21289702.8704
     -2558.6254
   -946473.74747   -733833.63443  24453246.2414   24453245.3664
       492.7344
  11967205.60247   9300644.41845  23747936.1014   23747933.9484
     -4493.2194
    212933.03949    165009.84748  21668162.2654   21668161.1874
      -426.9694
  -3019499.83848  -2345544.00245  23777880.5624   23777877.9404
       640.0474
   -494880.81648   -382485.74543  24889994.8824   24889994.7184
      2129.7814
 04  9  8 21 49 45.0030000  0  8G 3G 8G13G10G23G27G19G28
   2093421.14748   1629815.95144  23708809.6874   23708810.1444
     -1679.7974
  -3648836.56549  -2835757.02747  22443966.9994   22443966.4094
       847.7344
   5243568.67149   4076591.86448  21297019.9764   21297017.8354
     -2566.5004
   -953800.35247   -739542.65843  24451851.8664   24451851.4914
       484.2974
  12034634.61448   9353186.44945  23760767.5154   23760764.5654
     -4497.1414
    219361.35549    170018.93148  21669385.8664   21669384.7024
      -429.9844
  -3029048.63948  -2352984.61144  23776064.2024   23776061.7184
       633.3134
   -526807.98848   -407364.00242  24883918.9994   24883918.6514
      2127.3914
 04  9  8 21 50  0.0030000  0  8G 3G 8G13G10G23G27G19G28
   2118692.64748   1649508.03444  23713618.8274   23713619.1084
     -1689.4064
  -3661525.99949  -2845644.88047  22441552.1944   22441551.2964
       844.5314
   5282127.52549   4106637.71248  21304357.5934   21304355.5774
     -2574.3124
   -960997.23646   -745150.59243  24450482.2884   24450482.0074
       475.7504
  12102124.43847   9405775.87944  23773610.6244   23773607.9564
     -4501.0944
    225837.41549    175065.21548  21670617.9684   21670616.1044
      -433.0314
  -3038495.25448  -2360345.59345  23774266.6324   23774263.6594
       626.6254
   -558697.02647   -432212.55942  24877850.2804   24877850.2184
      2124.9694
 04  9  8 21 50 15.0030000  0  8G 3G 8G13G10G23G27G19G28
   2144107.67448   1669311.95444  23718455.3824   23718455.2694
     -1698.9534
  -3674167.03449  -2855495.03447  22439146.8584   22439146.2494
       841.2814
   5320803.95549   4136775.18048  21311717.4604   21311714.9834
     -2582.1254
   -968065.58447   -750658.39243  24449136.9914   24449136.7374
       467.0784
  12169673.42547   9458411.40545  23786464.5694   23786461.7374
     -4505.0314
    232359.57149    180147.41047  21671859.1794   21671857.4564
      -436.1724
  -3047840.75648  -2367627.77545  23772487.6714   23772485.1594
       619.7974
   -590549.09947   -457032.27543  24871789.6944   24871789.5894
      2122.3444
 04  9  8 21 50 30.0030000  0  8G 3G 8G13G10G23G27G19G28
   2169657.63248   1689221.01544  23723317.8974   23723317.6754
     -1707.8914
  -3686768.23449  -2865314.14447  22436748.7104   22436747.6834
       838.6884
   5359589.31149   4166997.53148  21319097.8664   21319095.7724
     -2589.3754
   -975013.83247   -756072.61642  24447815.1404   24447814.5224
       459.1094
  12237272.78247   9511086.18944  23799328.7654   23799326.2264
     -4508.3914
    238919.34249    185258.93148  21673107.6404   21673106.3744
      -438.5944
  -3057093.36748  -2374837.57445  23770726.9834   23770724.6474
       613.6254
   -622372.64547   -481829.81342  24865733.1244   24865733.4994
      2120.4064
 04  9  8 21 50 45.0030000  0  8G 3G 8G13G10G23G27G19G28
   2195351.65948   1709242.34444  23728206.5074   23728206.6714
     -1717.6874
  -3699320.39649  -2875095.04447  22434360.7184   22434359.6904
       835.1724
   5398492.52949   4197311.71348  21326500.9524   21326498.9954
     -2597.4374
   -981832.77647   -761386.03842  24446517.6874   24446517.0154
       450.3284
  12304931.44248   9563807.17944  23812203.2104   23812200.9724
     -4512.5474
    245525.89349    190406.89148  21674364.4294   21674363.2264
      -442.0314
  -3066243.69848  -2381967.68945  23768985.6164   23768983.2024
       606.5474
   -654158.26647   -506597.77942  24859684.2264   24859685.1014
      2117.7974
 04  9  8 21 51  0.0030000  0  8G 3G 8G13G10G23G27G19G28
   2221191.04448   1729376.92144  23733123.9914   23733123.6244
     -1727.2504
  -3711822.08849  -2884836.61547  22431981.7414   22431980.6754
       832.0634
   5437515.09049   4227718.88548  21333926.6714   21333924.8474
     -2605.2194
   -988520.65247   -766597.37442  24445245.0544   24445244.3394
       441.7974
  12372650.70847   9616575.39344  23825090.5464   23825087.4254
     -4516.3594
    252180.56549    195592.34747  21675631.0934   21675629.7534
      -444.9844
  -3075289.99348  -2389016.72145  23767264.5694   23767261.5854
       599.8754
   -685904.25547   -531334.84843  24853644.1084   24853643.8474
      2115.2974
 04  9  8 21 51 15.0030000  0  8G 3G 8G13G10G23G27G19G28
   2247173.16448   1749622.75644  23738068.0854   23738067.7104
     -1736.9064
  -3724275.80849  -2894540.79447  22429611.4914   22429609.9404
       828.6884
   5476654.25749   4258216.93148  21341374.4684   21341372.3084
     -2613.1414
   -995079.96747   -771708.51843  24443996.3354   24443995.6284
       433.1414
  12440427.60348   9669388.51845  23837987.9764   23837985.1944
     -4520.3284
    258880.85349    200813.35947  21676905.8904   21676904.5504
      -448.1564
  -3084234.76847  -2395986.64145  23765562.0774   23765559.9374
       593.0314
   -717613.24247   -556043.09242  24847609.1714   24847610.0854
      2112.6094
 04  9  8 21 51 30.0030000  0  8G 3G 8G13G10G23G27G19G28
   2273303.50148   1769984.05444  23743041.0774   23743040.3084
     -1746.8444
  -3736675.94749  -2904203.23747  22427251.8044   22427250.6794
       825.0944
   5515915.60649   4288810.18148  21348845.8044   21348844.1834
     -2621.3754
  -1001504.96647   -776715.02543  24442773.8974   24442772.5074
       423.9694
  12508267.49748   9722250.73245  23850897.2574   23850895.0654
     -4524.6094
    265632.26049    206074.19747  21678190.6874   21678189.1754
      -451.6414
  -3093072.10648  -2402872.86745  23763880.5544   23763877.3314
       585.7194
   -749279.58146   -580718.07742  24841583.6474   24841583.0504
      2109.7034
 04  9  8 21 51 45.0030000  0  8G 3G 8G13G10G23G27G19G28
   2299577.34448   1790457.17444  23748039.9604   23748040.2374
     -1756.2194
  -3749027.29049  -2913827.65747  22424901.4374   22424900.1794
       821.9384
   5555294.49049   4319495.00748  21356339.5074   21356337.5974
     -2629.0474
  -1007800.11547   -781620.30543  24441576.3354   24441575.0464
       415.5474
  12576165.59648   9775158.28745  23863818.0934   23863815.5584
     -4528.3444
    272430.21849    211371.30548  21679484.2654   21679482.6904
      -454.5624
  -3101806.25547  -2409678.66845  23762218.6404   23762215.8124
       578.9844
   -780907.53047   -605363.19342  24835564.8584   24835565.2024
      2107.3444
 04  9  8 21 52  0.0030000  0  8G 3G 8G13G10G23G27G19G28
   2325993.90348   1811041.50644  23753067.0154   23753066.8904
     -1765.9224
  -3761330.45449  -2923414.53247  22422560.3044   22422558.9764
       818.4694
   5594789.92049   4350270.65748  21363855.1634   21363852.7844
     -2637.0004
  -1013966.00247   -786424.86142  24440402.8904   24440401.9604
       406.6414
  12644120.87548   9828110.40145  23876749.9684   23876747.4374
     -4532.4224
    279273.89649    216704.03747  21680786.5854   21680785.0264
      -457.9224
  -3110437.68848  -2416404.45345  23760575.9294   23760573.4404
       571.8284
   -812497.76347   -629978.88443  24829553.4374   24829553.7294
      2104.5784
 04  9  8 21 52 15.0030000  0  8G 3G 8G13G10G23G27G19G28
   2352559.03448   1831741.62244  23758122.1474   23758122.2454
     -1775.9374
  -3773579.71349  -2932959.39747  22420229.1714   22420228.2144
       814.8594
   5634407.64049   4381141.59248  21371394.1944   21371392.3744
     -2645.2194
  -1019996.62947   -791124.05143  24439255.1794   24439253.4014
       397.5474
  12712138.77348   9881111.33744  23889692.8044   23889689.9994
     -4536.5314
    286169.10349    222076.92748  21682098.4834   21682097.0424
      -461.3444
  -3118960.35548  -2423045.45545  23758954.5074   23758952.1594
       564.5634
   -844044.30047   -654560.52743  24823549.3664   24823550.7064
      2101.7504
 04  9  8 21 52 30.0030000  0  8G 3G 8G13G10G23G27G19G28
   2379265.79848   1852552.09244  23763204.4444   23763204.0304
     -1785.2974
  -3785781.95349  -2942467.63047  22417907.0694   22417906.1874
       811.7504
   5674140.81949   4412102.50848  21378955.2574   21378952.9134
     -2652.9224
  -1025898.74947   -795723.10142  24438132.5304   24438130.6554
       389.0474
  12780212.38548   9934155.65844  23902646.5694   23902644.4014
     -4540.3124
    293108.99449    227484.63848  21683419.1474   21683417.8084
      -464.2974
  -3127380.70948  -2429606.75945  23757352.3824   23757349.4294
       557.7814
   -875553.73947   -679113.28343  24817554.1714   24817554.7414
      2099.2664
 04  9  8 21 52 45.0030000  0  8G 3G 8G13G10G23G27G19G28
   2406116.54048   1873474.75044  23768313.9214   23768313.4724
     -1794.7344
  -3797934.59949  -2951937.20947  22415594.7264   22415593.9014
       808.6724
   5713991.77049   4443155.17548  21386538.5934   21386536.3234
     -2660.5004
  -1031669.78347   -800219.98843  24437033.7024   24437032.7184
       380.5004
  12848343.91048   9987245.12345  23915612.1324   23915609.1554
     -4543.8444
    300095.99749    232929.05247  21684748.7264   21684747.3044
      -467.2664
  -3135696.06347  -2436086.23445  23755769.4054   23755767.1904
       551.0004
   -907023.50248   -703635.09843  24811566.2264   24811565.6444
      2096.8284
 04  9  8 21 53  0.0030000  0  8G 3G 8G13G10G23G27G19G28
   2433114.31548   1894511.97944  23773451.5694   23773451.0624
     -1804.5784
  -3810034.46849  -2961365.67547  22413292.1324   22413291.1944
       805.0944
   5753963.46749   4474301.94548  21394145.0624   21394142.7024
     -2668.6094
  -1037306.45847   -804612.18443  24435961.6944   24435960.5304
       371.3914
  12916535.99148  10040381.75344  23928588.6244   23928586.0584
     -4547.9374
    307133.11649    238412.52147  21686088.1324   21686086.4644
      -470.6094
  -3143903.25548  -2442481.42645  23754208.0694   23754205.3084
       543.7814
   -938450.41448   -728123.56743  24805585.3044   24805585.8394
      2093.9384
 04  9  8 21 53 15.0030000  0  8G 3G 8G13G10G23G27G19G28
   2460255.24348   1915660.77744  23778615.9444   23778616.0774
     -1814.2034
  -3822085.38849  -2970755.99247  22410998.8584   22410998.1674
       801.7344
   5794052.24949   4505539.93948  21401773.7104   21401771.8274
     -2676.5474
  -1042812.36447   -808902.50843  24434913.6404   24434912.6834
       362.6094
  12984784.83148  10093562.62244  23941576.0224   23941573.5074
     -4551.8914
    314216.56649    243932.09148  21687435.9834   21687434.5654
      -473.7974
  -3152005.72948  -2448795.02645  23752665.9294   23752663.3744
       536.5944
   -969838.00548   -752581.37143  24799613.1554   24799612.9404
      2091.0164
 04  9  8 21 53 30.0030000  0  8G 3G 8G13G10G23G27G19G28
   2487539.44748   1936921.19044  23783808.3514   23783808.5894
     -1823.4694
  -3834087.01549  -2980107.90047  22408715.1404   22408713.8704
       798.7504
   5834258.24549   4536869.27948  21409424.3044   21409422.7804
     -2684.0624
  -1048187.02446   -813090.54243  24433891.2184   24433890.6014
       354.1724
  13053090.45548  10146787.75444  23954573.7264   23954571.3084
     -4555.2664
    321346.86249    249488.17248  21688792.7804   21688791.3004
      -476.6564
  -3160002.89648  -2455026.54945  23751143.5854   23751142.0654
       529.9064
  -1001185.91248   -777008.24643  24793648.0224   24793647.2534
      2088.8444
 04  9  8 21 53 45.0030000  0  8G 3G 8G13G10G23G27G19G28
   2514964.25648   1958291.15144  23789026.6634   23789026.6714
     -1833.0314
  -3846041.91949  -2989423.40347  22406440.2104   22406439.0694
       795.4534
   5874578.48949   4568287.63248  21417097.1474   21417095.0304
     -2691.8284
  -1053433.04547   -817178.30943  24432892.2574   24432892.2064
       345.5634
  13121449.95748  10200054.84144  23967582.4294   23967579.9724
     -4559.0474
    328521.08149    255078.46448  21690158.1014   21690156.1984
      -479.8444
  -3167897.26348  -2461177.99045  23749641.2884   23749639.5264
       522.8754
  -1032496.60548   -801406.14243  24787689.1244   24787688.5344
      2086.1254
 04  9  8 21 54  0.0030000  0  8G 3G 8G13G10G23G27G19G28
   2542533.80948   1979773.93044  23794273.1634   23794273.3944
     -1842.8914
  -3857946.01849  -2998699.32247  22404174.7884   22404173.5654
       791.8754
   5915017.33449   4599798.40648  21424792.7024   21424790.2614
     -2699.8914
  -1058545.93746   -821162.39043  24431919.3974   24431918.7804
       336.3754
  13189867.38848  10253367.08444  23980601.8044   23980599.5734
     -4563.1564
    335743.56049    260706.36747  21691532.7184   21691530.5584
      -483.1724
  -3175684.28348  -2467245.77345  23748160.0624   23748157.7724
       515.5164
  -1063765.74248   -825771.64643  24781738.3274   24781738.1204
      2083.0944
 04  9  8 21 54 15.0030000  0  8G 3G 8G13G10G23G27G19G28
   2570248.53848   2001369.80844  23799547.3664   23799547.5504
     -1852.3754
  -3869798.79749  -3007935.24647  22401919.3664   22401918.1244
       788.5784
   5955575.08149   4631401.83048  21432510.2724   21432508.0584
     -2707.6414
  -1063525.04246   -825042.18043  24430971.7334   24430971.0584
       327.5944
  13258342.89848  10306724.58744  23993632.0934   23993629.6084
     -4566.8914
    343014.75049    266372.22848  21692916.2414   21692914.5074
      -486.2974
  -3183363.09448  -2473229.21345  23746698.5074   23746696.9724
       508.4224
  -1094992.67148   -850104.27743  24775796.7184   24775795.2574
      2080.5314
 04  9  8 21 54 30.0030000  0  8G 3G 8G13G10G23G27G19G28
   2598104.78248   2023075.96344  23804847.7654   23804847.9684
     -1862.0314
  -3881603.57549  -3017133.77447  22399673.1794   22399671.9794
       785.1254
   5996248.14449   4663095.10548  21440250.2804   21440247.9014
     -2715.6874
  -1068373.76546   -828820.42043  24430048.6794   24430048.6834
       318.5634
  13326872.79348  10360124.46344  24006673.3274   24006670.7024
     -4570.7814
    350331.14049    272073.31448  21694308.4054   21694306.8234
      -489.5624
  -3190937.01048  -2479130.96545  23745257.0774   23745254.8704
       501.1564
  -1126180.63948   -874406.53643  24769861.4684   24769860.4764
      2077.6094
 04  9  8 21 54 45.0030000  0  8G 3G 8G13G10G23G27G19G28
   2626109.47048   2044897.81744  23810177.1324   23810177.7414
     -1872.1094
  -3893353.66849  -3026289.67747  22397437.1164   22397435.9214
       781.3284
   6037043.36249   4694883.58348  21448013.3514   21448011.2574
     -2723.9374
  -1073085.05846   -832491.52943  24429152.1084   24429152.2264
       309.3444
  13395463.75448  10413571.92744  24019725.3514   24019723.4294
     -4574.9694
    357699.47649    277814.87947  21695710.6634   21695709.2844
      -493.1564
  -3198398.96348  -2484945.45245  23743837.7494   23743834.9334
       493.5634
  -1157322.66947   -898672.99543  24763935.1244   24763934.6044
      2074.4224
 04  9  8 21 55  0.0030000  0  8G 3G 8G13G10G23G27G19G28
   2654258.55948   2066832.16444  23815533.8354   23815534.2224
     -1881.4374
  -3905052.95749  -3035405.99547  22395210.6404   22395209.3434
       778.2034
   6077956.78349   4726764.15348  21455798.6634   21455796.6714
     -2731.5164
  -1077662.72646   -836058.55343  24428280.8664   24428281.2964
       300.8754
  13464111.63248  10467063.71144  24032788.2804   24032786.1244
     -4578.5004
    365116.04849    283594.03248  21697121.5934   21697120.4794
      -496.0474
  -3205752.53948  -2490675.48445  23742438.2104   23742435.2844
       486.6254
  -1188422.41647   -922906.53843  24758016.8124   24758015.7804
      2071.9064
 04  9  8 21 55 15.0030000  0  8G 3G 8G13G10G23G27G19G28
   2682551.21648   2088878.37144  23820917.8744   23820918.0974
     -1891.3124
  -3916701.93749  -3044483.12347  22392994.0384   22392992.4524
       774.6094
   6118987.48749   4758736.10348  21463606.6324   21463604.3354
     -2739.6414
  -1082107.42045   -839521.94643  24427435.4524   24427436.0074
       291.5474
  13532815.36748  10520599.02544  24045862.7884   24045861.2374
     -4582.3444
    372580.03749    289410.11948  21698542.1874   21698540.6944
      -499.5164
  -3212998.25248  -2496321.48545  23741059.2414   23741056.6324
       479.1094
  -1219480.54947   -947107.63743  24752106.2494   24752105.6364
      2068.8134
 04  9  8 21 55 30.0030000  0  8G 3G 8G13G10G23G27G19G28
   2710990.26548   2111038.68244  23826329.4604   23826329.9294
     -1900.8754
  -3928297.80449  -3053518.85247  22390787.2024   22390785.9564
       771.2504
   6160138.30049   4790801.65847  21471437.4764   21471435.1084
     -2747.4064
  -1086416.12146   -842879.35743  24426614.6874   24426615.3044
       282.7194
  13601577.56548  10574179.90344  24058947.8514   24058945.5224
     -4586.1564
    380094.30149    295265.39248  21699972.0854   21699970.4874
      -502.6094
  -3220133.03248  -2501881.02345  23739701.3354   23739699.1904
       471.9064
  -1250493.99647   -971273.90643  24746205.2414   24746204.0504
      2066.0474
 04  9  8 21 55 45.0030000  0  8G 3G 8G13G10G23G27G19G28
   2739576.10048   2133313.35444  23831768.9764   23831769.8194
     -1910.7974
  -3939840.11049  -3062512.84347  22388591.0304   22388589.5624
       767.5474
   6201409.50849   4822961.02348  21479291.2574   21479289.2294
     -2755.5784
  -1090588.17545   -846130.27543  24425821.5074   24425821.6474
       273.5004
  13670398.51748  10627806.58444  24072044.0694   24072041.2494
     -4590.1094
    387659.25249    301160.17048  21701411.7964   21701409.8354
      -506.1724
  -3227156.02247  -2507353.46045  23738365.1554   23738363.4054
       464.2974
  -1281462.20847   -995404.93542  24740311.1944   24740311.3584
      2062.8594
 04  9  8 21 56  0.0030000  0  8G 3G 8G13G10G23G27G19G28
   2768309.86248   2155703.30744  23837236.9914   23837237.6674
     -1920.4844
  -3951327.65149  -3071464.16747  22386405.0384   22386403.3704
       764.0314
   6242802.36849   4855215.19048  21487168.0074   21487165.8124
     -2763.5624
  -1094622.12945   -849273.61943  24425053.0464   24425053.7844
       264.3754
  13739279.29248  10681479.87144  24085152.2334   24085149.5074
     -4594.0004
    395276.18549    307095.45047  21702861.3434   21702859.7924
      -509.5314
  -3234065.75248  -2512737.64045  23737049.8274   23737047.4954
       456.9384
  -1312383.74747  -1019499.57842  24734426.6404   24734426.8944
      2059.8754
 04  9  8 21 56 15.0030000  0  8G 3G 8G13G10G23G27G19G28
   2797188.11548   2178205.83544  23842732.5854   23842732.4254
     -1930.3124
  -3962763.83349  -3080375.46347  22384228.6554   22384227.5424
       760.4534
   6284313.41149   4887561.44548  21495067.4684   21495065.1284
     -2771.6724
  -1098521.23846   -852311.88043  24424311.5224   24424311.9684
       255.1884
  13808216.17648  10735196.87544  24098270.1404   24098267.6904
     -4598.0004
    402941.69549    313068.56648  21704319.7104   21704318.2454
      -512.9064
  -3240865.32047  -2518035.98745  23735756.2804   23735753.4834
       449.3444
  -1343261.77447  -1043560.32842  24728551.4134   24728551.3664
      2056.6414
 04  9  8 21 56 30.0030000  0  8G 3G 8G13G10G23G27G19G28
   2826210.49948   2200820.67344  23848255.2724   23848255.4374
     -1939.2974
  -3974148.66649  -3089246.74047  22382061.9444   22382061.1284
       757.5944
   6325942.24949   4919999.49248  21502989.0694   21502987.1084
     -2778.8594
  -1102285.71446   -855245.23543  24423595.7804   24423595.4834
       246.9064
  13877208.73548  10788957.28244  24111399.1084   24111396.9134
     -4601.0474
    410655.56149    319079.37647  21705787.7804   21705786.2294
      -515.5314
  -3247554.75348  -2523248.49445  23734482.8584   23734480.5624
       442.5474
  -1374096.58447  -1067587.39343  24722683.2804   24722684.2764
      2054.5784
 04  9  8 21 56 45.0030000  0  8G 3G 8G13G10G23G27G19G28
   2855381.50548   2223551.31744  23853806.2024   23853806.8234
     -1949.3444
  -3985477.60649  -3098074.48947  22379906.2104   22379905.0694
       753.8134
   6367693.36349   4952532.81147  21510933.9214   21510931.6634
     -2787.1094
  -1105910.72346   -858069.93343  24422906.1794   24422906.0504
       237.3284
  13946261.36548  10842764.47444  24124539.4994   24124537.0504
     -4605.0474
    418422.37249    325131.43947  21707265.5774   21707264.0344
      -519.1724
  -3254129.29248  -2528371.49345  23733232.3434   23733229.7804
       434.8754
  -1404883.16147  -1091576.88643  24716825.1084   24716825.8784
      2051.2974
 04  9  8 21 57  0.0030000  0  8G 3G 8G13G10G23G27G19G28
   2884694.44848   2246392.58144  23859383.8974   23859384.5344
     -1959.1414
  -3996757.30049  -3106863.83647  22377759.8434   22377758.2844
       750.1724
   6409560.05949   4985156.19148  21518901.1404   21518898.7694
     -2795.1874
  -1109402.91146   -860791.09843  24422240.9214   24422241.4134
       228.2504
  14015367.14348  10896613.06844  24137689.7494   24137688.0424
     -4609.0164
    426235.47149    331219.56347  21708752.5624   21708750.7884
      -522.6254
  -3260595.26548  -2533409.89246  23732001.7804   23732000.0584
       427.2974
  -1435628.11947  -1115533.96543  24710974.9294   24710975.1014
      2048.0784
 04  9  8 21 57 15.0030000  0  8G 3G 8G13G10G23G27G19G28
   2914150.79848   2269345.57844  23864989.2574   23864989.7294
     -1968.5624
  -4007986.22249  -3115613.64747  22375622.9294   22375621.8314
       746.7814
   6451543.79849   5017870.77947  21526889.9524   21526887.9334
     -2802.9224
  -1112760.43147   -863407.35643  24421602.7494   24421602.7614
       219.1884
  14084527.39848  10950504.11944  24150850.5154   24150848.5504
     -4612.6254
    434096.35549    337344.93147  21710248.2184   21710246.7724
      -525.8284
  -3266950.71648  -2538362.17346  23730792.3744   23730790.1904
       419.9694
  -1466329.72347  -1139457.22742  24705131.8974   24705132.4094
      2045.2664
 04  9  8 21 57 30.0030000  0  8G 3G 8G13G10G23G27G19G28
   2943755.21948   2292413.94344  23870623.2104   23870623.6474
     -1978.0784
  -4019159.55649  -3124320.12847  22373496.8354   22373495.5854
       743.5634
   6493649.25149   5050680.19948  21534902.7724   21534900.3154
     -2810.5314
  -1115978.44647   -865914.88344  24420990.4444   24420990.2414
       210.3444
  14153746.61148  11004441.12444  24164022.1874   24164019.8544
     -4616.0624
    442009.90349    343511.32747  21711754.5074   21711752.3434
      -528.8284
  -3273190.72148  -2543224.50045  23729605.1014   23729602.2764
       412.6414
  -1496982.97747  -1163342.83643  24699299.5544   24699299.3234
      2042.3594
 04  9  8 21 57 45.0030000  0  8G 3G 8G13G10G23G27G19G28
   2973501.96748   2315593.21744  23876284.2654   23876283.8824
     -1987.7194
  -4030282.83449  -3132987.60147  22371380.3124   22371379.2724
       740.0784
   6535870.81849   5083580.10748  21542936.9604   21542935.1364
     -2818.4694
  -1119062.30346   -868317.89744  24420403.3124   24420403.2264
       201.2974
  14223019.00848  11058419.58444  24177204.6084   24177202.2654
     -4619.7664
    449970.46749    349714.37748  21713269.3744   21713267.4404
      -532.0944
  -3279320.65548  -2548001.05345  23728438.3584   23728435.8194
       405.1564
  -1527593.45247  -1187195.09643  24693473.6324   24693474.4334
      2039.5314
 04  9  8 21 58  0.0030000  0  8G 3G 8G13G10G23G27G19G28
   3003391.51148   2338883.77644  23881971.3044   23881971.4644
     -1997.4694
  -4041355.49249  -3141615.63047  22369272.9994   22369272.0194
       736.3444
   6578209.05549   5116570.92648  21550993.5624   21550991.7264
     -2826.5474
  -1122011.32447   -870615.82843  24419842.6014   24419841.9404
       191.9384
  14292344.92648  11112439.72744  24190396.9134   24190394.0304
     -4623.6724
    457978.65249    355954.50948  21714793.0224   21714791.1874
      -535.6094
  -3285339.60748  -2552691.12046  23727292.8744   23727290.5424
       397.4534
  -1558160.31047  -1211013.38343  24687657.1714   24687657.1944
      2036.1724
 04  9  8 21 58 15.0030000  0  8G 3G 8G13G10G23G27G19G28
   3033426.61148   2362287.75244  23887686.5774   23887687.2334
     -2007.2034
  -4052374.54649  -3150201.89447  22367176.0934   22367175.2104
       732.7194
   6620666.48949   5149654.63248  21559073.2574   21559070.9794
     -2834.5474
  -1124822.60047   -872806.42344  24419307.5464   24419306.7494
       182.7814
  14361727.03948  11166503.66744  24203599.8354   24203597.9994
     -4627.3914
    466037.25149    362233.94748  21716326.7024   21716324.9294
      -538.9534
  -3291244.46448  -2557292.27645  23726169.8044   23726167.1794
       389.7814
  -1588680.44547  -1234795.26843  24681849.7104   24681849.7964
      2033.0164
 04  9  8 21 58 30.0030000  0  8G 3G 8G13G10G23G27G19G28
   3063607.26348   2385805.13044  23893430.6324   23893430.6874
     -2016.4224
  -4063339.84749  -3158746.27547  22365089.6324   22365088.3194
       729.7814
   6663243.14849   5182831.23647  21567175.0934   21567173.0384
     -2841.8914
  -1127495.91747   -874889.52644  24418798.7804   24418797.4174
       174.1564
  14431165.11348  11220611.21244  24216813.9134   24216811.3084
     -4630.5164
    474146.28849    368552.67348  21717869.6794   21717868.0154
      -541.7504
  -3297035.11148  -2561804.45445  23725066.8044   23725064.4294
       382.7194
  -1619153.77147  -1258540.69043  24676050.2574   24676050.8664
      2030.5944
 04  9  8 21 58 45.0030000  0  8G 3G 8G13G10G23G27G19G28
   3093930.65548   2409433.74944  23899200.3904   23899200.3194
     -2026.3754
  -4074254.41949  -3167251.12047  22363012.9134   22363012.1284
       725.8594
   6705936.10249   5216098.45847  21575299.2654   21575297.5264
     -2850.1564
  -1130033.91947   -876867.19144  24418315.9524   24418314.7264
       164.6254
  14500656.24348  11274760.10244  24230037.3124   24230035.3544
     -4634.5624
    482303.24049    374908.74247  21719422.1164   21719420.2844
      -545.4534
  -3302713.87848  -2566229.44945  23723986.3824   23723983.9134
       374.7814
  -1649582.81547  -1282251.59243  24670260.0074   24670260.4644
      2027.0314
 04  9  8 21 59  0.0030000  0  8G 3G 8G13G10G23G27G19G28
   3124402.55748   2433178.09144  23904999.3824   23904999.1944
     -2036.0944
  -4085112.13449  -3175711.67147  22360946.3124   22360945.3514
       722.3444
   6748751.14849   5249460.82747  21583446.8824   21583444.9134
     -2858.0784
  -1132430.64147   -878734.75944  24417859.9524   24417859.1244
       155.3594
  14570205.87748  11328954.57344  24243272.4994   24243270.3944
     -4638.2974
    490513.70249    381306.51447  21720984.3194   21720982.8154
      -548.8444
  -3308274.62548  -2570562.46745  23722928.3514   23722926.5154
       367.0944
  -1679961.57347  -1305923.33643  24664479.5624   24664479.7884
      2023.7974
 04  9  8 21 59 15.0030000  0  8G 3G 8G13G10G23G27G19G28
   3155016.00248   2457032.72344  23910824.9444   23910824.1364
     -2045.7974
  -4095920.02349  -3184133.39647  22358889.6474   22358888.7694
       718.7034
   6791681.32149   5282912.89347  21591616.3044   21591614.0264
     -2866.0314
  -1134692.80348   -880497.46643  24417429.5694   24417428.9994
       146.1254
  14639806.95948  11383189.12444  24256516.5224   24256515.6904
     -4641.9374
    498770.96449    387740.74147  21722555.5694   21722553.7374
      -552.2814
  -3313724.02648  -2574808.73046  23721891.6404   23721889.2764
       359.3754
  -1710296.80948  -1329561.13743  24658706.9764   24658706.8904
      2020.7504
 04  9  8 21 59 30.0030000  0  8G 3G 8G13G10G23G27G19G28
   3185773.61348   2480999.66944  23916677.9134   23916677.2694
     -2055.4224
  -4106675.14549  -3192513.99347  22356843.2184   22356841.9524
       715.1564
   6834729.44849   5316456.87047  21599808.2414   21599806.0974
     -2873.8594
  -1136817.45547   -882153.03143  24417025.0544   24417024.0344
       137.0004
  14709462.05548  11437465.76744  24269771.6714   24269770.4914
     -4645.4844
    507077.65949    394213.48848  21724136.0774   21724134.5774
      -555.5164
  -3319059.16848  -2578965.96946  23720876.2494   23720873.4874
       351.7194
  -1740585.54848  -1353162.70543  24652943.0694   24652943.4444
      2017.6254
 04  9  8 21 59 45.0030000  0  8G 3G 8G13G10G23G27G19G28
   3216673.56548   2505077.55444  23922558.5304   23922557.7104
     -2065.0004
  -4117379.24749  -3200854.84047  22354806.2884   22354805.3394
       711.7504
   6877893.47449   5350091.16748  21608021.9134   21608019.9374
     -2881.6414
  -1138806.14147   -883702.66443  24416646.8124   24416646.2024
       127.9384
  14779169.23848  11491783.01844  24283035.8904   24283034.2694
     -4649.0474
    515432.22749    400723.54447  21725726.0774   21725724.4644
      -558.7814
  -3324281.45348  -2583035.26146  23719882.2884   23719880.5584
       344.1724
  -1770829.32648  -1376729.23343  24647187.7024   24647187.7024
      2014.6414
 04  9  8 22  0  0.0030000  0  8G 3G 8G13G10G23G27G19G28
   3247715.99948   2529266.45644  23928465.7884   23928465.1984
     -2073.7034
  -4128031.88649  -3209155.59547  22352778.7574   22352777.9914
       708.9534
   6921173.74149   5383816.02847  21616257.8974   21616256.0894
     -2888.6874
  -1140658.47947   -885146.02043  24416293.9914   24416293.2844
       119.4534
  14848928.56048  11546140.86143  24296311.2884   24296309.2964
     -4651.8124
    523834.94049    407271.11447  21727324.7804   21727323.1754
      -561.2344
  -3329390.32649  -2587016.19946  23718910.3044   23718908.3314
       337.3594
  -1801027.72248  -1400260.43743  24641441.4834   24641441.1164
      2012.2344
 04  9  8 22  0 15.0030000  0  8G 3G 8G13G10G23G27G19G28
   3278902.12948   2553567.33144  23934399.2964   23934399.6904
     -2084.1094
  -4138631.85249  -3217415.29047  22350761.9684   22350760.4444
       704.6724
   6964571.55049   5417632.49048  21624516.2654   21624514.4954
     -2897.2664
  -1142373.04947   -886482.06043  24415967.6244   24415966.7104
       109.5314
  14918741.05147  11600540.16843  24309596.2494   24309593.8394
     -4656.1564
    532286.98549    413857.12448  21728933.3664   21728931.4874
      -565.3124
  -3334384.24548  -2590907.52846  23717960.0854   23717957.8584
       328.8754
  -1831179.27248  -1423755.13743  24635703.3824   24635703.6984
      2008.3754
 04  9  8 22  0 30.0030000  0  8G 3G 8G13G10G23G27G19G28
   3310230.34148   2577978.92244  23940361.4054   23940361.7024
     -2093.0314
  -4149180.71149  -3225635.16447  22348754.4994   22348753.2024
       701.7344
   7008085.15549   5451539.18247  21632796.6244   21632794.6594
     -2904.5784
  -1143951.22947   -887711.79643  24415666.8744   24415666.6044
       100.9064
  14988604.91347  11654979.48044  24322891.1324   24322889.1874
     -4659.1564
    540786.91149    420480.44048  21730550.8904   21730549.4094
      -568.0314
  -3339264.45848  -2594710.26746  23717031.3904   23717028.7694
       321.7664
  -1861285.38948  -1447214.39143  24629974.5224   24629974.1984
      2005.7034
 04  9  8 22  0 45.0030000  0  8G 3G 8G13G10G23G27G19G28
   3341702.51248   2602502.70044  23946350.1634   23946350.5424
     -2102.6564
  -4159676.25849  -3233813.50947  22346757.3824   22346756.1444
       698.2034
   7051716.22549   5485537.40547  21641099.1634   21641097.1794
     -2912.3754
  -1145390.92347   -888833.63043  24415393.1404   24415392.2264
        91.6254
  15058521.92547  11709460.20743  24336195.7334   24336193.9834
     -4662.5624
    549336.77849    427142.68348  21732177.7884   21732176.1204
      -571.3594
  -3344028.71449  -2598422.66746  23716124.5854   23716122.4134
       314.0474
  -1891343.98148  -1470636.63843  24624255.0154   24624254.2414
      2002.5164
 04  9  8 22  1  0.0030000  0  8G 3G 8G13G10G23G27G19G28
   3373320.58348   2627140.16444  23952366.7574   23952366.9294
     -2112.9374
  -4170116.76149  -3241948.95247  22344770.4054   22344769.4014
       693.8914
   7095466.78449   5519628.73847  21649424.4444   21649422.8704
     -2920.9064
  -1146690.11847   -889845.96843  24415145.7884   24415145.0154
        81.7344
  15128493.77347  11763983.67944  24349510.8744   24349509.1444
     -4666.8594
    557938.46749    433845.29548  21733814.9374   21733813.0464
      -575.3914
  -3348674.89048  -2602043.03845  23715240.6164   23715237.5154
       305.6094
  -1921352.77248  -1494020.07943  24618543.8904   24618543.9404
      1998.6564
 04  9  8 22  1 15.0030000  0  8G 3G 8G13G10G23G27G19G28
   3405085.82048   2651892.28844  23958411.6324   23958411.3544
     -2122.4224
  -4180500.66749  -3250040.29747  22342794.2414   22342793.5194
       690.5164
   7139338.24549   5553814.28147  21657772.7654   21657771.2964
     -2928.6094
  -1147847.25247   -890747.61843  24414925.2414   24414924.7144
        72.5784
  15198521.72447  11818550.83844  24362836.8744   24362835.2654
     -4670.2814
    566593.41749    440589.41448  21735461.6944   21735460.6244
      -578.6564
  -3353201.32448  -2605570.12045  23714379.3904   23714376.2064
       297.8914
  -1951310.21548  -1517363.50843  24612843.1944   24612842.7224
      1995.6414
 04  9  8 22  1 30.0030000  0  8G 3G 8G13G10G23G27G19G28
   3436997.57448   2676758.57344  23964483.9524   23964484.3314
     -2132.4064
  -4190828.34749  -3258087.83147  22340829.0934   22340827.9994
       686.5474
   7183330.05849   5588093.59647  21666144.4914   21666142.8154
     -2936.8754
  -1148862.56047   -891538.75843  24414733.1164   24414732.1474
        62.8594
  15268605.04547  11873161.17744  24376173.2494   24376170.7064
     -4674.1564
    575301.21849    447374.71047  21737118.8194   21737117.0154
      -582.2974
  -3357608.12748  -2609003.98445  23713540.3514   23713538.0304
       289.6884
  -1981216.65948  -1540667.21143  24607152.2184   24607151.7454
      1991.9534
 04  9  8 22  1 45.0030000  0  8G 3G 8G13G10G23G27G19G28
   3469052.41148   2701736.35944  23970584.0304   23970584.3004
     -2141.9844
  -4201103.08949  -3266094.11847  22338874.0074   22338872.5934
       683.0474
   7227438.71149   5622463.95747  21674538.1324   21674536.3394
     -2944.7034
  -1149739.28247   -892221.92343  24414565.1084   24414565.1474
        53.5474
  15338740.11748  11927811.83544  24389520.4834   24389517.8624
     -4677.6874
    584058.51649    454198.57848  21738785.0624   21738783.5114
      -585.7194
  -3361898.43148  -2612347.06145  23712723.8434   23712721.4334
       281.8914
  -2011075.30248  -1563933.63544  24601470.5854   24601470.1594
      1988.7814
 04  9  8 22  2  0.0030000  0  8G 3G 8G13G10G23G27G19G28
   3501252.48548   2726827.33444  23976711.6164   23976711.6834
     -2151.2034
  -4211322.68049  -3274057.41547  22336929.3434   22336927.8904
       679.7814
   7271666.29649   5656927.00248  21682954.3124   21682952.3904
     -2952.1724
  -1150475.15146   -892795.29843  24414426.0074   24414425.5424
        44.8134
  15408928.97748  11982504.41144  24402876.8124   24402874.1244
     -4680.7814
    592867.59249    461062.79948  21740461.6794   21740460.1634
      -588.6724
  -3366069.71648  -2615597.40045  23711930.0544   23711927.6714
       274.4384
  -2040883.69648  -1587160.91243  24595797.9294   24595797.1904
      1985.8284
 04  9  8 22  2 15.0030000  0  8G 3G 8G13G10G23G27G19G28
   3533596.30948   2752030.30744  23982866.2654   23982866.3584
     -2161.2504
  -4221488.37449  -3281978.73547  22334994.5074   22334993.7414
       675.7814
   7316011.28649   5691481.50747  21691392.7494   21691391.0774
     -2960.3754
  -1151071.48246   -893259.98343  24414311.9374   24414311.3904
        35.0314
  15479169.97248  12037237.59744  24416243.0694   24416240.2964
     -4684.5624
    601727.06549    467966.28048  21742147.5934   21742145.8004
      -592.4534
  -3370123.20248  -2618755.94745  23711158.7184   23711156.2884
       266.1414
  -2070643.05347  -1610349.99043  24590135.1944   24590134.9444
      1982.1254
 04  9  8 22  2 30.0030000  0  8G 3G 8G13G10G23G27G19G28
   3566086.61648   2777347.42044  23989048.3434   23989048.2844
     -2170.8284
  -4231597.46549  -3289855.93047  22333070.9684   22333070.2574
       672.0784
   7360476.44249   5726129.66647  21699854.5694   21699852.8394
     -2968.2974
  -1151525.21446   -893613.51043  24414225.4914   24414225.3274
        25.6094
  15549465.84048  12092013.54944  24429619.5384   24429617.3624
     -4688.1564
    610639.66049    474911.16548  21743843.3434   21743842.1124
      -595.8594
  -3374055.86348  -2621820.34645  23710410.3904   23710407.5074
       258.1094
  -2100350.44648  -1633498.56143  24584482.4524   24584481.2574
      1978.8134
 04  9  8 22  2 45.0030000  0  8G 3G 8G13G10G23G27G19G28
   3598721.62348   2802777.30344  23995258.9524   23995258.6244
     -2180.0164
  -4241651.41449  -3297690.16547  22331157.4684   22331156.9684
       668.9534
   7405060.04349   5760870.11648  21708338.3274   21708336.7374
     -2975.6414
  -1151837.84046   -893857.10643  24414166.4914   24414165.7184
        16.6094
  15619814.59048  12146830.69044  24443006.9374   24443004.3314
     -4691.1724
    619603.83249    481896.23247  21745549.1244   21745547.7924
      -598.7814
  -3377869.03848  -2624791.63845  23709685.1244   23709682.5584
       250.7034
  -2130007.30447  -1656607.76543  24578837.7494   24578837.7534
      1976.0004
 04  9  8 22  3  0.0030000  0  8G 3G 8G13G10G23G27G19G28
   3631501.87648   2828320.35544  24001496.7654   24001496.6124
     -2189.7344
  -4251649.37749  -3305480.78647  22329255.5304   22329253.7964
       665.0474
   7449762.64349   5795703.28847  21716845.2574   21716843.4254
     -2983.7034
  -1152008.67046   -893990.20843  24414133.6944   24414133.4294
         7.1414
  15690216.67448  12201689.42344  24456404.3744   24456401.8584
     -4694.8124
    628620.39849    488922.12247  21747265.1874   21747263.2574
      -602.4224
  -3381561.71448  -2627669.04645  23708982.1324   23708979.6324
       242.6724
  -2159612.79147  -1679676.92943  24573204.0384   24573203.9054
      1972.4064
 04  9  8 22  3 15.0030000  0  8G 3G 8G13G10G23G27G19G28
   3664420.81448   2853971.47944  24007761.2104   24007760.7454
     -2199.1874
  -4261598.18649  -3313233.09147  22327362.2884   22327361.3044
       661.5944
   7494577.62549   5830624.04448  21725373.1324   21725370.9214
     -2991.3914
  -1152043.98447   -894017.69843  24414127.2024   24414126.9444
        -2.1564
  15760665.32448  12256584.42944  24469810.1164   24469807.2924
     -4698.0944
    637682.70049    495983.66247  21748989.7884   21748987.8824
      -605.6564
  -3385140.28248  -2630457.52945  23708301.1084   23708298.5934
       234.7664
  -2189173.17146  -1702710.94143  24567579.1794   24567578.8514
      1969.2034
 04  9  8 22  3 30.0030000  0  8G 3G 8G13G10G23G27G19G28
   3697486.02248   2879736.56444  24014053.7264   24014052.8664
     -2209.7344
  -4271489.85649  -3320940.88047  22325479.6474   22325478.4094
       657.0164
   7539512.69449   5865638.36747  21733924.0304   21733921.9254
     -3000.1874
  -1151935.93046   -893933.51143  24414147.2264   24414146.7414
       -12.5314
  15831168.09948  12311521.60544  24483226.1244   24483223.5264
     -4702.5004
    646798.63149    503086.98247  21750724.5384   21750722.8584
      -610.0944
  -3388596.74348  -2633150.86245  23707643.6874   23707641.0774
       225.8444
  -2218680.63847  -1725703.72543  24561963.4444   24561963.7454
      1964.8594
 04  9  8 22  3 45.0030000  0  8G 3G 8G13G10G23G27G19G28
   3730698.99948   2905616.81444  24020373.6794   24020373.5264
     -2219.3594
  -4281322.55149  -3328602.70947  22323608.6014   22323607.3514
       653.2814
   7584569.29749   5900747.40047  21742497.8124   21742496.3434
     -3008.0784
  -1151682.85746   -893736.30744  24414195.4834   24414194.8824
       -22.0624
  15901726.38148  12366502.05344  24496653.5544   24496650.7494
     -4705.9844
    655969.70549    510233.27248  21752469.2724   21752467.6674
      -613.5164
  -3391929.24748  -2635747.59345  23707009.2024   23707006.6364
       217.7664
  -2248133.32346  -1748653.87043  24556359.3194   24556359.1084
      1961.3914
 04  9  8 22  4  0.0030000  0  8G 3G 8G13G10G23G27G19G28
   3764061.06148   2931613.21744  24026722.2964   24026721.3124
     -2228.7814
  -4291094.93749  -3336217.54347  22321748.8974   22321747.6674
       649.6884
   7629748.74549   5935952.15448  21751095.1324   21751093.1594
     -3015.8444
  -1151283.15347   -893424.83144  24414272.0384   24414271.5224
       -31.2814
  15972341.34248  12421526.63844  24510090.5154   24510088.3624
     -4709.3124
    665197.46449    517423.73647  21754225.5384   21754223.8974
      -616.7814
  -3395136.15348  -2638246.47145  23706398.8664   23706395.9644
       209.8914
  -2277529.73346  -1771560.07643  24550764.7964   24550764.9524
      1958.1724
 04  9  8 22  4 15.0030000  0  8G 3G 8G13G10G23G27G19G28
   3797562.66948   2957718.37544  24033097.6324   24033096.2884
     -2238.1874
  -4300816.47849  -3343792.77047  22319899.4444   22319898.2334
       646.3444
   7675041.55349   5971245.23748  21759714.2884   21759712.5464
     -3023.3754
  -1150746.17247   -893006.40644  24414373.7574   24414373.4874
       -40.4374
  16043003.38148  12476587.91344  24523537.0304   24523535.1044
     -4712.5164
    674472.46349    524651.00647  21755990.4294   21755988.8974
      -619.9374
  -3398226.43648  -2640654.47845  23705810.9914   23705807.9764
       202.0474
  -2306879.04246  -1794429.62443  24545179.9374   24545179.7264
      1954.9384
 04  9  8 22  4 30.0030000  0  8G 3G 8G13G10G23G27G19G28
   3831211.94148   2983938.59044  24039500.6634   24039499.3974
     -2248.4844
  -4310478.87649  -3351321.90147  22318060.4134   22318059.0074
       641.8444
   7720455.82149   6006632.96647  21768356.4134   21768354.5934
     -3031.9374
  -1150063.53747   -892474.48444  24414503.5854   24414503.6474
       -50.7034
  16113720.57848  12531692.16744  24536994.4444   24536992.1754
     -4716.5784
    683802.98749    531921.54548  21757765.7724   21757764.4294
      -624.2034
  -3401191.71748  -2642965.07445  23705246.6714   23705243.5624
       193.2034
  -2336172.88646  -1817255.94143  24539605.6014   24539605.1044
      1950.6724
 04  9  8 22  4 45.0030000  0  8G 3G 8G13G10G23G27G19G28
   3865007.15348   3010272.51344  24045931.3194   24045930.8664
     -2257.8754
  -4320083.62949  -3358806.11247  22316232.7024   22316231.3584
       638.4844
   7765989.91649   6042114.06547  21777021.0624   21777019.5934
     -3039.6094
  -1149236.83147   -891830.29044  24414661.9764   24414660.9444
       -59.8124
  16184490.95848  12586837.86144  24550461.4374   24550459.9794
     -4719.7194
    693187.47649    539234.13447  21759551.8124   21759550.0624
      -627.3754
  -3404033.45448  -2645179.39745  23704705.6474   23704703.1474
       185.4064
  -2365412.77846  -1840040.22743  24534041.4054   24534041.1164
      1947.5164
 04  9  8 22  5  0.0030000  0  8G 3G 8G13G10G23G27G19G28
   3898942.76048   3036715.85644  24052389.7334   24052389.0344
     -2267.5624
  -4329636.24249  -3366249.70047  22314414.8044   22314413.7694
       634.6564
   7811638.41449   6077684.31747  21785707.8514   21785706.1984
     -3047.4844
  -1148271.24347   -891077.89644  24414845.3124   24414845.0504
       -69.4534
  16255308.85048  12642020.56644  24563937.3514   24563935.9214
     -4723.2664
    702620.42749    546584.49047  21761346.6714   21761345.3514
      -630.8914
  -3406756.78248  -2647301.45845  23704187.7104   23704183.8354
       177.1564
  -2394603.95446  -1862786.53743  24528485.9684   24528485.9254
      1944.0634
 04  9  8 22  5 15.0030000  0  8G 3G 8G13G10G23G27G19G28
   3933026.27048   3063274.43044  24058875.6014   24058874.6244
     -2276.8754
  -4339128.98449  -3373646.62547  22312608.4054   22312607.3124
       631.0944
   7857408.43749   6113349.25848  21794417.7024   21794415.7694
     -3055.1254
  -1147159.16047   -890211.32044  24415056.8194   24415056.2724
       -78.7664
  16326181.67448  12697246.10744  24577424.6554   24577422.8314
     -4726.4224
    712109.52949    553978.58947  21763152.7574   21763150.9094
      -634.1724
  -3409353.82249  -2649325.12045  23703693.6714   23703690.0424
       169.2034
  -2423738.47347  -1885488.71743  24522942.4214   24522942.1984
      1940.6724
 04  9  8 22  5 30.0030000  0  8G 3G 8G13G10G23G27G19G28
   3967247.93848   3089940.66644  24065386.8664   24065387.0584
     -2286.1094
  -4348571.38949  -3381004.33547  22310811.6164   22310810.2614
       627.8284
   7903290.42049   6149101.43547  21803148.5694   21803146.7654
     -3062.6094
  -1145910.10447   -889238.02444  24415294.7024   24415294.4094
       -87.8284
  16397099.49148  12752506.67543  24590919.2334   24590917.7374
     -4729.4844
    721645.07949    561408.89548  21764967.1244   21764965.9524
      -637.3124
  -3411834.07249  -2651257.76745  23703221.2494   23703218.2144
       161.4064
  -2452825.99247  -1908154.27443  24517407.4374   24517407.4564
      1937.6094
 04  9  8 22  5 45.0030000  0  8G 3G 8G13G10G23G27G19G28
   4001610.26548   3116716.49244  24071926.3664   24071926.3704
     -2295.3594
  -4357960.87449  -3388320.81347  22309024.8044   22309023.1404
       624.2814
   7949286.88149   6184942.81448  21811901.5224   21811899.7844
     -3070.1414
  -1144521.19747   -888155.75544  24415558.8044   24415558.5344
       -97.1414
  16468064.76748  12807804.26143  24604423.2884   24604421.0584
     -4732.4534
    731229.87349    568877.55647  21766790.9134   21766789.4444
      -640.5004
  -3414194.48748  -2653097.03945  23702771.9914   23702768.9954
       153.5004
  -2481863.63447  -1930780.97744  24511881.6164   24511880.4914
      1934.4064
 04  9  8 22  6  0.0030000  0  8G 3G 8G13G10G23G27G19G28
   4036119.29848   3143606.65344  24078492.9764   24078492.8544
     -2305.4534
  -4367291.17149  -3395591.16147  22307249.2414   22307248.1514
       620.1094
   7995403.80449   6220878.07648  21820677.2104   21820675.9214
     -3078.4064
  -1142986.28347   -886959.71944  24415851.0624   24415851.0194
      -107.1254
  16539083.40848  12863143.41243  24617938.4374   24617936.6284
     -4736.3284
    740870.06649    576389.39648  21768625.3194   21768623.9374
      -644.4694
  -3416428.88548  -2654838.11745  23702347.4134   23702343.7454
       144.8284
  -2510844.98747  -1953363.80244  24506366.7724   24506366.3354
      1930.2814
 04  9  8 22  6 15.0030000  0  8G 3G 8G13G10G23G27G19G28
   4070771.24148   3170608.16544  24085087.6084   24085086.9094
     -2315.2814
  -4376565.80349  -3402818.13947  22305484.4764   22305483.3664
       616.1564
   8041637.66249   6256904.44248  21829475.3904   21829473.7764
     -3086.5314
  -1141308.69547   -885652.51144  24416170.0934   24416169.8864
      -116.9064
  16610151.72748  12918521.26743  24631462.6084   24631460.2104
     -4739.9224
    750562.18049    583941.69548  21770469.6944   21770468.4604
      -648.2034
  -3418540.51748  -2656483.53445  23701945.1634   23701942.5464
       136.2814
  -2539773.56747  -1975905.52144  24500862.0624   24500861.9014
      1926.4694
 04  9  8 22  6 30.0030000  0  8G 3G 8G13G10G23G27G19G28
   4105569.65148   3197723.78844  24091709.3664   24091709.1244
     -2324.3754
  -4385781.29549  -3409999.03847  22303730.6634   22303729.7024
       612.7664
   8087991.67949   6293024.43347  21838296.1714   21838294.5774
     -3093.7974
  -1139484.76547   -884231.26544  24416517.1474   24416517.0894
      -126.0944
  16681272.97747  12973940.35444  24644996.3974   24644994.3274
     -4742.7974
    760309.64549    591537.11648  21772324.4214   21772323.2724
      -651.2814
  -3420525.54748  -2658030.30045  23701567.4134   23701564.9684
       128.4844
  -2568645.63347  -1998403.20444  24495367.9834   24495367.5974
      1923.3134
 04  9  8 22  6 45.0030000  0  8G 3G 8G13G10G23G27G19G28
   4140507.53948   3224948.11844  24098357.1944   24098357.5114
     -2334.4694
  -4394944.21249  -3417138.96947  22301987.0304   22301985.9874
       608.5944
   8134459.03649   6329232.75347  21847138.8744   21847137.2764
     -3102.1094
  -1137521.33347   -882701.32544  24416891.0224   24416890.1904
      -136.0944
  16752440.03948  13029395.14744  24658539.1794   24658537.1244
     -4746.5164
    770105.65849    599170.36648  21774189.0624   21774187.3194
      -655.1724
  -3422390.65048  -2659483.61145  23701212.3904   23701209.4794
       119.7974
  -2597467.97247  -2020862.13144  24489883.1164   24489883.4914
      1919.3444
 04  9  8 22  7  0.0030000  0  8G 3G 8G13G10G23G27G19G28
   4175590.10248   3252285.17944  24105033.6874   24105033.5774
     -2343.7974
  -4404049.15249  -3424233.71547  22300254.6474   22300253.6364
       604.9534
   8181045.18349   6365533.63448  21856003.8354   21856001.8584
     -3109.8284
  -1135412.83747   -881058.33844  24417292.4134   24417291.2654
      -145.5624
  16823658.13847  13084889.71343  24672091.0074   24672089.4764
     -4749.7194
    779955.78049    606845.79047  21776063.3194   21776061.8044
      -658.6564
  -3424130.09148  -2660839.00345  23700881.7654   23700879.1204
       111.6724
  -2626234.90247  -2043277.86744  24484408.9054   24484408.6514
      1915.7664
 04  9  8 22  7 15.0030000  0  8G 3G 8G13G10G23G27G19G28
   4210818.76247   3279736.09044  24111737.3664   24111737.2614
     -2353.2664
  -4413094.55149  -3431282.06447  22298533.2414   22298532.2574
       601.2344
   8227751.39549   6401928.07348  21864891.9374   21864889.9374
     -3117.5784
  -1133157.67847   -879301.07544  24417720.8514   24417720.3124
      -155.0164
  16894928.61347  13140425.07943  24685653.4994   24685651.8624
     -4753.0004
    789861.50849    614564.54347  21777948.3194   21777946.5544
      -662.0784
  -3425742.12248  -2662095.11945  23700574.4374   23700571.8544
       103.3914
  -2654944.82348  -2065649.19644  24478945.6474   24478945.1084
      1912.3134
 04  9  8 22  7 30.0030000  0  8G 3G 8G13G10G23G27G19G28
   4246194.93847   3307301.92744  24118469.4524   24118469.5304
     -2363.1564
  -4422078.78149  -3438282.76647  22296823.4524   22296822.4174
       596.9844
   8274579.25649   6438417.30548  21873802.9914   21873800.7844
     -3125.8284
  -1130754.15447   -877428.18844  24418178.5624   24418178.0584
      -165.1254
  16966252.77047  13196002.29743  24699225.9604   24699224.4994
     -4756.6724
    799824.48149    622327.91247  21779844.0854   21779842.4054
      -666.0314
  -3427224.98048  -2663250.57445  23700292.6944   23700289.8354
        94.6094
  -2683595.81047  -2087974.61744  24473493.2414   24473492.9684
      1908.1884
 04  9  8 22  7 45.0030000  0  8G 3G 8G13G10G23G27G19G28
   4281714.36048   3334979.39044  24125228.5774   24125228.4294
     -2372.6254
  -4431006.20949  -3445239.19347  22295124.7964   22295123.6474
       593.2974
   8321524.19749   6474997.76448  21882736.1554   21882733.9524
     -3133.5164
  -1128206.46247   -875442.99344  24418663.4214   24418662.5344
      -174.6724
  17037626.02248  13251617.74743  24712808.0384   24712806.2144
     -4759.8124
    809840.34549    630132.46947  21781750.1324   21781748.1594
      -669.3754
  -3428582.74549  -2664308.55745  23700034.1474   23700031.0154
        86.3444
  -2712192.11547  -2110257.42144  24468051.5934   24468051.3004
      1904.6254
 04  9  8 22  8  0.0030000  0  8G 3G 8G13G10G23G27G19G28
   4317371.85048   3362764.44844  24132013.9294   24132013.7884
     -2382.5164
  -4439881.62249  -3452155.08847  22293436.0854   22293434.6834
       589.1884
   8368581.10549   6511665.47848  21891690.9214   21891689.2264
     -3141.5784
  -1125519.50747   -873349.24143  24419174.5934   24419174.0074
      -184.5164
  17109043.31848  13307267.53543  24726398.2724   24726396.5934
     -4763.4374
    819904.27449    637974.50348  21783665.2884   21783663.6284
      -673.2504
  -3429820.08049  -2665272.70145  23699798.7494   23699796.3704
        77.7034
  -2740738.46347  -2132501.28244  24462619.4764   24462618.9874
      1900.5944
 04  9  8 22  8 15.0030000  0  8G 3G 8G13G10G23G27G19G28
   4353174.18748   3390662.36244  24138826.7184   24138826.9094
     -2391.9064
  -4448698.09249  -3459025.06147  22291757.9604   22291756.5774
       585.6094
   8415756.96349   6548425.87147  21900668.0224   21900666.3084
     -3149.2344
  -1122686.17047   -871141.46143  24419713.8664   24419712.5734
      -194.0314
  17180511.24648  13362956.78143  24739998.8584   24739996.2724
     -4766.4694
    830023.26049    645859.41947  21785590.8824   21785589.2264
      -676.6564
  -3430929.74149  -2666137.35445  23699587.3664   23699584.9874
        69.4694
  -2769227.70547  -2154700.66444  24457197.8664   24457197.1044
      1897.1884
 04  9  8 22  8 30.0030000  0  8G 3G 8G13G10G23G27G19G28
   4389116.43948   3418669.32844  24145666.8584   24145666.1714
     -2400.7034
  -4457460.17249  -3465852.64447  22290090.6714   22290089.2694
       582.3914
   8463046.86349   6585275.13648  21909667.0224   21909665.2724
     -3156.4224
  -1119711.15547   -868823.26143  24420279.5854   24420279.7374
      -203.0784
  17252024.87948  13418681.64544  24753607.4994   24753604.9014
     -4769.0004
    840192.49249    653783.50747  21787526.0464   21787524.3314
      -679.5784
  -3431916.37749  -2666906.14345  23699399.6714   23699397.1014
        61.7194
  -2797664.44347  -2176859.11844  24451786.5934   24451786.3864
      1894.0634
 04  9  8 22  8 45.0030000  0  8G 3G 8G13G10G23G27G19G28
   4425201.68348   3446787.69044  24152533.6794   24152533.1204
     -2410.1874
  -4466164.75949  -3472635.42947  22288433.9374   22288433.0584
       578.7344
   8510453.92649   6622215.67447  21918688.1474   21918686.4484
     -3164.0624
  -1116591.29646   -866392.20543  24420873.0154   24420872.7414
      -212.4534
  17323587.11848  13474444.36544  24767225.1634   24767222.6834
     -4772.1564
    850415.22349    661749.26747  21789471.1404   21789469.6944
      -683.0164
  -3432776.58849  -2667576.42246  23699236.1404   23699233.3974
        53.3914
  -2826045.47547  -2198974.19143  24446385.7334   24446385.2884
      1890.4844
 04  9  8 22  9  0.0030000  0  8G 3G 8G13G10G23G27G19G28
   4461427.09748   3475015.26744  24159426.9054   24159425.8904
     -2419.7814
  -4474814.46949  -3479375.46647  22286788.4054   22286786.8824
       574.6884
   8557975.03649   6659245.08747  21927731.4764   21927729.2414
     -3171.9694
  -1113329.15547   -863850.26943  24421494.2964   24421493.5154
      -222.2664
  17395194.98248  13530242.66044  24780851.5694   24780848.8544
     -4775.4064
    860688.67849    669754.55547  21791426.1404   21791424.3194
      -686.6724
  -3433512.89249  -2668150.15546  23699096.1324   23699093.4334
        44.9064
  -2854373.35147  -2221047.84444  24440995.4994   24440994.4334
      1886.6564
 04  9  8 22  9 15.0030000  0  8G 3G 8G13G10G23G27G19G28
   4497796.86648   3503355.34444  24166347.3744   24166347.6084
     -2429.5944
  -4483404.87549  -3486069.27147  22285153.3584   22285152.1324
       570.5784
   8605614.53949   6696366.75647  21936796.7724   21936794.6674
     -3180.1254
  -1109920.19947   -861193.96443  24422142.7884   24422142.6834
      -232.3284
  17466852.75848  13586079.80843  24794487.5694   24794485.2144
     -4779.0314
    871017.36649    677802.88547  21793391.7574   21793390.1444
      -690.5474
  -3434120.66249  -2668623.72046  23698980.3044   23698977.7024
        36.0944
  -2882643.49947  -2243076.47543  24435614.7264   24435614.6594
      1882.5944
 04  9  8 22  9 30.0040000  0  8G 3G 8G13G10G23G27G19G28
   4534313.08948   3531809.54844  24173296.6764   24173296.0554
     -2439.0314
  -4491936.82149  -3492717.52847  22283529.8634   22283528.6564
       566.7504
   8653375.35649   6733582.96947  21945885.3944   21945883.4654
     -3187.7194
  -1106364.34047   -858423.13543  24422819.3094   24422819.0944
      -241.9224
  17538564.59048  13641959.12243  24808134.1214   24808132.5904
     -4782.0164
    881401.65049    685894.54048  21795367.6524   21795365.6844
      -694.0314
  -3434599.93249  -2668997.14646  23698889.5124   23698886.0084
        27.6884
  -2910857.87547  -2265061.66744  24430245.7154   24430245.6644
      1879.0004
 04  9  8 22  9 45.0040000  0  8G 3G 8G13G10G23G27G19G28
   4570971.11248   3560374.23144  24180271.9964   24180272.2694
     -2448.3594
  -4500408.67249  -3499318.96447  22281917.7074   22281916.6644
       563.0784
   8701251.39649   6770888.96448  21954995.9804   21954993.9454
     -3195.4064
  -1102661.54046   -855537.82643  24423523.4344   24423523.5514
      -251.5944
  17610321.20748  13697873.29943  24821788.5664   24821786.8404
     -4785.2034
    891840.69849    694028.86147  21797354.1444   21797352.5744
      -697.5784
  -3434949.98249  -2669269.89646  23698822.8094   23698819.9224
        19.2974
  -2939011.99947  -2286999.92843  24424888.4804   24424888.0194
      1875.2974
 04  9  8 22 10  0.0040000  0  8G 3G 8G13G10G23G27G19G28
   4607769.72648   3589048.47144  24187274.6994   24187274.7624
     -2457.8594
  -4508824.38849  -3505876.65847  22280316.2384   22280314.9614
       559.1724
   8749242.33549   6808284.49047  21964128.3634   21964126.4614
     -3203.1724
  -1098815.01746   -852540.55643  24424255.9804   24424255.9304
      -261.1254
  17682123.62648  13753823.17743  24835452.7234   24835450.5624
     -4788.3124
    902331.80749    702203.75448  21799350.6444   21799349.1174
      -701.0784
  -3435174.11449  -2669444.52946  23698779.8164   23698776.9374
        10.7664
  -2967111.12648  -2308895.32144  24419541.7074   24419540.8444
      1871.4844
 04  9  8 22 10 15.0040000  0  8G 3G 8G13G10G23G27G19G28
   4644712.44947   3617834.99843  24194304.3244   24194304.8404
     -2467.5624
  -4517180.27049  -3512387.72747  22278726.4024   22278725.0984
       555.0634
   8797351.71149   6845772.30047  21973283.2384   21973281.1294
     -3211.2034
  -1094821.08846   -849428.38542  24425015.3404   24425015.3914
      -271.0624
  17753975.37348  13809811.50343  24849126.3554   24849123.2504
     -4791.7034
    912878.59049    710422.02048  21801357.6294   21801356.2034
      -705.0004
  -3435268.36049  -2669517.95746  23698762.6684   23698758.9884
         1.9844
  -2995151.48048  -2330744.90043  24414205.3714   24414205.2304
      1867.4384
 04  9  8 22 10 30.0040000  0  8G 3G 8G13G10G23G27G19G28
   4681799.62947   3646734.08044  24201361.6844   24201362.0354
     -2476.4694
  -4525475.88049  -3518851.82847  22277147.4574   22277146.7584
       551.8134
   8845579.58349   6883352.45247  21982460.6444   21982458.6804
     -3218.3594
  -1090679.11646   -846200.87842  24425803.2384   24425804.3984
      -280.2034
  17825876.50148  13865838.31143  24862807.7154   24862805.2424
     -4794.2664
    923481.47049    718684.01047  21803375.3874   21803373.5704
      -707.9224
  -3435232.23849  -2669489.78646  23698768.8164   23698766.2114
        -5.9844
  -3023132.45748  -2352548.24144  24408881.4964   24408880.8794
      1864.2344
 04  9  8 22 10 45.0040000  0  8G 3G 8G13G10G23G27G19G28
   4719019.93347   3675736.91244  24208444.5354   24208445.0944
     -2486.2974
  -4533722.36649  -3525277.65647  22275578.3244   22275577.4694
       547.6564
   8893914.74949   6921016.20747  21991658.4024   21991656.7734
     -3226.3914
  -1086400.09446   -842866.56542  24426617.3634   24426618.1174
      -290.3284
  17897815.75748  13921894.83143  24876497.3094   24876495.0124
     -4797.6874
    934129.45649    726981.13448  21805401.4654   21805400.0434
      -711.8444
  -3435076.64249  -2669368.52646  23698798.4104   23698795.5904
       -14.8914
  -3051065.05148  -2374313.87144  24403565.9184   24403565.0514
      1860.0634
 04  9  8 22 11  0.0040000  0  8G 3G 8G13G10G23G27G19G28
   4756381.78348   3704850.04344  24215554.3874   24215555.0904
     -2495.6564
  -4541911.10249  -3531658.47847  22274020.0514   22274019.2274
       543.7974
   8942365.73749   6958770.20747  22000878.3324   22000876.4654
     -3234.1094
  -1081975.44946   -839418.78342  24427459.8554   24427459.7034
      -300.0314
  17969801.45847  13977987.51543  24890195.3164   24890193.6954
     -4800.8124
    944831.01249    735320.01547  21807437.9884   21807436.4924
      -715.4374
  -3434792.75049  -2669147.27946  23698852.5274   23698849.6054
       -23.3754
  -3078940.60748  -2396035.06044  24398261.4104   24398260.4844
      1856.3594
 04  9  8 22 11 15.0040000  0  8G 3G 8G13G10G23G27G19G28
   4793884.65047   3734073.06144  24222691.0744   24222691.5314
     -2504.9224
  -4550042.19249  -3537994.38047  22272472.6524   22272471.8524
       540.0944
   8990931.94049   6996613.98347  22010120.2694   22010118.1724
     -3241.6564
  -1077405.51846   -835857.75642  24428329.8634   24428329.5784
      -309.5164
  18041832.94648  14034115.87043  24903902.6604   24903901.4024
     -4803.6724
    955585.76349    743700.34047  21809484.6444   21809483.1024
      -718.7974
  -3434380.82949  -2668826.29046  23698930.9734   23698927.8444
       -31.8284
  -3106759.47748  -2417712.07044  24392967.5744   24392966.3594
      1852.6724
 04  9  8 22 11 30.0040000  0  8G 3G 8G13G10G23G27G19G28
   4831525.82347   3763403.82344  24229853.0824   24229854.1174
     -2514.2814
  -4558118.16249  -3544287.33047  22270935.8944   22270934.6914
       536.2814
   9039610.71649   7034545.48247  22019383.8794   22019381.6604
     -3249.2504
  -1072692.83247   -832185.53642  24429225.9264   24429226.0704
      -319.2814
  18113907.32048  14090277.66344  24917618.1844   24917617.0274
     -4806.6874
    966391.25249    752120.21247  21811540.6764   21811539.2934
      -722.3124
  -3433843.11449  -2668407.27046  23699033.4184   23699030.4304
       -40.2974
  -3134523.85148  -2439346.61344  24387683.7934   24387682.9374
      1848.8914
 04  9  8 22 11 45.0040000  0  8G 3G 8G13G10G23G27G19G28
   4869312.33648   3792847.84844  24237044.3634   24237045.1564
     -2523.4374
  -4566131.91549  -3550531.80747  22269410.9024   22269409.6054
       532.7034
   9088409.19349   7072570.25747  22028669.5664   22028667.2624
     -3256.7344
  -1067830.08947   -828396.37643  24430151.8164   24430151.7114
      -328.7034
  18186031.64748  14146478.36844  24931343.3554   24931342.1374
     -4809.4064
    977254.83649    760585.35147  21813607.9884   21813606.3834
      -725.6874
  -3433172.16249  -2667884.43446  23699161.1914   23699158.3524
       -48.6414
  -3162226.39448  -2460932.97344  24382412.6684   24382411.7854
      1845.2814
 04  9  8 22 12  0.0040000  0  8G 3G 8G13G10G23G27G19G28
   4907238.97247   3822401.05544  24244261.5664   24244262.4184
     -2532.9694
  -4574088.59549  -3556731.81647  22267896.8554   22267895.9304
       528.6094
   9137322.15149   7110684.22247  22037977.6684   22037975.3244
     -3264.5944
  -1062822.24847   -824494.18343  24431104.7154   24431104.4494
      -338.5944
  18258200.56648  14202713.80844  24945076.7694   24945075.2154
     -4812.5944
    988171.34249    769091.70847  21815685.3324   21815683.6484
      -729.4224
  -3432372.94549  -2667261.65746  23699312.9344   23699310.0984
       -57.4694
  -3189871.94848  -2482474.92544  24377151.4654   24377150.7544
      1841.2814
 04  9  8 22 12 15.0040000  0  8G 3G 8G13G10G23G27G19G28
   4945308.21147   3852065.39244  24251506.2464   24251506.5554
     -2542.4224
  -4581985.55849  -3562885.28947  22266394.1764   22266392.8404
       524.7504
   9186352.08649   7148889.35247  22047307.6994   22047305.7584
     -3272.2344
  -1057666.58547   -820476.76943  24432086.3484   24432085.9224
      -348.2664
  18330416.56948  14258985.96143  24958818.6374   24958816.9224
     -4815.6564
    999143.53549    777641.47447  21817773.4414   21817771.2274
      -733.0164
  -3431442.51449  -2666536.63046  23699490.0434   23699486.6174
       -66.0944
  -3217457.76948  -2503970.34244  24371902.4024   24371901.1134
      1837.3594
 04  9  8 22 12 30.0040000  0  8G 3G 8G13G10G23G27G19G28
   4983515.42847   3881837.24844  24258776.2464   24258776.9344
     -2551.8914
  -4589826.74349  -3568995.29647  22264901.9574   22264901.1914
       520.7504
   9235494.47249   7187182.10947  22056659.3164   22056657.1644
     -3280.0624
  -1052367.40348   -816347.52743  24433094.9104   24433094.2504
      -358.1724
  18402675.02447  14315291.21243  24972569.3014   24972567.8794
     -4818.8444
   1010166.88549    786231.10147  21819870.8404   21819869.0594
      -736.7034
  -3430385.04549  -2665712.61146  23699690.7464   23699687.7344
       -74.9224
  -3244988.20848  -2525422.57944  24366663.6604   24366662.2894
      1833.4064
 04  9  8 22 12 45.0040000  0  8G 3G 8G13G10G23G27G19G28
   5021863.82848   3911719.10744  24266073.6374   24266074.2934
     -2561.1254
  -4597609.08149  -3575059.44347  22263421.1994   22263419.8594
       517.0164
   9284752.47749   7225564.96247  22066032.4574   22066030.6684
     -3287.5784
  -1046921.37248   -812103.87343  24434131.0434   24434130.4924
      -367.7814
  18474978.95447  14371631.84243  24986327.9024   24986326.4494
     -4821.7034
   1021244.81849    794863.25647  21821979.1294   21821976.9804
      -740.1874
  -3429197.08649  -2664786.91346  23699917.0744   23699914.1804
       -83.3914
  -3272459.62148  -2546828.84844  24361436.0274   24361434.5784
      1829.6094
 04  9  8 22 13  0.0040000  0  8G 3G 8G13G10G23G27G19G28
   5060353.55048   3941711.09944  24273398.7074   24273398.5084
     -2570.6414
  -4605332.25449  -3581077.49447  22261951.4264   22261949.9924
       513.0004
   9334126.31749   7264038.06947  22075427.9494   22075426.6444
     -3295.3444
  -1041328.16348   -807745.53444  24435195.6524   24435194.6844
      -377.7034
  18547328.38347  14428007.93743  25000095.8554   25000094.4024
     -4824.7814
   1032377.72049    803538.24747  21824097.4884   21824096.0824
      -743.9534
  -3427878.11949  -2663759.13746  23700168.4574   23700165.0864
       -92.2504
  -3299871.61948  -2568188.81544  24356219.2234   24356218.3094
      1825.5164
 04  9  8 22 13 15.0040000  0  8G 3G 8G13G10G23G27G19G28
   5098977.90448   3971807.99144  24280748.8484   24280748.5624
     -2579.5784
  -4613002.43849  -3587054.25547  22260491.8634   22260491.1484
       509.4384
   9383609.25149   7302596.19347  22084844.3874   22084842.9264
     -3302.6874
  -1035594.20648   -803277.50944  24436286.3554   24436286.1214
      -387.0944
  18619716.63748  14484414.32743  25013870.9344   25013869.1914
     -4827.3444
   1043559.07849    812250.99647  21826225.3554   21826223.5194
      -747.2034
  -3426434.54049  -2662634.24846  23700442.7624   23700440.0044
      -100.6414
  -3327230.62348  -2589507.47544  24351013.3874   24351012.3284
      1822.0314
 04  9  8 22 13 30.0040000  0  8G 3G 8G13G10G23G27G19G28
   5137742.83648   4002014.43244  24288125.3944   24288125.2814
     -2588.8594
  -4620613.75949  -3592985.15047  22259043.4964   22259042.2624
       505.5944
   9433207.31049   7341244.01747  22094282.5274   22094280.7194
     -3310.2664
  -1029713.27648   -798694.96444  24437406.1764   24437405.4064
      -396.8594
  18692149.53747  14540855.47343  25027654.6524   25027653.0944
     -4830.2344
   1054795.03449    821006.28648  21828363.3554   21828361.6724
      -750.7814
  -3424859.96149  -2661407.29146  23700742.3094   23700739.4024
      -109.1564
  -3354530.37648  -2610779.97844  24345818.2774   24345817.4534
      1818.1564
 04  9  8 22 13 45.0040000  0  8G 3G 8G13G10G23G27G19G28
   5176645.54248   4032328.21344  24295528.4734   24295528.0984
     -2598.5784
  -4628168.74149  -3598872.15047  22257605.6524   22257603.9614
       501.2664
   9482917.64849   7379979.32847  22103742.3324   22103740.3914
     -3318.2344
  -1023687.85648   -793999.83944  24438553.0354   24438552.5354
      -406.9844
  18764624.25448  14597329.22143  25041446.0194   25041444.7774
     -4833.4844
   1066082.99549    829802.08947  21830511.4414   21830509.8364
      -754.7664
  -3423156.87949  -2660080.20246  23701066.5594   23701063.0984
      -118.2664
  -3381773.36048  -2632008.24345  24340633.8404   24340633.4774
      1813.8754
 04  9  8 22 14  0.0040000  0  8G 3G 8G13G10G23G27G19G28
   5215688.47148   4062751.27844  24302957.9104   24302957.8984
     -2607.6724
  -4635664.56749  -3604713.04347  22256179.2074   22256177.8594
       497.5474
   9532742.81649   7418804.11847  22113223.8404   22113221.7344
     -3325.6724
  -1017515.40648   -789190.11944  24439727.2234   24439726.6954
      -416.5314
  18837143.11448  14653837.34543  25055246.3944   25055244.3204
     -4836.2814
   1077425.57149    838640.46947  21832669.8244   21832668.3364
      -758.2194
  -3421322.44848  -2658650.76046  23701415.4964   23701412.2894
      -126.8914
  -3408956.70548  -2653190.04444  24335460.5514   24335460.6254
      1810.0164
 04  9  8 22 14 15.0040000  0  8G 3G 8G13G10G23G27G19G28
   5254866.46648   4093279.57943  24310412.9964   24310412.7774
     -2616.0784
  -4643106.26649  -3610511.75647  22254763.0984   22254762.1564
       494.5784
   9582677.49149   7457714.22947  22122725.6914   22122723.9924
     -3332.3124
  -1011200.81248   -784269.65545  24440929.3324   24440928.2774
      -425.3754
  18909701.02247  14710375.89043  25069052.7384   25069051.9534
     -4838.2344
   1088817.85249    847517.57647  21834837.8554   21834836.0824
      -760.8754
  -3419361.47248  -2657122.70146  23701788.7304   23701785.2154
      -134.6414
  -3436085.31748  -2674329.17744  24330298.7234   24330298.2114
      1807.0164
 04  9  8 22 14 30.0040000  0  8G 3G 8G13G10G23G27G19G28
   5294181.73448   4123914.84743  24317894.3094   24317894.2544
     -2625.6414
  -4650491.33749  -3616266.35647  22253357.5664   22253356.7424
       490.3444
   9632724.14449   7496711.60547  22132249.2074   22132247.7034
     -3340.2814
  -1004741.63148   -779236.52544  24442158.2304   24442157.8094
      -435.5164
  18982299.94547  14766946.44643  25082868.7304   25082866.6994
     -4841.3444
   1100262.24349    856435.27647  21837015.6294   21837013.9574
      -764.8594
  -3417271.19848  -2655493.91146  23702186.6604   23702183.1564
      -143.7194
  -3463156.61448  -2695423.66444  24325147.1374   24325146.6214
      1802.7194
 04  9  8 22 14 45.0040000  0  8G 3G 8G13G10G23G27G19G28
   5333639.90248   4154661.46843  24325403.5434   24325402.9144
     -2635.5314
  -4657813.94049  -3621972.27547  22251964.4104   22251963.3674
       485.8754
   9682888.23949   7535800.50547  22141795.3714   22141793.7154
     -3348.4534
   -998131.97248   -774086.13744  24443416.0354   24443414.8874
      -445.9374
  19054945.38847  14823553.21442  25096691.7304   25096690.1524
     -4844.7664
   1111764.57749    865398.14447  21839204.4414   21839202.7274
      -768.9534
  -3415045.82649  -2653759.82746  23702609.7304   23702606.4534
      -153.0784
  -3490164.75948  -2716468.92944  24320007.6214   24320007.2504
      1798.2504
 04  9  8 22 15  0.0040000  0  8G 3G 8G13G10G23G27G19G28
   5373238.14648   4185517.22244  24332938.9804   24332938.3914
     -2644.1414
  -4665076.70649  -3627631.57147  22250582.1214   22250581.1684
       482.5944
   9733167.04049   7574978.76447  22151363.0514   22151361.2544
     -3355.3124
   -991374.47448   -768820.56445  24444701.8324   24444700.9774
      -455.0314
  19127634.63248  14880194.11843  25110524.7154   25110522.2544
     -4847.0624
   1123322.16549    874404.04347  21841403.7694   21841402.0124
      -771.9374
  -3412687.76149  -2651922.35746  23703058.3944   23703056.4574
      -161.2504
  -3517112.17948  -2737466.89145  24314879.6764   24314879.3794
      1794.8754
 04  9  8 22 15 15.0040000  0  8G 3G 8G13G10G23G27G19G28
   5412970.13848   4216477.21144  24340499.2234   24340499.1724
     -2653.8754
  -4672285.83349  -3633249.07047  22249210.4574   22249209.4924
       478.2194
   9783554.29249   7614241.54647  22160951.3714   22160949.7194
     -3363.3284
   -984475.23048   -763444.52845  24446014.8164   24446013.7034
      -465.3124
  19200361.22248  14936864.14843  25124364.2074   25124361.9264
     -4850.2814
   1134928.96049    883448.29547  21843612.5594   21843610.8444
      -775.9534
  -3410202.99549  -2649986.16546  23703531.3874   23703528.9064
      -170.4224
  -3544004.79148  -2758422.15544  24309761.6684   24309761.7814
      1790.4224
 04  9  8 22 15 30.0040000  0  8G 3G 8G13G10G23G27G19G28
   5452844.04948   4247547.78744  24348087.0194   24348086.5434
     -2663.1254
  -4679432.73749  -3638818.07947  22247850.4654   22247848.8944
       474.2194
   9834058.25449   7653595.27447  22170562.1524   22170560.1954
     -3371.0314
   -977425.89248   -757951.53445  24447355.9264   24447354.9344
      -475.0624
  19273133.22448  14993569.56043  25138212.4024   25138210.5084
     -4853.1254
   1146593.42549    892537.49647  21845831.8244   21845830.2034
      -779.7034
  -3407582.98448  -2647944.58046  23704029.8714   23704026.8554
      -179.3444
  -3570834.22648  -2779328.17144  24304656.9104   24304656.3124
      1786.3444
 04  9  8 22 15 45.0040000  0  8G 3G 8G13G10G23G27G19G28
   5492856.98548   4278726.69644  24355701.1994   24355701.0004
     -2672.2194
  -4686520.23149  -3644340.79647  22246501.8634   22246500.6874
       470.3914
   9884675.99049   7693037.65547  22180194.3164   22180192.2464
     -3378.3914
   -970229.00148   -752343.56445  24448725.9414   24448724.8444
      -484.8124
  19345947.73748  15050308.08643  25152068.9184   25152066.5274
     -4855.8124
   1158312.69749    901669.39047  21848062.2304   21848060.6174
      -783.2034
  -3404830.26348  -2645799.58246  23704553.8404   23704551.1804
      -188.0164
  -3597603.00147  -2800186.92144  24299562.4654   24299562.0864
      1782.4534
 04  9  8 22 16  0.0040000  0  8G 3G 8G13G10G23G27G19G28
   5533008.87448   4310013.86744  24363341.7384   24363342.2624
     -2681.4224
  -4693548.19049  -3649817.11247  22245164.2154   22245163.6214
       466.6254
   9935407.47549   7732568.66947  22189847.9264   22189846.3164
     -3385.8594
   -962884.60948   -746620.67844  24450123.3714   24450122.0194
      -494.5164
  19418804.55948  15107079.58243  25165932.9104   25165931.3164
     -4858.5474
   1170087.02249    910844.19047  21850302.6914   21850301.1524
      -786.7664
  -3401944.56049  -2643550.97046  23705102.5664   23705099.8674
      -196.7344
  -3624310.90548  -2820998.24044  24294479.9574   24294479.7194
      1778.5474
 04  9  8 22 16 15.0040000  0  8G 3G 8G13G10G23G27G19G28
   5573297.82048   4341407.84544  24371009.0434   24371009.1174
     -2690.3914
  -4700518.20849  -3655248.29647  22243838.1214   22243837.1524
       462.8754
   9986250.91349   7772186.92747  22199523.1844   22199521.8054
     -3393.2194
   -955394.30648   -740784.06944  24451548.0984   24451547.9654
      -504.0944
  19491701.84047  15163882.59443  25179804.8404   25179802.9844
     -4861.0474
   1181914.73649    920060.58947  21852553.4414   21852552.1644
      -790.1724
  -3398927.31849  -2641199.85346  23705677.3244   23705674.2894
      -205.4534
  -3650959.47948  -2841763.33944  24289408.7464   24289408.8714
      1774.6414
 04  9  8 22 16 30.0040000  0  8G 3G 8G13G10G23G27G19G28
   5613727.04548   4372911.12844  24378702.1604   24378701.9064
     -2699.7344
  -4707426.83849  -3660631.63547  22242523.4654   22242522.2894
       458.7344
  10037209.45649   7811894.87047  22209220.4964   22209218.6954
     -3400.8754
   -947754.55747   -734831.03044  24453002.8874   24453001.3754
      -514.1564
  19564642.66247  15220719.51043  25193685.0044   25193683.7624
     -4864.0164
   1193799.26749    929321.26847  21854815.0354   21854813.3594
      -794.0164
  -3395774.97648  -2638743.47046  23706276.6994   23706273.8874
      -214.4374
  -3677545.16948  -2862479.42544  24284349.6294   24284348.9454
      1770.4694
 04  9  8 22 16 45.0040000  0  8G 3G 8G13G10G23G27G19G28
   5654295.54848   4404522.92744  24386422.2934   24386422.1874
     -2709.2504
  -4714274.45749  -3665967.44247  22241220.4344   22241218.8914
       454.4534
  10088282.13049   7851691.74847  22218939.4494   22218937.6414
     -3408.7344
   -939966.00247   -728762.02544  24454484.3944   24454483.5744
      -524.2504
  19637626.02147  15277589.57542  25207573.4264   25207572.0194
     -4866.9534
   1205739.94049    938625.68847  21857087.2154   21857085.7384
      -798.0164
  -3392488.03149  -2636182.20846  23706902.2694   23706899.3874
      -223.7034
  -3704068.55148  -2883146.97644  24279302.7854   24279302.1024
      1766.0314
 04  9  8 22 17  0.0040000  0  8G 3G 8G13G10G23G27G19G28
   5695003.48548   4436243.40244  24394168.5514   24394168.2894
     -2718.3444
  -4721061.19149  -3671255.79747  22239928.5664   22239927.2814
       450.5314
  10139469.20149   7891577.76847  22228679.5594   22228677.6994
     -3416.1254
   -932028.33947   -722576.84544  24455994.8794   24455993.9344
      -533.9534
  19710652.08647  15334492.95742  25221469.6214   25221468.4374
     -4869.6564
   1217737.08349    947974.11547  21859370.1844   21859368.5664
      -801.5164
  -3389066.05549  -2633515.70846  23707553.1844   23707550.6844
      -232.5164
  -3730529.22048  -2903765.65944  24274267.3714   24274266.2694
      1762.0474
 04  9  8 22 17 15.0040000  0  8G 3G 8G13G10G23G27G19G28
   5735847.52348   4468069.92544  24401940.7304   24401940.9574
     -2727.6414
  -4727789.88549  -3676498.93247  22238648.5124   22238646.9184
       446.3914
  10190767.27249   7931550.26247  22238441.5824   22238440.2074
     -3423.7814
   -923944.88848   -716278.04544  24457533.5824   24457532.7504
      -543.9844
  19783717.31247  15391426.83143  25235373.5514   25235372.0784
     -4872.5474
   1229787.41049    957363.98247  21861663.6214   21861661.6644
      -805.3594
  -3385512.11449  -2630746.38646  23708229.8094   23708226.6054
      -241.5944
  -3756930.25448  -2924337.85444  24269243.2154   24269242.5004
      1757.8444
 04  9  8 22 17 30.0040000  0  8G 3G 8G13G10G23G27G19G28
   5776829.29148   4500003.74444  24409739.6764   24409739.6214
     -2736.5624
  -4734458.90549  -3681695.55947  22237379.1294   22237377.8754
       442.7194
  10242178.14649   7971610.66447  22248224.7624   22248222.9534
     -3431.0474
   -915713.64448   -709864.10544  24459099.2304   24459098.4144
      -553.6254
  19856823.40847  15448392.57443  25249285.2624   25249284.0394
     -4874.9844
   1241892.93249    966796.85847  21863966.8484   21863965.4614
      -808.8284
  -3381824.10849  -2627872.60846  23708931.8014   23708928.5194
      -250.2344
  -3783269.58448  -2944861.97144  24264231.2234   24264230.5514
      1753.9534
 04  9  8 22 17 45.0040000  0  8G 3G 8G13G10G23G27G19G28
   5817949.48148   4532045.45444  24417564.2774   24417564.3984
     -2745.9844
  -4741067.17749  -3686844.86347  22236121.5044   22236120.6294
       438.4384
  10293702.36149   8011759.39047  22258029.4024   22258027.8284
     -3438.7814
   -907333.74247   -703334.30544  24460694.3404   24460693.5164
      -563.6254
  19929970.77947  15505390.48843  25263204.8554   25263203.5044
     -4877.8444
   1254054.44849    976273.35347  21866281.3634   21866279.8164
      -812.6724
  -3378001.10349  -2624893.63446  23709659.0124   23709655.9804
      -259.3914
  -3809546.24248  -2965337.25844  24259231.1604   24259230.0314
      1749.6724
 04  9  8 22 18  0.0040000  0  7G 3G 8G13G10G27G19G28
   5859206.06748   4564193.42044  24425415.5824   24425415.5474
     -2755.0314
  -4747616.41749  -3691948.15647  22234875.6054   22234874.5824
       434.6094
  10345337.97549   8051994.91147  22267855.6374   22267853.8714
     -3446.1094
   -898807.06947   -696690.15644  24462316.7934   24462316.0434
      -573.3594
   1266270.18649    985792.10947  21868606.0744   21868604.6024
      -816.1874
  -3374044.80849  -2621810.79246  23710411.8794   23710409.1994
      -268.3124
  -3835761.92848  -2985765.03244  24254242.4414   24254240.9414
      1745.6414
 04  9  8 22 18 15.0040000  0  7G 3G 8G13G10G27G19G28
   5900602.98548   4596450.74944  24433292.9414   24433293.5124
     -2764.7814
  -4754102.34549  -3697002.11448  22233641.3094   22233640.0864
       429.9694
  10397089.09249   8092320.45047  22277703.2624   22277701.8754
     -3454.2034
   -890129.25447   -689928.23044  24463968.7234   24463967.0824
      -583.8754
   1278544.49649    995356.50647  21870941.4264   21870939.9184
      -820.5314
  -3369950.70048  -2618620.56246  23711191.1294   23711187.6374
      -277.8444
  -3861912.18448  -3006141.81844  24249266.2854   24249265.1294
      1740.8284
 04  9  8 22 18 30.0040000  0  7G 3G 8G13G10G27G19G28
   5942135.10748   4628813.44244  24441196.3164   24441196.2814
     -2773.5314
  -4760530.01249  -3702010.68847  22232418.3874   22232417.1214
       426.3444
  10448950.48649   8132731.90447  22287572.2774   22287570.8014
     -3461.2814
   -881305.24448   -683052.38243  24465646.8794   24465646.0274
      -593.3914
   1290872.32149   1004962.59847  21873287.4414   21873285.8444
      -823.8594
  -3365723.63948  -2615326.73446  23711995.3244   23711992.0704
      -286.4694
  -3888001.93348  -3026471.44644  24244301.3404   24244300.3714
      1737.0164
 04  9  8 22 18 45.0040000  0  7G 3G 8G13G10G27G19G28
   5983807.56948   4661285.47144  24449125.4184   24449126.2544
     -2782.2344
  -4766893.81549  -3706969.47947  22231207.2774   22231206.3874
       422.6884
  10500927.55549   8173233.49747  22297463.4414   22297461.3984
     -3468.4064
   -872329.59747   -676058.37443  24467355.1604   24467354.9374
      -602.8444
   1303259.20949   1014614.72247  21875644.4344   21875642.9924
      -827.1564
  -3361357.97148  -2611924.89846  23712826.3014   23712822.8714
      -295.1094
  -3914025.62348  -3046749.60944  24239348.9574   24239347.9844
      1733.2664
 04  9  8 22 19  0.0040000  0  7G 3G 8G13G10G27G19G28
   6025613.98347   4693861.88644  24457082.0124   24457081.6764
     -2791.5314
  -4773199.87149  -3711883.29048  22230007.2934   22230006.2114
       418.4064
  10553013.85049   8213820.20247  22307375.1524   22307373.2274
     -3476.1094
   -863208.61447   -668951.12143  24469090.8554   24469089.9454
      -612.9844
   1315698.85649   1024307.94547  21878011.8714   21878010.0084
      -831.0944
  -3356859.81748  -2608419.83746  23713681.9574   23713678.9344
      -304.3444
  -3939989.39648  -3066981.07044  24234408.2544   24234407.3754
      1728.9064
 04  9  8 22 19 15.0040000  0  7G 3G 8G13G10G27G19G28
   6067559.64548   4726546.82344  24465064.1604   24465063.4264
     -2801.0624
  -4779442.99749  -3716748.05448  22228819.1844   22228817.8094
       414.1094
  10605214.63649   8254496.11947  22317308.2934   22317306.9654
     -3483.8284
   -853936.74748   -661726.28343  24470855.4734   24470854.0664
      -623.1564
   1328196.87049   1034046.65947  21880389.9574   21880388.2234
      -835.0314
  -3352223.55748  -2604807.15446  23714563.8554   23714561.2114
      -313.7034
  -3965887.60048  -3087161.45544  24229479.8874   24229478.7074
      1724.3284
 04  9  8 22 19 30.0040000  0  7G 3G 8G13G10G27G19G28
   6109645.05547   4759340.62644  24473072.5664   24473072.2194
     -2810.5624
  -4785622.21349  -3721563.00948  22227643.2774   22227642.2814
       409.6884
  10657530.45949   8295261.67847  22327263.8874   22327262.5194
     -3491.6724
   -844513.17447   -654383.23244  24472649.0664   24472647.3484
      -633.4224
   1340753.87549   1043831.34248  21882779.5744   21882777.8554
      -839.2504
  -3347448.30348  -2601086.15746  23715472.5904   23715470.3794
      -323.1414
  -3991719.27748  -3107289.97944  24224564.7464   24224563.4924
      1719.7664
 04  9  8 22 19 45.0040000  0  7G 3G 8G13G10G27G19G28
   6151867.95947   4792241.60344  24481107.0904   24481107.2154
     -2818.8444
  -4791739.63749  -3726329.82848  22226479.1134   22226477.6764
       406.3914
  10709959.02949   8336115.09447  22337240.4024   22337238.8794
     -3498.3754
   -834939.94047   -646923.57243  24474470.0354   24474469.4224
      -642.5474
   1353367.98449   1053660.52647  21885179.9884   21885177.6804
      -842.2034
  -3342535.99148  -2597258.36946  23716407.8164   23716404.3524
      -331.4224
  -4017486.44448  -3127368.25144  24219660.7624   24219659.5594
      1716.3284
 04  9  8 22 20  0.0040000  0  7G 3G 8G13G10G27G19G28
   6194223.50348   4825245.90344  24489167.0274   24489167.1994
     -2828.1724
  -4797799.79149  -3731052.02448  22225325.9264   22225324.7464
       402.0634
  10762495.55349   8377052.62547  22347237.9104   22347236.2694
     -3506.1094
   -825221.91647   -639351.08943  24476320.0354   24476318.5904
      -652.7664
   1366034.41449   1063530.46447  21887590.4264   21887588.6024
      -846.2344
  -3337491.15148  -2593327.31546  23717367.7854   23717364.9414
      -340.8124
  -4043193.82848  -3147399.95644  24214768.8874   24214767.9224
      1711.8284
 04  9  8 22 20 15.0040000  0  7G 3G 8G13G10G27G19G28
   6236715.59747   4858356.62144  24497252.8404   24497253.0044
     -2837.4064
  -4803798.56849  -3735726.38648  22224184.0594   22224183.4224
       397.8284
  10815143.86349   8418077.26347  22357256.5594   22357254.8124
     -3513.6564
   -815354.93747   -631662.51343  24478197.0044   24478196.2304
      -662.9064
   1378757.23949   1073444.36747  21890011.1914   21890009.6414
      -850.1874
  -3332309.47248  -2589289.62546  23718353.6604   23718350.7114
      -350.0944
  -4068837.02748  -3167381.62044  24209889.1994   24209888.6094
      1707.2974
 04  9  8 22 20 30.0040000  0  7G 3G 8G13G10G27G19G28
   6279345.78147   4891574.93744  24505364.7074   24505365.3874
     -2846.7814
  -4809734.03349  -3740351.41848  22223054.9024   22223053.7114
       393.4534
  10867905.75249   8459190.40347  22367296.7544   22367294.9064
     -3521.3594
   -805336.95748   -623856.29643  24480103.1444   24480102.4534
      -673.1414
   1391538.55349   1083403.82847  21892443.5274   21892441.6024
      -854.1874
  -3326988.81249  -2585143.65946  23719366.6524   23719363.1024
      -359.5164
  -4094414.05048  -3187311.73944  24205022.0514   24205021.2974
      1702.7194
 04  9  8 22 20 45.0040000  0  7G 3G 8G13G10G27G19G28
   6322112.66748   4924899.76544  24513503.6444   24513503.5864
     -2855.5624
  -4815607.34949  -3744928.02448  22221937.0514   22221935.7584
       389.6094
  10920779.79149   8500390.94147  22377358.2624   22377356.9774
     -3528.5944
   -795169.26748   -615933.42143  24482038.0664   24482037.3634
      -682.7034
   1404377.03849   1093407.83947  21894886.5434   21894884.4654
      -857.6414
  -3321530.53349  -2580890.44046  23720404.9964   23720401.7384
      -368.2814
  -4119926.03748  -3207191.17644  24200167.0044   24200166.6564
      1698.7814
 04  9  8 22 21  0.0040000  0  7G 3G 8G13G10G27G19G28
   6365017.00247   4958331.70044  24521667.6524   24521667.9344
     -2865.1724
  -4821417.43649  -3749455.35848  22220831.7854   22220830.2584
       384.9844
  10973766.79749   8541679.49847  22387441.5434   22387439.9574
     -3536.5624
   -784850.82148   -607893.06443  24484001.8244   24484001.2234
      -693.1724
   1417273.76549   1103457.24147  21897340.6764   21897339.0314
      -861.9694
  -3315933.32849  -2576528.97746  23721470.4884   23721466.9844
      -378.0164
  -4145371.71048  -3227018.95144  24195324.7694   24195323.6684
      1693.9064
 04  9  8 22 21 15.0040000  0  7G 3G 8G13G10G27G19G28
   6408056.48148   4991868.95544  24529858.4104   24529858.2664
     -2873.8594
  -4827166.65349  -3753935.26148  22219737.6134   22219736.4844
       381.2344
  11026864.55849   8583054.35847  22397545.7544   22397544.1444
     -3543.6254
   -774383.75348   -599736.90043  24485993.6844   24485992.7464
      -702.7974
   1430226.68949   1113550.43347  21899805.7464   21899803.9304
      -865.4694
  -3310199.11249  -2572060.73246  23722561.2694   23722558.4844
      -386.8594
  -4170753.17648  -3246796.67344  24190494.6604   24190494.0194
      1689.9384
 04  9  8 22 21 30.0040000  0  7G 3G 8G13G10G27G19G28
   6451226.95147   5025508.27244  24538073.4804   24538073.0864
     -2882.8754
  -4832858.60949  -3758370.54347  22218654.5824   22218653.1174
       377.1094
  11080068.77849   8624512.17247  22407670.1684   22407668.5624
     -3550.9224
   -763772.12448   -591468.08944  24488013.1134   24488012.3094
      -712.7664
   1443231.76149   1123684.25547  21902280.1214   21902278.4734
      -869.2344
  -3304331.73849  -2567488.73746  23723677.5274   23723674.7274
      -396.0474
  -4196074.22448  -3266527.31944  24185676.3094   24185675.8094
      1685.5314
 04  9  8 22 21 45.0040000  0  7G 3G 8G13G10G27G19G28
   6494532.48748   5059252.84144  24546314.6914   24546314.1844
     -2891.5474
  -4838488.85349  -3762757.74447  22217583.3484   22217582.2734
       373.2344
  11133383.84249   8666056.36447  22417815.7774   22417814.0274
     -3558.0164
   -753011.41348   -583083.10444  24490060.6134   24490060.5434
      -722.4224
   1456293.51049   1133862.24447  21904765.9654   21904764.5434
      -872.7344
  -3298326.61749  -2562809.41346  23724820.6214   23724817.5984
      -404.9844
  -4221330.34648  -3286207.38345  24180870.4734   24180870.1604
      1681.5474
 04  9  8 22 22  0.0040000  0  7G 3G 8G13G10G27G19G28
   6537972.51048   5093102.19344  24554580.2694   24554580.5004
     -2900.3124
  -4844058.06549  -3767097.37948  22216523.1134   22216521.8054
       369.4064
  11186809.10849   8707686.42047  22427982.3164   22427980.2154
     -3565.2034
   -742102.02948   -574582.28044  24492136.4264   24492136.3524
      -732.0624
   1469411.52049   1144084.06547  21907262.3164   21907260.4964
      -876.1874
  -3292184.17549  -2558023.08946  23725989.3714   23725986.3094
      -413.8914
  -4246521.86248  -3305837.11245  24176077.0354   24176076.1764
      1677.4384
 04  9  8 22 22 15.0040000  0  7G 3G 8G13G10G27G19G28
   6581548.44148   5127057.44344  24562873.1054   24562872.9144
     -2909.5944
  -4849564.34749  -3771387.97948  22215475.5124   22215474.3404
       364.9064
  11240345.90249   8749403.39447  22438169.8874   22438168.3554
     -3572.8754
   -731042.43548   -565964.39744  24494241.0664   24494240.9184
      -742.3914
   1482587.37649   1154350.97347  21909769.3714   21909767.5904
      -880.3124
  -3285902.62249  -2553128.35346  23727184.6524   23727181.1874
      -423.4534
  -4271647.12248  -3325415.18945  24171295.3794   24171294.8714
      1672.7814
 04  9  8 22 22 30.0040000  0  7G 3G 8G13G10G27G19G28
   6625254.79847   5161114.33144  24571189.2234   24571190.3164
     -2919.0624
  -4855013.16849  -3775633.81647  22214438.4804   22214437.4694
       360.3134
  11293988.73049   8791202.98247  22448377.7384   22448376.2424
     -3580.6564
   -719837.83248   -557233.53144  24496373.0744   24496373.0314
      -752.8444
   1495815.85949   1164658.87847  21912286.9494   21912284.9344
      -884.6724
  -3279487.09949  -2548129.23146  23728405.2074   23728402.4734
      -433.1094
  -4296711.23548  -3344945.63845  24166525.6684   24166524.9064
      1667.8914
 04  9  8 22 22 45.0040000  0  7G 3G 8G13G10G27G19G28
   6669096.94548   5195277.03744  24579532.8404   24579533.0194
     -2927.1414
  -4860398.52149  -3779830.19048  22213413.9494   22213412.5164
       357.1724
  11347743.14349   8833089.51747  22458607.1764   22458605.0234
     -3587.1094
   -708482.68448   -548385.36444  24498534.3164   24498533.8244
      -761.7974
   1509102.74049   1175012.28947  21914815.3874   21914813.6954
      -887.5164
  -3272931.76349  -2543021.17446  23729653.0194   23729649.6444
      -441.4534
  -4321708.42348  -3364423.93145  24161769.2544   24161768.0824
      1664.4694
 04  9  8 22 23  0.0040000  0  7G 3G 8G13G10G27G19G28
   6713071.78948   5229543.13544  24587900.1764   24587901.2424
     -2936.3754
  -4865723.40949  -3783979.44048  22212400.3874   22212399.0864
       352.7034
  11401605.94749   8875060.51147  22468856.9184   22468855.2234
     -3594.6414
   -696979.87848   -539422.13244  24500723.0194   24500722.8164
      -772.0314
   1522445.02649   1185408.87547  21917354.0904   21917352.4884
      -891.5944
  -3266239.36049  -2537806.30346  23730926.5744   23730923.0624
      -451.0004
  -4346641.42748  -3383852.20345  24157024.5274   24157023.8834
      1659.8444
 04  9  8 22 23 15.0040000  0  7G 3G 8G13G10G27G19G28
   6757183.63447   5263915.99244  24596294.5594   24596295.3284
     -2945.1724
  -4870983.08449  -3788077.89047  22211399.8244   22211398.3674
       348.6724
  11455581.57049   8917119.40747  22479127.8944   22479126.2304
     -3601.9064
   -685324.99148   -530340.39844  24502941.1134   24502940.2814
      -781.8124
   1535847.25649   1195852.17447  21919904.4734   21919902.3714
      -895.3284
  -3259405.19649  -2532480.96446  23732226.5824   23732223.4344
      -460.1724
  -4371505.57749  -3403226.83745  24152293.0044   24152292.1374
      1655.4844
 04  9  8 22 23 30.0040000  0  7G 3G 8G13G10G27G19G28
   6801428.16848   5298392.24444  24604714.4734   24604714.6914
     -2954.0784
  -4876181.71149  -3792128.76648  22210410.3484   22210409.0084
       344.5314
  11509665.81949   8959262.95647  22489420.2384   22489418.4804
     -3609.2194
   -673521.94348   -521143.22144  24505186.9574   24505186.5434
      -791.7814
   1549305.44649   1206339.07647  21922465.7774   21922463.6294
      -899.0944
  -3252433.31849  -2527048.31246  23733553.0594   23733551.0044
      -469.4064
  -4396304.82549  -3422550.87645  24147573.9654   24147572.8834
      1651.1094
 04  9  8 22 23 45.0040000  0  7G 3G 8G13G10G27G19G28
   6845807.85748   5332973.79944  24613159.5824   24613159.7384
     -2963.0944
  -4881316.46749  -3796129.86848  22209433.1444   22209431.7304
       340.1414
  11563861.26849   9001493.14747  22499733.1524   22499731.3324
     -3616.7194
   -661568.05448   -511828.49444  24507461.4414   24507460.5194
      -801.9694
   1562822.42349   1216871.78947  21925037.8404   21925035.6334
      -903.0624
  -3245320.77749  -2521506.06646  23734907.2234   23734904.7584
      -478.8914
  -4421036.36349  -3441822.18245  24142867.1214   24142866.5984
      1646.5004
 04  9  8 22 24  0.0040000  0  7G 3G 8G13G10G27G19G28
   6890321.26448   5367659.56844  24621630.0594   24621630.8364
     -2972.2814
  -4886388.48549  -3800082.07547  22208468.0044   22208466.2854
       335.8284
  11618166.42449   9043808.83247  22510067.2304   22510065.6644
     -3624.2344
   -649464.60648   -502397.24244  24509764.7384   24509764.2424
      -812.1414
   1576396.88149   1227449.28947  21927620.8874   21927619.2194
      -907.1254
  -3238068.70548  -2515855.07846  23736286.6844   23736284.1214
      -488.4224
  -4445701.13748  -3461041.42945  24138174.0434   24138173.2814
      1641.8134
 04  9  8 22 24 15.0040000  0  7G 3G 8G13G10G27G19G28
   6934967.81848   5402449.09344  24630126.0904   24630126.5744
     -2980.9374
  -4891398.11149  -3803985.67548  22207514.5904   22207513.2934
       331.8914
  11672580.81249   9086209.64347  22520421.7624   22520420.3014
     -3631.2974
   -637211.87148   -492849.64644  24512095.9654   24512096.2034
      -821.8594
   1590028.67149   1238071.46547  21930214.8094   21930213.4144
      -910.7664
  -3230677.26849  -2510095.51246  23737693.5824   23737690.7504
      -497.4224
  -4470299.60649  -3480209.03245  24133492.7624   24133492.2194
      1637.5784
 04  9  8 22 24 30.0040000  0  7G 3G 8G13G10G27G19G28
   6979747.83648   5437342.59343  24638647.2234   24638647.4924
     -2989.3594
  -4896344.76249  -3807840.20347  22206573.3944   22206572.1764
       328.1724
  11727104.67348   9128695.73347  22530797.2544   22530795.7424
     -3638.1414
   -624809.39748   -483185.38044  24514457.0824   24514455.9734
      -831.3594
   1603718.22849   1248738.65247  21932820.0744   21932818.1524
      -914.0474
  -3223145.84948  -2504226.85246  23739126.5824   23739123.8324
      -506.2974
  -4494831.03049  -3499324.39045  24128824.8094   24128824.3054
      1633.7034
 04  9  8 22 24 45.0040000  0  7G 3G 8G13G10G27G19G28
   7024656.34747   5472336.20843  24647192.7934   24647193.6294
     -2998.6094
  -4901233.15849  -3811649.34048  22205643.0824   22205641.4414
       323.5474
  11781733.11449   9171263.33947  22541192.6844   22541191.0044
     -3645.8594
   -612261.85248   -473408.06044  24516844.1914   24516843.7384
      -841.7664
   1617460.93749   1259447.25647  21935435.0274   21935433.6414
      -918.3914
  -3215479.03149  -2498252.69946  23740585.5664   23740582.9414
      -516.1094
  -4519299.85648  -3518390.97744  24124168.6994   24124167.7034
      1628.7034
 04  9  8 22 25  0.0040000  0  7G 3G 8G13G10G27G19G28
   7069695.63248   5507431.76843  24655763.7154   24655764.4844
     -3006.9064
  -4906060.89149  -3815411.19647  22204724.4344   22204723.1174
       319.9064
  11836468.41848   9213914.20747  22551608.5514   22551606.7384
     -3652.4224
   -599566.82247   -463515.84944  24519260.0904   24519259.6214
      -851.1414
   1631259.24349   1270199.17847  21938060.9494   21938059.3754
      -921.6094
  -3207674.20649  -2492171.01246  23742070.9494   23742068.1524
      -524.9224
  -4543703.66548  -3537406.87344  24119524.5194   24119523.4774
      1624.8444
 04  9  8 22 25 15.0040000  0  7G 3G 8G13G10G27G19G28
   7114864.45448   5542628.21443  24664359.3094   24664359.9654
     -3015.5004
  -4910828.76349  -3819126.42048  22203817.1294   22203815.5824
       315.9384
  11891309.45548   9256647.46547  22562044.4734   22562043.0984
     -3659.4534
   -586725.31947   -453509.47944  24521704.0274   24521703.5594
      -860.8284
   1645112.11149   1280993.62548  21940696.9574   21940695.6374
      -925.2344
  -3199732.21848  -2485982.43146  23743582.0124   23743579.5434
      -533.8914
  -4568043.33048  -3556372.81745  24114892.9414   24114891.8634
      1620.6094
 04  9  8 22 25 30.0040000  0  7G 3G 8G13G10G27G19G28
   7160169.71648   5577931.01043  24672980.6214   24672980.8014
     -3024.7344
  -4915529.59549  -3822789.40447  22202922.7694   22202921.8834
       311.2194
  11946263.22149   9299468.56747  22572501.9344   22572500.4374
     -3667.2814
   -573730.14448   -443383.37544  24524176.5744   24524176.7234
      -871.4534
   1659026.90449   1291836.32047  21943344.8634   21943343.5084
      -929.6414
  -3191645.80948  -2479681.31946  23745121.1524   23745118.4304
      -543.7664
  -4592311.45248  -3575283.00744  24110275.2934   24110273.8834
      1615.5004
 04  9  8 22 25 45.0040000  0  7G 3G 8G13G10G27G19G28
   7205604.46548   5613334.71043  24681626.5744   24681626.5824
     -3033.4694
  -4920169.85549  -3826405.18048  22202039.7234   22202038.6024
       307.2194
  12001322.65249   9342372.00747  22582979.2544   22582977.5044
     -3674.2504
   -560588.12146   -433142.84644  24526677.6134   24526676.9884
      -881.0004
   1672996.86149   1302721.99247  21946003.2234   21946001.8014
      -933.2664
  -3183421.61249  -2473272.83946  23746685.4574   23746682.9454
      -552.9534
  -4616514.66849  -3594142.61944  24105668.7854   24105667.6914
      1611.3134
 04  9  8 22 26  0.0040000  0  7G 3G 8G13G10G27G19G28
   7251171.08448   5648841.17043  24690297.6214   24690297.7694
     -3041.6874
  -4924747.07949  -3829971.85448  22201168.5194   22201167.2464
       303.5474
  12056490.27349   9385359.75547  22593477.1524   22593475.8124
     -3681.0164
   -547296.64946   -422785.86044  24529206.3164   24529206.3554
      -890.6564
   1687024.57849   1313652.67847  21948672.8094   21948671.3794
      -936.6564
  -3175056.98148  -2466754.93046  23748277.7154   23748274.9734
      -561.8754
  -4640650.24748  -3612949.52345  24101076.0594   24101074.6914
      1607.2344
 04  9  8 22 26 15.0040000  0  7G 3G 8G13G10G27G19G28
   7296867.19248   5684448.50343  24698993.2074   24698993.6174
     -3050.6094
  -4929263.41849  -3833491.07948  22200309.1374   22200307.7694
       299.0784
  12111763.73049   9428429.97947  22603995.6444   22603993.7854
     -3688.3124
   -533857.85547   -412314.06444  24531764.1914   24531763.7544
      -900.6564
   1701108.11349   1324626.86647  21951352.7384   21951351.3054
      -940.6254
  -3166553.73749  -2460129.01346  23749896.0044   23749892.4924
      -571.3594
  -4664720.21449  -3631705.29544  24096495.7934   24096494.4654
      1602.6094
 04  9  8 22 26 30.0040000  0  7G 3G 8G13G10G27G19G28
   7342698.76348   5720161.41643  24707714.9494   24707714.4104
     -3059.6724
  -4933712.37949  -3836957.79648  22199462.6054   22199461.5084
       294.6414
  12167148.99749   9471587.31047  22614535.1214   22614532.9964
     -3695.8284
   -520265.55247   -401722.66844  24534350.5904   24534349.8674
      -911.0624
   1715253.54049   1335649.28347  21954044.3714   21954043.0124
      -944.8594
  -3157905.54748  -2453390.14946  23751541.6134   23751538.6844
      -581.0944
  -4688718.23949  -3650405.02145  24091929.1374   24091927.9804
      1597.7194
 04  9  8 22 26 45.0040000  0  7G 3G 8G13G10G27G19G28
   7388659.38748   5755974.85643  24716460.6444   24716460.8834
     -3068.2344
  -4938100.22149  -3840376.88848  22198627.4414   22198626.4574
       290.5634
  12222639.76249   9514826.85747  22625094.5594   22625093.0904
     -3702.8124
   -506525.88347   -391016.43444  24536964.5194   24536965.2854
      -920.8124
   1729454.93949   1346715.30747  21956747.2464   21956745.4654
      -948.5624
  -3149118.45948  -2446543.06046  23753213.5124   23753210.8364
      -590.4224
  -4712650.39549  -3669053.42445  24087374.9654   24087373.6054
      1593.2974
 04  9  8 22 27  0.0040000  0  7G 3G 8G13G10G27G19G28
   7434749.56248   5791889.27043  24725231.3484   24725231.4224
     -3076.6254
  -4942426.21049  -3843747.78148  22197804.6294   22197803.2974
       286.6724
  12278236.64949   9558149.09347  22635674.3714   22635672.6444
     -3709.6724
   -492638.08646   -380194.80444  24539607.2624   24539607.4224
      -930.4694
   1743712.96249   1357825.45547  21959459.9264   21959458.2424
      -952.0944
  -3140191.60949  -2439587.06246  23754912.4184   23754909.3524
      -599.4694
  -4736515.82049  -3687649.84145  24082833.6134   24082831.9924
      1589.1414
 04  9  8 22 27 15.0040000  0  7G 3G 8G13G10G27G19G28
   7480963.82348   5827900.37743  24734025.7694   24734025.7854
     -3085.3284
  -4946695.31149  -3847074.35148  22196991.8094   22196990.9104
       282.4844
  12333934.18949   9601549.76147  22646273.1994   22646271.3634
     -3716.7974
   -478607.56845   -369261.94944  24542278.3634   24542277.3834
      -940.4844
   1758022.45949   1368975.70447  21962182.8484   21962181.0904
      -955.9534
  -3131130.10448  -2432526.12946  23756636.5904   23756634.3014
      -608.8594
  -4760319.46049  -3706198.09045  24078304.1214   24078302.4064
      1584.5634
 04  9  8 22 27 30.0040000  0  7G 3G 8G13G10G27G19G28
   7527306.87948   5864011.84343  24742844.4654   24742843.9774
     -3093.6724
  -4950902.75149  -3850352.86148  22196191.3794   22196190.2464
       278.6254
  12389737.16549   9645032.57247  22656892.1444   22656890.7894
     -3723.5944
   -464429.32846   -358213.97744  24544976.0044   24544975.3524
      -950.1724
   1772388.35949   1380169.91847  21964916.7544   21964915.4184
      -959.5164
  -3121928.90749  -2425356.35146  23758387.5984   23758384.5474
      -617.8914
  -4784056.35649  -3724694.32945  24073786.3714   24073785.7114
      1580.3284
 04  9  8 22 27 45.0040000  0  7G 3G 8G13G10G27G19G28
   7573779.27148   5900224.08543  24751687.5194   24751687.5664
     -3102.2344
  -4955047.48749  -3853582.52148  22195402.5274   22195401.6954
       274.4534
  12445646.21649   9688598.06047  22667531.4414   22667529.8984
     -3730.5314
   -450102.55445   -347050.24944  24547702.1134   24547701.6134
      -959.7814
   1786811.61449   1391408.81847  21967661.5274   21967660.0084
      -963.2034
  -3112587.08249  -2418076.99246  23760165.3794   23760162.4534
      -627.2194
  -4807725.58349  -3743137.84845  24069282.8404   24069281.8014
      1575.8754
 04  9  8 22 28  0.0040000  0  7G 3G 8G13G10G27G19G28
   7620378.70348   5936535.32343  24760556.1134   24760555.8364
     -3110.9374
  -4959131.36149  -3856764.76348  22194625.3404   22194624.4694
       270.0634
  12501659.06949   9732244.40947  22678190.4654   22678188.5084
     -3737.7664
   -435629.25546   -335772.38144  24550456.3944   24550455.7274
      -970.0004
   1801290.24549   1402690.86447  21970416.6214   21970414.7814
      -967.2034
  -3103106.53449  -2410689.54446  23761969.4344   23761966.6484
      -636.7504
  -4831329.03449  -3761530.10945  24064791.0514   24064789.9414
      1571.2034
 04  9  8 22 28 15.0040000  0  7G 3G 8G13G10G27G19G28
   7667107.48148   5972947.34443  24769447.6524   24769447.8594
     -3119.7194
  -4963151.99949  -3859897.72048  22193860.4884   22193858.9884
       265.7504
  12557777.91449   9775973.35347  22688869.4344   22688868.0514
     -3744.9374
   -421007.13646   -324378.50344  24553238.1844   24553238.1174
      -979.8124
   1815826.67749   1414017.95047  21973182.8484   21973181.1024
      -971.2194
  -3093484.70849  -2403192.00246  23763800.3714   23763797.8124
      -646.2344
  -4854864.11449  -3779869.10745  24060312.4024   24060311.2584
      1566.6414
 04  9  8 22 28 30.0040000  0  7G 3G 8G13G10G27G19G28
   7713964.14648   6009459.00443  24778364.1374   24778364.5944
     -3128.1094
  -4967110.55349  -3862982.30048  22193107.1914   22193105.9224
       261.7194
  12614001.32449   9819783.78647  22699568.4344   22699566.7504
     -3751.8594
   -406237.52546   -312869.72644  24556049.2384   24556048.9924
      -989.7504
   1830419.75549   1425389.18147  21975959.7774   21975958.2934
      -974.8914
  -3083722.77448  -2395585.29446  23765658.1684   23765655.5084
      -655.6254
  -4878331.97949  -3798155.71645  24055846.7154   24055845.7074
      1562.1254
 04  9  8 22 28 45.0040000  0  7G 3G 8G13G10G27G19G28
   7760948.47148   6046070.15643  24787304.9574   24787305.5944
     -3136.1874
  -4971006.95049  -3866018.44948  22192365.3094   22192364.1914
       258.0004
  12670329.24849   9863675.64947  22710287.1134   22710285.3634
     -3758.3594
   -391320.25046   -301245.89444  24558887.8554   24558886.9884
      -999.1414
   1845069.50349   1436804.56347  21978747.4654   21978746.0394
      -978.2194
  -3073820.52148  -2387869.23346  23767542.2464   23767539.2814
      -664.4694
  -4901732.50949  -3816389.85945  24051393.9804   24051392.8244
      1558.0784
 04  9  8 22 29  0.0040000  0  7G 3G 8G13G10G27G19G28
   7808056.09548   6082777.40343  24796269.5124   24796270.5044
     -3145.0784
  -4974845.28449  -3869009.36248  22191635.2154   22191633.7384
       253.4534
  12726757.44849   9907645.65747  22721025.0984   22721023.4534
     -3765.7664
   -376259.51547   -289510.26344  24561754.2624   24561753.1954
     -1009.3284
   1859771.96349   1448261.03147  21981545.2304   21981543.9144
      -982.4844
  -3063781.85948  -2380046.89346  23769452.0984   23769449.9494
      -674.3284
  -4925069.61449  -3834574.58545  24046952.9184   24046952.2504
      1553.1414
 04  9  8 22 29 15.0040000  0  7G 3G 8G13G10G27G19G28
   7855292.25248   6119584.77243  24805258.2234   24805258.5864
     -3153.4064
  -4978620.01349  -3871950.69747  22190916.9024   22190915.1724
       249.6094
  12783290.91149   9951697.68947  22731783.0354   22731781.6724
     -3772.3444
   -361049.97448   -277658.67344  24564648.5514   24564648.2504
     -1018.7814
   1874532.52649   1459762.76847  21984354.3404   21984352.6914
      -985.8914
  -3053601.37248  -2372114.03746  23771389.5824   23771387.4224
      -683.3914
  -4948337.71949  -3852705.53845  24042524.9024   24042524.0354
      1548.9534
 04  9  8 22 29 30.0040000  0  7G 3G 8G13G10G27G19G28
   7902655.56448   6156491.24843  24814270.4964   24814271.9064
     -3161.7974
  -4982332.22849  -3874843.32448  22190210.3164   22190208.8284
       245.3914
  12839928.51649   9995830.87147  22742560.7234   22742559.0434
     -3779.3284
   -345692.65548   -265691.93044  24567571.0904   24567570.6954
     -1028.7814
   1889350.19549   1471309.00247  21987174.0274   21987172.6174
      -989.8124
  -3043279.94548  -2364071.35146  23773353.4494   23773350.6684
      -692.8124
  -4971537.73849  -3870783.43145  24038110.0744   24038108.9104
      1544.3914
 04  9  8 22 29 45.0040000  0  7G 3G 8G13G10G27G19G28
   7950142.44348   6193493.98243  24823307.3634   24823307.8244
     -3170.0944
  -4985985.20249  -3877689.80148  22189515.1994   22189513.5044
       241.3914
  12896666.65149  10040042.38247  22753357.5664   22753356.0664
     -3786.0624
   -330190.97647   -253612.71644  24570520.8794   24570519.9224
     -1038.4064
   1904221.66349   1482897.14747  21990003.7464   21990002.4574
      -993.3594
  -3032820.98448  -2355921.50846  23775344.3634   23775341.0084
      -702.0784
  -4994673.01549  -3888810.89245  24033707.2774   24033706.2344
      1540.0314
 04  9  8 22 30  0.0040000  0  7G 3G 8G13G10G27G19G28
   7997756.54448   6230595.88443  24832368.7304   24832368.2344
     -3178.4694
  -4989574.75549  -3880486.84948  22188832.2304   22188831.2854
       237.2664
  12953509.13649  10084335.19847  22764174.3714   22764172.7154
     -3792.9374
   -314540.97047   -241417.89144  24573499.1214   24573498.2154
     -1048.1724
   1919150.94049   1494530.36047  21992844.5044   21992843.2274
      -997.1414
  -3022220.24948  -2347661.19046  23777361.0194   23777358.6484
      -711.3914
  -5017739.45949  -3906784.70745  24029317.8244   24029317.2774
      1535.5474
 04  9  8 22 30 15.0040000  0  7G 3G 8G13G10G27G19G28
   8045494.60448   6267794.38143  24841452.8094   24841452.8984
     -3186.8284
  -4993103.80948  -3883236.75847  22188160.6374   22188159.1094
       233.1254
  13010452.60748  10128706.70547  22775010.4574   22775008.8124
     -3799.7664
   -298745.75748   -229109.94944  24576504.7464   24576504.2934
     -1058.0004
   1934134.98749   1506206.22647  21995695.8094   21995694.7464
     -1000.8754
  -3011480.76848  -2339292.75846  23779405.0124   23779402.0044
      -720.7344
  -5040739.98548  -3924707.16945  24024941.0124   24024939.8944
      1530.9694
 04  9  8 22 30 30.0050000  0  7G 3G 8G13G10G27G19G28
   8093361.75448   6305093.45043  24850561.3684   24850562.2634
     -3194.7504
  -4996570.51849  -3885938.08048  22187500.7744   22187499.9074
       229.4064
  13067503.00549  10173161.54047  22785866.9314   22785865.3644
     -3806.1724
   -282802.13448   -216686.33644  24579538.6264   24579538.0564
     -1067.3444
   1949177.04049   1517927.32047  21998558.3214   21998556.7354
     -1004.1724
  -3000599.43448  -2330813.78246  23781475.4314   23781472.5444
      -729.5944
  -5063673.82049  -3942577.65445  24020576.5014   24020576.0914
      1526.9844
 04  9  8 22 30 45.0050000  0  7G 3G 8G13G10G27G19G28
   8141349.00748   6342486.08443  24859693.2904   24859693.4704
     -3203.1414
  -4999976.81149  -3888592.32448  22186852.7284   22186851.6424
       225.1724
  13124650.04149  10217691.68547  22796741.6104   22796739.9074
     -3813.0624
   -266714.77648   -204150.74544  24582599.9784   24582599.0954
     -1077.2194
   1964272.80649   1529690.25047  22001431.0014   22001429.4664
     -1008.1414
  -2989579.96048  -2322227.16746  23783572.4544   23783569.3104
      -739.1874
  -5086540.16949  -3960395.55045  24016225.7124   24016224.8214
      1522.3284
 04  9  8 22 31  0.0050000  0  7G 3G 8G13G10G27G19G28
   8189460.06648   6379975.21944  24868848.4464   24868848.3454
     -3211.9844
  -5003322.29648  -3891199.19848  22186215.9384   22186214.8294
       220.5474
  13181898.18948  10262300.60247  22807635.7284   22807634.0834
     -3820.3754
   -250481.75648   -191501.64344  24585689.2594   24585688.6734
     -1087.5474
   1979424.09949   1541496.44547  22004314.0634   22004313.2944
     -1012.4534
  -2978420.83048  -2313531.74046  23785695.5404   23785692.5874
      -749.0944
  -5109339.67349  -3978161.37245  24011886.8684   24011885.6614
      1517.2344
 04  9  8 22 31 15.0050000  0  7G 3G 8G13G10G27G19G28
   8237698.44848   6417563.55543  24878028.3294   24878028.0364
     -3219.7974
  -5006602.78048  -3893755.41948  22185591.8924   22185590.5244
       216.9064
  13239250.87148  10306990.98747  22818549.5874   22818547.9894
     -3826.6564
   -234099.53849   -178736.26544  24588806.6654   24588805.6854
     -1096.7664
   1994634.65949   1553348.83047  22007208.7044   22007207.2554
     -1015.6724
  -2967118.31748  -2304724.57646  23787846.9934   23787843.9074
      -757.9534
  -5132068.55849  -3995872.14945  24007561.7594   24007561.0324
      1513.2664
 04  9  8 22 31 30.0050000  0  7G 3G 8G13G10G27G19G28
   8286057.44348   6455245.88144  24887230.2744   24887230.2944
     -3227.6724
  -5009824.60149  -3896265.91248  22184978.5404   22184977.1884
       213.0634
  13296701.49049  10351757.68347  22829482.1734   22829480.6424
     -3833.0474
   -217574.40248   -165859.54244  24591950.7434   24591950.2084
     -1106.2344
   2009898.25449   1565242.54247  22010113.4154   22010112.0444
     -1019.0944
  -2955678.61648  -2295810.51346  23790023.7044   23790020.8564
      -766.9224
  -5154732.87349  -4013532.61445  24003248.8994   24003247.7904
      1509.0784
 04  9  8 22 31 45.0050000  0  7G 3G 8G13G10G27G19G28
   8334538.60348   6493023.40943  24896455.8764   24896456.3334
     -3236.0474
  -5012985.94749  -3898729.30048  22184377.0634   22184375.8024
       208.8444
  13354251.76849  10396602.04247  22840433.4074   22840432.0634
     -3839.8594
   -200904.66749   -152870.12144  24595123.2044   24595122.3604
     -1116.0474
   2025216.71049   1577178.99747  22013028.1494   22013026.6494
     -1022.9064
  -2944099.74348  -2286788.01746  23792227.2044   23792224.1384
      -776.4374
  -5177330.80549  -4031141.35545  23998948.2434   23998947.3374
      1504.4064
 04  9  8 22 32  0.0050000  0  7G 3G 8G13G10G27G19G28
   8383145.74848   6530899.06843  24905705.5564   24905705.6144
     -3244.4224
  -5016082.85749  -3901142.48048  22183787.8684   22183786.9854
       204.5314
  13411905.48948  10441526.99047  22851404.3134   22851403.0404
     -3846.7504
   -184086.29549   -139764.90644  24598324.0404   24598323.3494
     -1126.0164
   2040594.02849   1589161.32547  22015954.6734   22015952.7944
     -1026.8284
  -2932377.62848  -2277653.89446  23794457.6814   23794454.9034
      -786.0474
  -5199858.24349  -4048695.17945  23994661.8764   23994660.4154
      1499.6724
 04  9  8 22 32 15.0050000  0  7G 3G 8G13G10G27G19G28
   8431876.98248   6568871.45244  24914979.2744   24914978.8924
     -3252.9694
  -5019116.62949  -3903506.45848  22183210.8684   22183209.1654
       200.0474
  13469660.84148  10486531.13747  22862395.1264   22862393.6964
     -3853.7974
   -167120.89448   -126545.11244  24601552.0484   24601551.4384
     -1136.0624
   2056028.67649   1601188.32247  22018891.6734   22018890.5134
     -1030.9694
  -2920513.74348  -2268409.29446  23796715.2284   23796712.3924
      -795.7194
  -5222316.57849  -4066195.14545  23990387.8924   23990386.9584
      1494.8594
 04  9  8 22 32 30.0050000  0  7G 3G 8G13G10G27G19G28
   8480729.33048   6606938.20344  24924275.0714   24924274.7204
     -3261.0314
  -5022090.04049  -3905823.39448  22182644.8454   22182643.4704
       196.1094
  13527514.91748  10531612.21147  22873404.3994   22873403.3954
     -3860.4064
   -150011.24849   -113212.92144  24604807.7674   24604807.3724
     -1145.5944
   2071518.06249   1613257.96647  22021839.1344   22021838.0134
     -1034.6094
  -2908510.65048  -2259056.23746  23798999.0404   23798996.0914
      -805.0164
  -5244708.40249  -4083643.27245  23986127.3374   23986125.7904
      1490.4064
 04  9  8 22 32 45.0050000  0  7G 3G 8G13G10G27G19G28
   8529705.32448   6645101.31943  24933595.0244   24933594.3954
     -3268.6874
  -5025000.32049  -3908091.13148  22182090.6964   22182089.5484
       192.4844
  13585470.25448  10576772.20747  22884432.9074   22884431.3994
     -3866.5314
   -132754.68549    -99766.23544  24608091.7204   24608091.1734
     -1154.7034
   2087064.99849   1625372.46947  22024797.6494   22024796.0754
     -1037.8124
  -2896365.42848  -2249592.40846  23801310.7904   23801308.0524
      -813.9224
  -5267030.86249  -4101037.35245  23981879.1814   23981877.5714
      1486.5164
 04  9  8 22 33  0.0050000  0  7G 3G 8G13G10G27G19G28
   8578801.92648   6683358.38144  24942938.5244   24942937.5404
     -3276.9374
  -5027850.21149  -3910311.82948  22181548.9154   22181546.9584
       188.1884
  13643523.98049  10622008.85247  22895480.2204   22895478.6574
     -3873.4064
   -115354.03349    -86207.29444  24611403.1964   24611402.5874
     -1164.7344
   2102666.80149   1637529.71647  22027766.6104   22027765.1534
     -1041.7814
  -2884080.94048  -2240020.07246  23803648.4704   23803645.8764
      -823.3914
  -5289286.67149  -4118379.51045  23977643.8994   23977642.4314
      1481.7034
 04  9  8 22 33 15.0050000  0  7G 3G 8G13G10G27G19G28
   8628019.95248   6721710.08644  24952304.0564   24952303.5834
     -3285.0164
  -5030638.50949  -3912484.51748  22181018.0634   22181016.6264
       184.0474
  13701676.89049  10667322.79147  22906546.3684   22906544.5954
     -3879.9534
    -97808.31749    -72535.29844  24614741.8684   24614741.4074
     -1174.3444
   2118324.52549   1649730.55047  22030746.4464   22030744.8924
     -1045.5164
  -2871656.01148  -2230338.30046  23806012.6184   23806010.3334
      -832.8284
  -5311474.66149  -4135668.80445  23973421.6184   23973420.2784
      1477.1414
 04  9  8 22 33 30.0050000  0  7G 3G 8G13G10G27G19G28
   8677359.17148   6760156.22044  24961692.7744   24961692.6534
     -3293.2664
  -5033364.94449  -3914609.01748  22180499.3454   22180497.9114
       179.7344
  13759928.77648  10712713.84147  22917631.0564   22917629.6774
     -3886.7814
    -80117.53849    -58750.28044  24618107.9544   24618107.4354
     -1184.1414
   2134038.12749   1661974.91547  22033736.3994   22033734.8374
     -1049.4224
  -2859090.50748  -2220546.98746  23808403.8294   23808401.4314
      -842.3914
  -5333594.54949  -4152905.05145  23969212.5634   23969210.6654
      1472.3754
 04  9  8 22 33 45.0050000  0  7G 3G 8G13G10G27G19G28
   8726820.60148   6798697.58944  24971104.6734   24971104.7044
     -3301.8914
  -5036028.38949  -3916684.42748  22179992.2594   22179990.5204
       175.0314
  13818280.48048  10758182.69147  22928735.2594   22928734.0714
     -3893.8594
    -62280.52049    -44851.30044  24621502.5484   24621502.0754
     -1194.4694
   2149809.12349   1674263.99747  22036737.8924   22036736.1384
     -1053.6724
  -2846383.16447  -2210645.15646  23810821.6424   23810819.1614
      -852.3444
  -5355645.15949  -4170087.30545  23965016.4784   23965014.3724
      1467.3444
 04  9  8 22 34  0.0050000  0  7G 3G 8G13G10G27G19G28
   8776405.55848   6837335.17944  24980540.3924   24980540.3844
     -3309.3444
  -5038626.94449  -3918709.25648  22179497.8064   22179496.4114
       171.5004
  13876733.56448  10803730.52347  22939858.7904   22939857.0874
     -3899.7974
    -44295.76349    -30837.21444  24624924.6494   24624924.2394
     -1203.4534
   2165639.01349   1686598.98347  22039749.6654   22039748.2474
     -1056.8754
  -2833532.21948  -2200631.42246  23813267.2434   23813264.4584
      -861.1254
  -5377624.69749  -4187214.17945  23960834.0014   23960832.4154
      1463.3594
 04  9  8 22 34 15.0050000  0  7G 3G 8G13G10G27G19G28
   8826109.14348   6876065.25744  24989999.2904   24989999.4194
     -3317.6874
  -5041165.36449  -3920687.23948  22179014.7984   22179013.7474
       167.0164
  13935283.18649  10849353.59347  22951000.2984   22950998.8764
     -3906.6564
    -26167.99549    -16711.67344  24628374.3604   24628373.8724
     -1213.4534
   2181523.30549   1698976.34847  22042772.5324   22042771.0634
     -1060.9694
  -2820542.18748  -2190509.31546  23815739.5244   23815736.2044
      -870.8444
  -5399537.65149  -4204289.17946  23956664.1184   23956662.3804
      1458.4844
 04  9  8 22 34 30.0050000  0  7G 3G 8G13G10G27G19G28
   8875932.25748   6914888.44344  24999479.0714   24999480.4814
     -3325.6874
  -5043642.44849  -3922617.42548  22178543.3844   22178542.0134
       162.8914
  13993930.31249  10895052.63546  22962160.5564   22962159.0874
     -3913.2974
     -7896.05748     -2473.79844  24631851.4854   24631850.7824
     -1223.1564
   2197463.14349   1711396.99947  22045805.8214   22045804.4584
     -1064.6874
  -2807411.90348  -2180277.90446  23818237.7124   23818235.0204
      -880.2344
  -5421382.69349  -4221311.23845  23952506.9704   23952505.5714
      1453.8444
 04  9  8 22 34 45.0050000  0  7G 3G 8G13G10G27G19G28
   8925876.20848   6953805.76844  25008983.3534   25008984.8024
     -3333.5314
  -5046056.79549  -3924498.73148  22178083.9234   22178082.7124
       158.9384
  14052676.22848  10940828.64847  22973339.6494   22973337.7944
     -3919.6414
     10521.50948     11877.55044  24635356.3994   24635355.4584
     -1232.6094
   2213460.18049   1723862.21647  22048849.8924   22048848.5794
     -1068.3284
  -2794139.67648  -2169935.90646  23820763.5174   23820760.5244
      -889.4374
  -5443158.29349  -4238279.20946  23948362.7204   23948361.8294
      1449.4694
 04  9  8 22 35  0.0050000  0  7G 3G 8G13G10G27G19G28
   8975939.14148   6992815.83244  25018510.2204   25018510.9894
     -3341.7504
  -5048409.61849  -3926332.09248  22177636.0874   22177635.2314
       154.4534
  14111519.25249  10986680.32947  22984536.9384   22984535.5054
     -3926.4694
     29083.09048     26341.12244  24638888.5874   24638887.8564
     -1242.5314
   2229512.88149   1736370.82247  22051904.9464   22051903.1814
     -1072.4064
  -2780726.93748  -2159484.40046  23823315.4234   23823312.6774
      -899.2664
  -5464865.75349  -4255194.08046  23944231.9854   23944231.0714
      1444.5004
 04  9  8 22 35 15.0050000  0  7G 3G 8G13G10G27G19G28
   9026126.95748   7031923.23743  25028060.7904   25028061.6304
     -3349.6564
  -5050694.71749  -3928112.67948  22177201.1884   22177199.7354
       150.3594
  14170465.33549  11032612.34147  22995754.0954   22995752.4624
     -3932.8594
     47794.81548     40921.68744  24642449.1654   24642448.8564
     -1252.1724
   2245627.46149   1748927.64847  22054971.2354   22054969.3374
     -1076.1254
  -2767167.49748  -2148918.59446  23825896.1884   23825892.9974
      -908.5474
  -5486498.93049  -4272051.06946  23940115.5014   23940114.2354
      1440.0314
 04  9  8 22 35 30.0050000  0  7G 3G 8G13G10G27G19G28
   9076430.96148   7071121.14643  25037633.2984   25037633.9274
     -3357.4694
  -5052920.50149  -3929847.04848  22176777.4544   22176776.5404
       146.3914
  14229505.83549  11078617.90047  23006989.5324   23006987.6344
     -3939.1564
     66648.22348     55612.65244  24646036.6964   24646035.7164
     -1261.6564
   2261795.54949   1761526.15047  22058048.1104   22058046.2514
     -1079.7344
  -2753469.60348  -2138244.90346  23828502.6104   23828499.4354
      -917.8284
  -5508066.14949  -4288856.65245  23936011.2044   23936010.4704
      1435.5784
 04  9  8 22 35 45.0050000  0  7G 3G 8G13G10G27G19G28
   9126854.45248   7110412.14443  25047228.3134   25047229.2244
     -3365.4844
  -5055083.14949  -3931532.23048  22176366.1814   22176365.5714
       142.0944
  14288644.05049  11124699.60047  23018242.5484   23018241.0284
     -3945.7344
     85646.86648     70416.79044  24649652.6184   24649651.1494
     -1271.3914
   2278020.89549   1774169.27247  22061135.6654   22061133.8214
     -1083.5004
  -2739629.64448  -2127460.50646  23831136.5244   23831133.7904
      -927.3594
  -5529563.59349  -4305607.89545  23931920.5484   23931919.5134
      1430.9064
 04  9  8 22 36  0.0050000  0  7G 3G 8G13G10G27G19G28
   9177394.01648   7149793.59043  25056845.5324   25056846.4274
     -3373.3284
  -5057185.81749  -3933170.66448  22175966.0714   22175964.9974
       138.0314
  14347876.58449  11170854.79646  23029514.3994   23029513.0324
     -3952.0784
    104787.50748     85331.56144  24653294.9544   24653293.9894
     -1280.8754
   2294300.35949   1786854.56247  22064233.4234   22064231.5754
     -1087.1564
  -2725650.77848  -2116567.89546  23833796.8064   23833793.4464
      -936.6564
  -5550994.28349  -4322307.10645  23927842.4854   23927841.1574
      1426.3444
 04  9  8 22 36 15.0050000  0  7G 3G 8G13G10G27G19G28
   9228052.51348   7189267.74043  25066486.0094   25066486.6064
     -3381.3594
  -5059225.39449  -3934759.94148  22175577.7674   22175576.6494
       133.6884
  14407206.38349  11217085.77446  23040804.3604   23040802.7314
     -3958.6874
    124073.08548    100359.28844  24656964.3994   24656963.8684
     -1290.6564
   2310637.03549   1799584.44047  22067342.2594   22067340.4154
     -1091.1724
  -2711529.77348  -2105564.48946  23836484.1654   23836480.3954
      -946.3594
  -5572355.15649  -4338951.91146  23923777.4464   23923776.2284
      1421.5314
 04  9  8 22 36 30.0050000  0  7G 3G 8G13G10G27G19G28
   9278826.67948   7228832.00043  25076147.9784   25076148.9704
     -3389.1414
  -5061204.82349  -3936302.35148  22175201.2984   22175200.1534
       129.6564
  14466630.22249  11263390.03447  23052112.9384   23052111.0714
     -3965.0474
    143500.43948    115497.48744  24660661.1264   24660661.2554
     -1300.1254
   2327027.93049   1812356.56947  22070461.3214   22070459.3134
     -1094.8444
  -2697269.62048  -2094452.68346  23839197.3844   23839194.5994
      -955.6414
  -5593649.09549  -4355544.56846  23919725.4934   23919724.2084
      1417.0784
 04  9  8 22 36 45.0050000  0  7G 3G 8G13G10G27G19G28
   9329720.31948   7268489.36943  25085832.7984   25085833.5674
     -3397.1414
  -5063119.81449  -3937794.54748  22174836.7904   22174835.5484
       125.3754
  14526152.02349  11309770.63446  23063439.0014   23063437.1814
     -3971.5474
    163073.79648    130749.44744  24664385.8294   24664385.7164
     -1309.8754
   2343477.35249   1825174.30047  22073591.5564   22073589.7314
     -1098.7194
  -2682866.04848  -2083229.10446  23841938.2514   23841935.4464
      -965.1564
  -5614871.78349  -4372081.69245  23915686.8604   23915685.8724
      1412.3444
 04  9  8 22 37  0.0050000  0  7G 3G 8G13G10G27G19G28
   9380734.10248   7308240.34643  25095540.3684   25095541.3994
     -3404.6564
  -5064969.28949  -3939235.68748  22174484.8294   22174483.8884
       121.4064
  14585772.46949  11356228.08447  23074784.2744   23074782.9384
     -3977.6874
    182793.92048    146115.76744  24668138.1964   24668138.0634
     -1319.2504
   2359986.24849   1838038.37447  22076732.9234   22076731.2704
     -1102.2664
  -2668317.96948  -2071892.94746  23844706.4544   23844703.3534
      -974.5164
  -5636022.12349  -4388562.45445  23911661.8134   23911660.7204
      1407.8594
 04  9  8 22 37 15.0050000  0  7G 3G 8G13G10G27G19G28
   9431865.22848   7348082.76443  25105270.0714   25105271.2634
     -3412.8284
  -5066755.89249  -3940627.84848  22174144.9624   22174143.5634
       116.7504
  14645488.82149  11402760.28246  23086147.9854   23086146.8644
     -3984.5474
    202657.94248    161594.22144  24671918.8684   24671918.2124
     -1329.2974
   2376552.09649   1850946.82547  22079885.1654   22079883.6454
     -1106.5474
  -2653628.08648  -2060446.27746  23847502.1884   23847498.9424
      -984.2344
  -5657102.69949  -4404988.84545  23907650.3214   23907649.1534
      1402.8594
 04  9  8 22 37 30.0050000  0  7G 3G 8G13G10G27G19G28
   9483112.17648   7388015.44543  25115022.1654   25115023.1774
     -3419.7974
  -5068480.90949  -3941972.00748  22173816.6884   22173815.2284
       113.4694
  14705299.57249  11449366.04046  23097529.3924   23097527.9504
     -3989.9694
    222664.68048    177183.89344  24675725.1964   24675725.4894
     -1338.0624
   2393173.63249   1863898.67347  22083047.9314   22083046.8214
     -1109.4694
  -2638797.63548  -2048890.06246  23850324.1344   23850321.3414
      -992.9064
  -5678114.64549  -4421361.75246  23903652.1574   23903650.8104
      1399.0164
 04  9  8 22 37 45.0050000  0  7G 3G 8G13G10G27G19G28
   9534473.76748   7428037.43843  25124795.9384   25124796.4814
     -3427.9064
  -5070145.11949  -3943268.78448  22173499.9854   22173498.4074
       108.8914
  14765203.57949  11496044.46246  23108928.9704   23108927.4544
     -3996.7974
    242813.21348    192884.03544  24679559.5324   24679558.9274
     -1347.9844
   2409850.00649   1876893.24347  22086221.8294   22086219.9074
     -1113.6254
  -2623827.37149  -2037224.93446  23853172.8764   23853169.7244
     -1002.7664
  -5699058.77149  -4437681.82046  23899666.6034   23899665.1854
      1394.0164
 04  9  8 22 38  0.0050000  0  7G 3G 8G13G10G27G19G28
   9585947.87348   7468147.11543  25134591.3844   25134591.6184
     -3435.2504
  -5071750.29249  -3944519.56648  22173194.4464   22173193.2554
       105.2664
  14825198.79349  11542793.95346  23120345.7124   23120344.7514
     -4002.5004
    263101.59448    208693.16944  24683419.9234   24683419.7594
     -1357.0314
   2426579.49149   1889929.21147  22089405.2824   22089403.6144
     -1116.9534
  -2608718.97249  -2025452.13746  23856048.0404   23856044.7554
     -1011.6414
  -5719936.70949  -4453950.30546  23895693.5094   23895692.1494
      1389.8134
 04  9  8 22 38 15.0050000  0  7G 3G 8G13G10G27G19G28
   9637539.96348   7508348.72243  25144409.3454   25144408.8844
     -3443.3594
  -5073290.45149  -3945719.68148  22172901.4854   22172900.4074
       100.4694
  14885290.71149  11589618.81147  23131780.9624   23131779.7594
     -4009.3754
    283535.54847    224615.71844  24687308.8374   24687308.8684
     -1367.0944
   2443367.93449   1903011.11247  22092599.8924   22092598.4624
     -1121.2344
  -2593466.59948  -2013567.17246  23858950.5484   23858947.3924
     -1021.7034
  -5740742.69149  -4470162.73046  23891734.4074   23891733.1224
      1384.6254
 04  9  8 22 38 30.0050000  0  7G 3G 8G13G10G27G19G28
   9689247.21048   7548640.07043  25154247.9784   25154249.4744
     -3451.0944
  -5074768.06249  -3946871.07048  22172620.2744   22172619.1964
        96.3284
  14945476.61749  11636516.89047  23143234.3214   23143232.6344
     -4015.6414
    304112.25647    240649.50044  24691224.2354   24691224.2204
     -1376.6094
   2460212.76549   1916136.94647  22095805.6734   22095803.5604
     -1124.9694
  -2578072.95748  -2001572.13146  23861879.2594   23861875.9354
     -1031.0784
  -5761479.17849  -4486321.00646  23887788.2674   23887786.9784
      1379.9844
 04  9  8 22 38 45.0050000  0  7G 3G 8G13G10G27G19G28
   9741070.01148   7589021.45343  25164110.3994   25164110.6264
     -3458.7814
  -5076182.64049  -3947973.33348  22172351.2434   22172350.0914
        92.0634
  15005757.01649  11683488.61347  23154705.1734   23154703.6144
     -4021.9064
    324832.45548    256795.09244  24695167.4314   24695166.9894
     -1386.2664
   2477114.69749   1929307.29047  22099021.6034   22099020.3024
     -1128.8444
  -2562537.20648  -1989466.35246  23864836.1034   23864832.4894
     -1040.5004
  -5782145.40449  -4502424.53046  23883855.6734   23883854.0604
      1375.2814
 04  9  8 22 39  0.0050000  0  7G 3G 8G13G10G27G19G28
   9793010.24048   7629494.35443  25173994.1654   25173994.4814
     -3466.4224
  -5077531.88949  -3949024.69948  22172094.1884   22172092.8254
        88.0004
  15066133.76349  11730535.40746  23166194.2354   23166192.8374
     -4028.0474
    345698.21247    273054.11344  24699138.3064   24699137.9664
     -1395.6414
   2494076.03949   1942523.91347  22102249.4464   22102247.7394
     -1132.5314
  -2546857.06448  -1977248.05746  23867819.9784   23867816.5634
     -1049.8754
  -5802738.98849  -4518471.44745  23879936.6964   23879935.2784
      1370.7504
 04  9  8 22 39 15.0050000  0  7G 3G 8G13G10G27G19G28
   9845061.31348   7670053.60543  25183899.0954   25183899.2554
     -3473.9064
  -5078821.92149  -3950029.91748  22171848.8844   22171847.3724
        83.9534
  15126600.28149  11777652.15646  23177700.5014   23177699.3024
     -4034.1724
    366703.07147    289421.52344  24703135.4854   24703134.6614
     -1405.0004
   2511090.54849   1955781.97847  22105487.1424   22105485.6534
     -1136.1414
  -2531038.81448  -1964922.14546  23870829.8684   23870826.9854
     -1059.2504
  -5823266.08749  -4534466.55246  23876030.0794   23876029.3414
      1366.1254
 04  9  8 22 39 30.0050000  0  7G 3G 8G13G10G27G19G28
   9897228.43448   7710703.31043  25193826.2434   25193826.7514
     -3481.4694
  -5080047.10949  -3950984.60648  22171615.4154   22171614.4074
        79.7344
  15187161.86549  11824842.97846  23189225.0794   23189223.6854
     -4040.5004
    387852.43247    305901.54044  24707159.9854   24707159.3414
     -1414.6414
   2528163.79349   1969085.80047  22108736.1734   22108734.4544
     -1139.9534
  -2515076.89648  -1952484.28346  23873866.8684   23873864.4704
     -1068.7344
  -5843721.20349  -4550405.57146  23872138.0324   23872136.6184
      1361.4384
 04  9  8 22 39 45.0050000  0  7G 3G 8G13G10G27G19G28
   9949513.63248   7751444.99143  25203775.1654   25203776.2864
     -3489.2344
  -5081205.07849  -3951886.92248  22171395.3604   22171394.0914
        75.3444
  15247820.64149  11872109.52146  23200768.3764   23200766.9074
     -4046.7504
    409148.52748    322495.88144  24711212.3534   24711211.6184
     -1424.1414
   2545298.07149   1982437.18047  22111996.5094   22111995.0094
     -1143.9224
  -2498968.96548  -1939932.64546  23876932.4384   23876929.3104
     -1078.3124
  -5864101.89549  -4566286.60646  23868259.5324   23868258.6814
      1356.6414
 04  9  8 22 40  0.0050000  0  7G 3G 8G13G10G27G19G28
  10001913.21248   7792275.83643  25213746.7434   25213747.5324
     -3496.9224
  -5082299.08949  -3952739.39448  22171187.0324   22171185.5524
        71.0004
  15308572.98349  11919448.98946  23212329.3924   23212327.5794
     -4053.0944
    430587.76547    339201.76744  24715291.8534   24715291.5484
     -1433.9224
   2562490.00049   1995833.49447  22115268.0794   22115266.5874
     -1147.8594
  -2482718.36548  -1927269.83846  23880024.9384   23880021.4384
     -1088.0004
  -5884411.44849  -4582112.20546  23864394.9704   23864393.3564
      1351.8134
 04  9  8 22 40 15.0050000  0  7G 3G 8G13G10G27G19G28
  10054427.75248   7833196.21243  25223740.6424   25223740.8534
     -3504.9844
  -5083328.48049  -3953541.51348  22170991.0324   22170989.7744
        66.3134
  15369419.55848  11966861.87246  23223907.8844   23223906.3414
     -4059.7504
    452170.92747    356019.80744  24719398.4314   24719398.4784
     -1443.9064
   2579740.51249   2009275.45047  22118550.7044   22118549.2004
     -1152.1254
  -2466324.25248  -1914495.20646  23883144.5484   23883141.3564
     -1097.9374
  -5904649.02949  -4597881.71146  23860543.9544   23860542.1534
      1346.6414
 04  9  8 22 40 30.0050000  0  7G 3G 8G13G10G27G19G28
  10107054.06248   7874203.73843  25233754.9784   25233755.1384
     -3512.3444
  -5084296.04749  -3954295.46048  22170807.1184   22170806.1424
        62.1724
  15430357.09149  12014345.63446  23235503.7514   23235502.3134
     -4065.7974
    473895.05047    372947.68744  24723532.9074   24723532.4934
     -1453.2194
   2597046.87049   2022760.91847  22121844.0244   22121842.5404
     -1155.8914
  -2449789.44548  -1901610.93446  23886291.1964   23886288.3214
     -1107.2814
  -5924817.24149  -4613597.18146  23856706.0174   23856704.6694
      1341.9384
 04  9  8 22 40 45.0050000  0  7G 3G 8G13G10G27G19G28
  10159789.71948   7915296.42743  25243790.2594   25243790.5054
     -3519.1094
  -5085203.88149  -3955002.86048  22170634.6424   22170633.1304
        58.7034
  15491383.31949  12061898.51746  23247116.9074   23247115.0714
     -4071.1564
    495757.82247    389983.59144  24727693.4154   24727693.1034
     -1461.9374
   2614406.83849   2036288.16947  22125147.4934   22125145.8494
     -1158.8444
  -2433116.04548  -1888618.67346  23889463.8534   23889461.3174
     -1116.0164
  -5944918.30749  -4629260.31345  23852880.7354   23852879.0484
      1338.0474
 04  9  8 22 41  0.0050000  0  7G 3G 8G13G10G27G19G28
  10212634.24448   7956473.97543  25253846.2594   25253846.1304
     -3526.8124
  -5086051.94949  -3955663.68448  22170472.6654   22170472.1344
        54.4384
  15552497.84448  12109520.20946  23258746.5564   23258745.2434
     -4077.3754
    517759.14047    407127.45744  24731880.1264   24731879.8644
     -1471.6094
   2631820.40349   2049857.18447  22128461.4154   22128459.7084
     -1162.8914
  -2416304.13648  -1875518.48046  23892663.2514   23892659.8604
     -1125.5944
  -5964952.26349  -4644871.17646  23849068.1104   23849066.8644
      1333.1884
 04  9  8 22 41 15.0050000  0  7G 3G 8G13G10G27G19G28
  10265593.35647   7997740.78243  25263924.1654   25263923.9584
     -3534.2344
  -5086834.09049  -3956273.15348  22170324.1264   22170323.3134
        50.1254
  15613706.35048  12157215.13146  23270394.3534   23270392.9974
     -4083.5624
    539904.81547    424383.83144  24736094.2594   24736093.8494
     -1480.9844
   2649293.65849   2063472.71147  22131786.2594   22131784.6384
     -1166.6414
  -2399347.68148  -1862305.65446  23895889.9234   23895886.9274
     -1135.0474
  -5984913.01049  -4660424.97746  23845270.1814   23845268.4664
      1328.4384
 04  9  8 22 41 30.0050000  0  7G 3G 8G13G10G27G19G28
  10318665.73547   8039095.86443  25274023.3214   25274023.6104
     -3541.9374
  -5087551.28349  -3956831.99448  22170187.5794   22170186.3294
        45.6564
  15675007.60249  12204982.29546  23282059.3604   23282057.8804
     -4089.8444
    562193.57248    441751.68244  24740335.0014   24740335.3294
     -1490.7814
   2666825.44949   2077133.83347  22135122.7354   22135121.0404
     -1170.7974
  -2382247.77348  -1848981.05146  23899144.1184   23899140.7164
     -1144.7814
  -6004801.51049  -4675922.47946  23841485.0404   23841483.8604
      1323.4694
 04  9  8 22 41 45.0050000  0  7G 3G 8G13G10G27G19G28
  10371851.72248   8080539.50643  25284144.0174   25284144.3954
     -3549.5624
  -5088203.00649  -3957339.81448  22170063.5634   22170062.5914
        41.2504
  15736402.00249  12252822.06746  23293742.6884   23293741.3214
     -4096.0784
    584625.88248    459231.39144  24744604.4544   24744604.3494
     -1500.2194
   2684416.49549   2090841.15147  22138470.0324   22138468.5674
     -1174.7194
  -2365003.72948  -1835544.12046  23902425.1964   23902422.1424
     -1154.3594
  -6024617.09449  -4691363.16146  23837714.3064   23837712.7084
      1318.5944
 04  9  8 22 42  0.0050000  0  7G 3G 8G13G10G27G19G28
  10425141.43848   8122063.94143  25294285.2124   25294285.7594
     -3556.4374
  -5088798.69649  -3957804.00148  22169950.1964   22169948.9194
        37.5164
  15797879.69849  12300726.73846  23305441.4704   23305439.8454
     -4101.6564
    607192.22548    476815.53844  24748898.6654   24748898.3764
     -1509.1874
   2702057.38749   2104587.29847  22141827.1104   22141825.5954
     -1178.0944
  -2347625.01848  -1822002.26646  23905732.2514   23905729.1384
     -1163.3754
  -6044369.07749  -4706754.30146  23833955.6034   23833954.1534
      1314.2974
 04  9  8 22 42 15.0050000  0  7G 3G 8G13G10G27G19G28
  10478546.66848   8163678.39043  25304448.0874   25304448.1104
     -3564.4694
  -5089326.33749  -3958215.14548  22169849.8994   22169848.8024
        32.6254
  15859452.50549  12348705.51946  23317158.3374   23317156.8064
     -4108.3124
    629904.51448    494513.40644  24753220.2284   24753220.0714
     -1519.2664
   2719760.14849   2118381.65247  22145195.7124   22145194.5054
     -1182.5474
  -2330099.60048  -1808346.09546  23909067.1574   23909063.7944
     -1173.4844
  -6064045.46349  -4722086.53146  23830211.1964   23830209.4784
      1309.0164
 04  9  8 22 42 30.0050000  0  7G 3G 8G13G10G27G19G28
  10532064.43348   8205380.51543  25314631.7514   25314632.4154
     -3571.3594
  -5089788.46349  -3958575.24148  22169761.9784   22169760.4504
        28.9064
  15921117.38849  12396756.06646  23328892.6574   23328891.0794
     -4113.7814
    652759.79248    512322.71044  24757569.9464   24757569.7124
     -1528.1414
   2737522.12149   2132222.15747  22148575.6264   22148574.0604
     -1185.8444
  -2312430.26949  -1794577.78546  23912429.6034   23912426.9544
     -1182.4534
  -6083648.72849  -4737361.77345  23826481.0174   23826479.4114
      1304.7194
 04  9  8 22 42 45.0050000  0  7G 3G 8G13G10G27G19G28
  10585693.69648   8247169.53043  25324836.9854   25324837.6574
     -3578.9064
  -5090185.64249  -3958884.73048  22169686.0244   22169685.3724
        24.3914
  15982873.57549  12444877.74346  23340644.3994   23340642.8644
     -4120.0004
    675757.27448    530242.81444  24761946.6654   24761946.0204
     -1537.8124
   2755342.67049   2146108.29847  22151966.8924   22151965.3104
     -1189.9064
  -2294617.58549  -1780697.77646  23915819.4784   23915816.4854
     -1192.2034
  -6103179.61949  -4752580.63746  23822764.4154   23822763.0444
      1299.8134
 04  9  8 22 43  0.0050000  0  7G 3G 8G13G10G27G19G28
  10639438.04548   8289048.22043  25335064.6494   25335064.6654
     -3585.9534
  -5090513.89549  -3959140.50048  22169623.9384   22169623.0014
        20.3754
  16044724.60349  12493073.32346  23352414.5324   23352412.9074
     -4125.7034
    698900.72448    548276.66744  24766350.2984   24766349.8134
     -1546.9224
   2773225.62849   2160043.08347  22155369.7594   22155368.3994
     -1193.4534
  -2276657.71749  -1766703.05146  23919237.3064   23919234.0364
     -1201.3754
  -6122634.10949  -4767739.95045  23819062.1574   23819060.9114
      1295.2504
 04  9  8 22 43 15.0050000  0  7G 3G 8G13G10G27G19G28
  10693291.74448   8331012.13943  25345312.7514   25345312.2704
     -3594.1094
  -5090778.76349  -3959346.88848  22169573.5244   22169571.9354
        15.2974
  16106664.85948  12541338.43846  23364201.0094   23364200.3024
     -4132.5474
    722184.55848    566419.90044  24770781.3454   24770780.5284
     -1557.1724
   2791165.78149   2174022.41047  22158783.8764   22158782.3024
     -1198.1254
  -2258555.98249  -1752597.80346  23922681.7674   23922678.5134
     -1211.7664
  -6142017.49649  -4782843.87146  23815373.4234   23815372.2784
      1289.5164
 04  9  8 22 43 30.0050000  0  7G 3G 8G13G10G27G19G28
  10747257.85048   8373063.63443  25355581.7984   25355581.9934
     -3601.0944
  -5090976.68849  -3959501.11048  22169535.8294   22169534.3104
        11.3284
  16168697.42348  12589675.47446  23376005.2904   23376004.3134
     -4138.2194
    745612.04648    584675.08044  24775238.9934   24775238.8334
     -1566.1724
   2809166.54049   2188048.97047  22162208.7674   22162207.2594
     -1201.7194
  -2240308.94249  -1738379.33146  23926153.9544   23926151.2634
     -1220.8594
  -6161326.29549  -4797889.65746  23811699.2744   23811698.2004
      1285.1254
 04  9  8 22 43 45.0050000  0  7G 3G 8G13G10G27G19G28
  10801330.98547   8415198.54343  25365871.5794   25365872.1454
     -3608.8754
  -5091112.84349  -3959607.20148  22169509.6964   22169508.7204
         6.5944
  16230817.05448  12638080.35946  23387826.4784   23387825.5674
     -4144.6094
    769178.03848    603038.18745  24779723.7204   24779723.1064
     -1576.1874
   2827222.77149   2202118.76647  22165645.1264   22165643.4464
     -1206.0314
  -2221921.67749  -1724051.57946  23929652.8924   23929649.9234
     -1230.9844
  -6180565.66149  -4812881.35846  23808038.3764   23808036.5054
      1279.8754
 04  9  8 22 44  0.0050000  0  7G 3G 8G13G10G27G19G28
  10855515.12747   8457419.93943  25376182.6264   25376183.3494
     -3616.0944
  -5091182.93749  -3959661.82648  22169496.5404   22169495.0834
         2.3754
  16293027.62649  12686556.11246  23399664.7594   23399663.6224
     -4150.5624
    792886.51848    621512.31645  24784235.2904   24784235.0634
     -1585.4224
   2845338.84549   2216235.18947  22169092.5244   22169090.7944
     -1209.8444
  -2203389.98349  -1709611.29646  23933179.5634   23933176.5244
     -1240.3284
  -6199731.14649  -4827815.47546  23804391.0714   23804389.1144
      1275.1254
 04  9  8 22 44 15.0050000  0  7G 3G 8G13G10G27G19G28
  10909806.27247   8499724.72443  25386513.8764   25386513.8764
     -3622.6874
  -5091190.26149  -3959667.51548  22169495.0404   22169493.9424
        -1.2974
  16355325.57848  12735099.95146  23411519.8684   23411518.2204
     -4155.8444
    816733.95148    640094.72345  24788773.7434   24788772.9154
     -1594.1094
   2863511.28549   2230395.53347  22172550.6494   22172548.6264
     -1213.1724
  -2184717.32049  -1695061.15446  23936732.5874   23936729.9854
     -1249.2504
  -6218826.26849  -4842694.76746  23800757.3214   23800755.9194
      1270.9534
 04  9  8 22 44 30.0050000  0  7G 3G 8G13G10G27G19G28
  10964207.12848   8542114.96543  25396865.6034   25396866.2554
     -3630.3444
  -5091131.77949  -3959621.94648  22169506.2044   22169504.9664
        -5.9844
  16417713.45148  12783713.84946  23423391.6734   23423390.2554
     -4162.1564
    840723.12648    658787.56245  24793338.4784   24793337.8994
     -1603.9374
   2881743.04349   2244602.08947  22176019.9314   22176018.2704
     -1217.3914
  -2165900.85149  -1680398.97346  23940313.3604   23940310.7044
     -1259.1874
  -6237847.95049  -4857516.84146  23797137.5954   23797135.8724
      1265.7344
 04  9  8 22 44 45.0050000  0  7G 3G 8G13G10G27G19G28
  11018721.36247   8584593.59243  25407239.4854   25407240.3254
     -3638.3284
  -5091003.44149  -3959521.94648  22169530.5174   22169529.3134
       -11.1414
  16480194.84048  12832400.63246  23435281.5874   23435279.9464
     -4168.8284
    864857.84648    677593.83645  24797930.9624   24797930.7904
     -1614.0944
   2900038.11749   2258857.98247  22179501.5014   22179499.5134
     -1222.0314
  -2146936.61949  -1665621.64746  23943922.1184   23943919.3414
     -1269.5004
  -6256792.25849  -4872278.62346  23793532.6344   23793530.8334
      1260.1414
 04  9  8 22 45  0.0050000  0  7G 3G 8G13G10G27G19G28
  11073342.17647   8627155.27343  25417633.6654   25417634.3604
     -3645.2344
  -5090811.94649  -3959372.71848  22169567.2594   22169566.0754
       -15.2034
  16542763.03848  12881155.06446  23447188.0714   23447186.7824
     -4174.4064
    889131.41248    696508.30545  24802550.3134   24802549.4704
     -1623.1874
   2918390.03649   2273158.18147  22182993.6964   22182991.9274
     -1225.6724
  -2127831.00549  -1650734.15546  23947557.8134   23947554.8454
     -1278.7344
  -6275665.50849  -4886985.02046  23789941.5094   23789939.5484
      1255.5944
 04  9  8 22 45 15.0050000  0  7G 3G 8G13G10G27G19G28
  11128067.87548   8669798.64643  25428047.4544   25428047.5564
     -3651.8124
  -5090558.50749  -3959175.23148  22169615.1884   22169614.1034
       -18.9534
  16605416.53248  12929975.93646  23459110.6344   23459109.3684
     -4179.7034
    913542.32348    715529.78845  24807195.6184   24807194.2634
     -1631.9844
   2936797.47849   2287501.63947  22186496.6264   22186494.8954
     -1228.9694
  -2108585.50949  -1635737.66046  23951220.2744   23951217.0054
     -1287.6724
  -6294469.07349  -4901637.12546  23786362.9234   23786361.3724
      1251.3134
 04  9  8 22 45 30.0050000  0  7G 3G 8G13G10G27G19G28
  11182900.54947   8712525.38643  25438481.6814   25438481.9154
     -3659.3284
  -5090240.70649  -3958927.59048  22169675.6104   22169674.6454
       -23.6094
  16668157.22948  12978864.76646  23471049.9074   23471048.6534
     -4185.8284
    938092.71348    734659.95545  24811867.1184   24811866.4504
     -1641.5944
   2955262.85148   2301890.23247  22190010.1424   22190008.4814
     -1233.2034
  -2089197.71649  -1620630.28946  23954909.1264   23954906.3254
     -1297.5164
  -6313200.61649  -4916233.10646  23782798.5954   23782796.3764
      1246.0784
 04  9  8 22 45 45.0050000  0  7G 3G 8G13G10G27G19G28
  11237844.12547   8755338.55743  25448937.0714   25448937.3334
     -3666.5164
  -5089854.21749  -3958626.43648  22169749.1654   22169748.3334
       -27.9224
  16730989.15349  13027824.66646  23483006.2744   23483005.0244
     -4191.7974
    962786.84749    753902.11845  24816566.4544   24816565.4704
     -1651.0004
   2973790.46449   2316327.33547  22193536.0094   22193534.2204
     -1237.2034
  -2069663.33449  -1605408.69546  23958626.6654   23958623.7164
     -1307.1094
  -6331855.66349  -4930769.49746  23779248.6344   23779246.7354
      1241.1884
 04  9  8 22 46  0.0050000  0  7G 3G 8G13G10G27G19G28
  11292894.66047   8798235.05343  25459412.9544   25459412.7674
     -3673.6724
  -5089402.33049  -3958274.30548  22169835.6264   22169834.0994
       -32.3444
  16793908.57849  13076852.77346  23494979.6494   23494978.5604
     -4197.5944
    987620.82648    773253.26745  24821292.1734   24821291.2514
     -1660.2814
   2992376.78449   2330810.18847  22197073.0874   22197071.1494
     -1241.0944
  -2049985.97249  -1590075.67746  23962371.1104   23962368.1734
     -1316.6254
  -6350437.71849  -4945248.98746  23775712.5954   23775710.9074
      1236.3754
 04  9  8 22 46 15.0050000  0  7G 3G 8G13G10G27G19G28
  11348052.96348   8841215.50443  25469909.9154   25469909.3804
     -3680.3594
  -5088884.12849  -3957870.51648  22169934.0714   22169933.4624
       -36.2504
  16856916.40848  13125949.75846  23506969.3994   23506968.5634
     -4202.9844
   1012595.70649    792714.20645  24826044.8064   24826044.1814
     -1669.2974
   3011023.12349   2345339.80247  22200621.3924   22200619.3534
     -1244.5944
  -2030164.51848  -1574630.38846  23966143.2044   23966139.7474
     -1325.7664
  -6368945.56849  -4959670.66346  23772190.5954   23772189.0794
      1231.8444
 04  9  8 22 46 30.0050000  0  7G 3G 8G13G10G27G19G28
  11403314.25447   8884276.25443  25480425.1034   25480425.4814
     -3687.5164
  -5088303.90049  -3957418.38048  22170044.4234   22170043.3534
       -40.6874
  16920007.86449  13175111.89246  23518975.4464   23518974.8994
     -4208.8594
   1037706.80749    812281.29845  24830823.0564   24830822.6814
     -1678.5164
   3029724.76149   2359912.51247  22204180.1884   22204178.5794
     -1248.5624
  -2010203.45648  -1559076.31246  23969941.0954   23969938.7704
     -1335.3124
  -6387383.63849  -4974037.96346  23768681.8294   23768679.9814
      1226.9064
 04  9  8 22 46 45.0050000  0  7G 3G 8G13G10G27G19G28
  11458684.69847   8927422.06943  25490962.0014   25490962.8534
     -3695.3284
  -5087655.21449  -3956912.90648  22170167.4704   22170166.6344
       -45.8124
  16983189.23248  13224344.09746  23530998.2514   23530997.4934
     -4215.3444
   1062960.61148    831959.57745  24835628.8214   24835627.7824
     -1688.5624
   3048488.52349   2374533.63047  22207750.8844   22207749.3254
     -1253.2034
  -1990096.15949  -1543408.29046  23973767.7434   23973764.8334
     -1345.6094
  -6405745.22249  -4988345.66646  23765188.0794   23765186.3254
      1221.3284
 04  9  8 22 47  0.0050000  0  7G 3G 8G13G10G27G19G28
  11514164.30947   8970652.89842  25501519.8994   25501519.6884
     -3702.0314
  -5086937.56449  -3956353.69048  22170304.3994   22170303.7244
       -49.9694
  17046460.48448  13273646.34846  23543038.5794   23543037.4744
     -4220.8914
   1088357.20848    851749.14044  24840461.3134   24840460.4784
     -1697.6874
   3067314.73649   2389203.39947  22211333.0244   22211331.9154
     -1256.9534
  -1969842.40749  -1527626.14546  23977621.9154   23977619.1924
     -1354.9534
  -6424029.97449  -5002593.49546  23761707.9544   23761706.8494
      1216.6414
 04  9  8 22 47 15.0050000  0  7G 3G 8G13G10G27G19G28
  11569749.25547   9013965.83243  25512096.8374   25512097.4894
     -3709.0164
  -5086154.52049  -3955743.52548  22170453.1574   22170451.9814
       -54.1874
  17109817.66448  13323015.55846  23555095.0404   23555093.9894
     -4226.5164
   1113892.79449    871646.98644  24845320.9154   24845320.0914
     -1706.8444
   3086199.76349   2403919.00947  22214926.8294   22214925.1964
     -1260.7664
  -1949445.84449  -1511732.71446  23981503.4784   23981499.9584
     -1364.3594
  -6442241.55849  -5016784.31846  23758242.6344   23758240.9504
      1211.8754
 04  9  8 22 47 30.0050000  0  7G 3G 8G13G10G27G19G28
  11625439.18547   9057360.56943  25522693.7124   25522695.0014
     -3716.2814
  -5085305.91849  -3955082.27348  22170614.6424   22170613.4354
       -58.9844
  17173260.67048  13372451.63246  23567167.9074   23567166.8214
     -4232.5314
   1139567.19548    891653.01544  24850206.5564   24850205.4584
     -1716.3914
   3105143.64349   2418680.46447  22218531.5714   22218530.1654
     -1265.0784
  -1928906.39949  -1495727.95546  23985412.1104   23985408.6574
     -1374.2344
  -6460379.97649  -5030918.13746  23754791.0094   23754789.3804
      1206.5634
 04  9  8 22 47 45.0050000  0  7G 3G 8G13G10G27G19G28
  11681236.01047   9100838.58043  25533311.5484   25533312.9274
     -3723.6724
  -5084389.60849  -3954368.27448  22170789.3454   22170788.0914
       -63.6564
  17236791.54549  13421956.17646  23579257.6964   23579256.4274
     -4238.5944
   1165382.52548    911768.83744  24855118.6654   24855118.2124
     -1726.0004
   3124148.66549   2433489.56747  22222148.2904   22222146.5014
     -1269.3124
  -1908221.86949  -1479610.14446  23989347.7594   23989344.5324
     -1384.1094
  -6478442.78549  -5044993.03246  23751353.7124   23751352.2704
      1201.3914
 04  9  8 22 48  0.0050000  0  7G 3G 8G13G10G27G19G28
  11737139.19147   9144399.49743  25543950.1654   25543950.7314
     -3730.3284
  -5083405.53749  -3953601.45348  22170976.7434   22170975.0634
       -67.6874
  17300409.77248  13471528.80146  23591363.9384   23591362.4354
     -4243.9534
   1191338.48548    931994.26044  24860058.2204   24860057.5754
     -1734.9374
   3143214.78049   2448346.27647  22225776.4934   22225774.9464
     -1272.9374
  -1887392.45049  -1463379.42746  23993312.0324   23993308.7284
     -1393.2974
  -6496430.03149  -5059009.04146  23747930.5794   23747929.2824
      1196.8284
 04  9  8 22 48 15.0050000  0  7G 3G 8G13G10G27G19G28
  11793146.76947   9188041.72743  25554608.1104   25554609.3494
     -3737.2814
  -5082355.59049  -3952783.30548  22171176.2674   22171175.0014
       -72.1414
  17364113.36448  13521167.94546  23603486.5174   23603484.4194
     -4249.6724
   1217433.12448    952327.72944  24865024.4384   24865023.1964
     -1744.1874
   3162340.20649   2463249.20447  22229415.6344   22229414.4934
     -1277.0314
  -1866419.98749  -1447037.24446  23997302.5174   23997299.4504
     -1402.9064
  -6514343.42748  -5072967.49546  23744522.0094   23744520.5284
      1191.7504
 04  9  8 22 48 30.0050000  0  7G 3G 8G13G10G27G19G28
  11849261.01847   9231767.10643  25565285.9384   25565286.8334
     -3744.7814
  -5081236.86649  -3951911.56248  22171389.2594   22171388.3104
       -77.1414
  17427904.70749  13570875.46646  23615625.0794   23615623.5444
     -4255.9534
   1243669.03848    972771.28545  24870016.4854   24870015.8724
     -1754.0624
   3181527.70349   2478200.50447  22233066.8844   22233065.1064
     -1281.5164
  -1845301.81249  -1430581.52046  24001321.3534   24001318.0754
     -1412.9844
  -6532180.16448  -5086866.22646  23741127.6574   23741126.4584
      1186.2504
 04  9  8 22 48 45.0050000  0  7G 3G 8G13G10G27G19G28
  11905484.51547   9275577.61843  25575985.0714   25575985.4274
     -3751.8594
  -5080046.50249  -3950984.00148  22171615.8454   22171614.3604
       -81.7664
  17491786.35648  13620653.34246  23627781.6884   23627780.3804
     -4261.7814
   1270048.77748    993326.92144  24875036.4074   24875035.7394
     -1763.4694
   3200780.21649   2493202.45747  22236730.7674   22236728.9624
     -1285.7194
  -1824034.93048  -1414009.93246  24005368.2284   24005365.0134
     -1422.8124
  -6549937.37649  -5100703.00046  23737749.0794   23737747.2864
      1181.1884
 04  9  8 22 49  0.0050000  0  7G 3G 8G13G10G27G19G28
  11961811.30947   9319468.61943  25586703.9624   25586704.8454
     -3758.3444
  -5078790.14049  -3950005.00848  22171854.8214   22171853.4894
       -85.8284
  17555752.57749  13670497.13246  23639953.7824   23639952.5404
     -4267.1094
   1296566.61148   1013990.16844  24880082.6884   24880082.3804
     -1772.3754
   3220092.07849   2508250.66747  22240405.7744   22240404.2944
     -1289.3444
  -1802625.08849  -1397326.93246  24009442.8684   24009439.6614
     -1431.9534
  -6567620.64248  -5114482.13246  23734383.7514   23734382.2744
      1176.5784
 04  9  8 22 49 15.0050000  0  7G 3G 8G13G10G27G19G28
  12018240.47347   9363439.35243  25597442.0014   25597443.1344
     -3765.2664
  -5077468.20049  -3948974.93448  22172106.3064   22172104.8604
       -90.1414
  17619802.43048  13720406.07646  23652142.2904   23652140.9584
     -4272.6414
   1323221.82948   1034760.45444  24885154.7284   24885154.6884
     -1781.4534
   3239462.86749   2523344.78847  22244091.9704   22244090.7474
     -1293.2344
  -1781072.85849  -1380532.99546  24013543.5714   24013540.3334
     -1441.4374
  -6585230.40048  -5128203.99646  23731032.7904   23731030.5834
      1171.6414
 04  9  8 22 49 30.0050000  0  7G 3G 8G13G10G27G19G28
  12074774.69147   9407491.98043  25608199.5244   25608201.2044
     -3772.0004
  -5076077.54849  -3947891.29748  22172371.1424   22172369.6814
       -94.5624
  17683938.59149  13770382.27546  23664347.2514   23664345.6144
     -4278.2034
   1350017.19048   1055639.94544  24890253.9234   24890253.5204
     -1790.7034
   3258895.69349   2538487.24747  22247789.6884   22247788.0284
     -1297.2344
  -1759375.19548  -1363625.72446  24017672.7984   24017669.4074
     -1450.9534
  -6602763.59649  -5141866.19846  23727696.2204   23727694.9154
      1166.6724
 04  9  8 22 49 45.0050000  0  7G 3G 8G13G10G27G19G28
  12131407.34247   9451621.28243  25618976.5564   25618977.4504
     -3778.8754
  -5074624.32149  -3946758.91248  22172647.2514   22172645.9624
       -99.0004
  17748154.64949  13820420.73946  23676567.0404   23676565.4544
     -4283.8284
   1376946.25048   1076623.64044  24895378.1104   24895377.3064
     -1799.8284
   3278384.21949   2553673.10747  22251498.3604   22251497.0094
     -1301.1414
  -1737538.53349  -1346610.14946  24021828.0954   24021824.4384
     -1460.5004
  -6620226.52349  -5155473.64946  23724372.7744   23724371.1854
      1161.7974
 04  9  8 22 50  0.0050000  0  7G 3G 8G13G10G27G19G28
  12188142.96847   9495830.86443  25629773.0094   25629774.4544
     -3785.7194
  -5073103.76049  -3945574.05448  22172936.9784   22172935.7004
      -103.4844
  17812455.15049  13870525.00546  23688802.8604   23688801.5524
     -4289.4064
   1404013.74948   1097715.17944  24900529.2744   24900528.4624
     -1808.9374
   3297933.42649   2568906.25347  22255218.4624   22255216.7824
     -1305.1874
  -1715557.84549  -1329482.33646  24026010.1814   24026007.6734
     -1470.0314
  -6637614.18049  -5169022.44346  23721064.6574   23721062.7984
      1156.7974
 04  9  8 22 50 15.0050000  0  7G 3G 8G13G10G27G19G28
  12244979.29247   9540118.89743  25640588.4784   25640589.8374
     -3792.6414
  -5071517.72849  -3944338.18348  22173238.5094   22173236.9274
      -108.1254
  17876837.74049  13920693.23446  23701054.6034   23701053.3994
     -4295.0474
   1431217.42248   1118912.82944  24905705.9464   24905705.5404
     -1818.2974
   3317541.16449   2584185.02147  22258949.9544   22258948.5244
     -1309.2974
  -1693435.34849  -1312244.02346  24030220.3374   24030217.6304
     -1479.7194
  -6654928.57249  -5182514.14046  23717769.3604   23717767.3214
      1151.6724
 04  9  8 22 50 30.0050000  0  7G 3G 8G13G10G27G19G28
  12301920.40546   9584488.57942  25651424.7044   25651425.4424
     -3799.3914
  -5069861.69349  -3943047.77248  22173553.7514   22173552.2594
      -112.6874
  17941306.64349  13970928.70746  23713322.3064   23713321.2164
     -4300.7194
   1458561.67648   1140220.03144  24910909.2674   24910908.9354
     -1827.5474
   3337212.14249   2599513.05147  22262693.1494   22262691.2084
     -1313.4064
  -1671166.48349  -1294891.66046  24034457.9384   24034455.4814
     -1489.3754
  -6672165.12249  -5195945.19646  23714489.3374   23714487.6854
      1146.5634
 04  9  8 22 50 45.0050000  0  7G 3G 8G13G10G27G19G28
  12358963.56947   9628937.74543  25662279.7044   25662280.2084
     -3806.3594
  -5068138.16049  -3941704.75048  22173881.8764   22173880.6264
      -117.2664
  18005859.07448  14021229.27146  23725606.2984   23725605.1924
     -4306.3754
   1486043.83748   1161634.68543  24916138.7824   24916138.1454
     -1836.8754
   3356943.85549   2614888.41347  22266447.6654   22266445.6774
     -1317.5944
  -1648753.74949  -1277427.19246  24038723.0634   24038720.3804
     -1499.1564
  -6689326.24649  -5209317.46546  23711223.6814   23711222.1264
      1141.4534
 04  9  8 22 51  0.0050000  0  7G 3G 8G13G10G27G19G28
  12416107.88947   9673465.77443  25673152.8534   25673154.9384
     -3813.0784
  -5066347.40449  -3940309.35548  22174222.5404   22174221.2704
      -121.7664
  18070494.43849  14071594.45546  23737906.1424   23737905.4384
     -4311.9224
   1513663.27348   1183156.33044  24921394.9854   24921394.2904
     -1846.0164
   3376736.02149   2630310.87047  22270214.3374   22270212.4464
     -1321.6254
  -1626197.67549  -1259851.03446  24043015.2354   24043013.0994
     -1508.6564
  -6706412.25149  -5222631.21546  23707972.1344   23707970.6384
      1136.4534
 04  9  8 22 51 15.0060000  0  7G 3G 8G13G10G27G19G28
  12473353.67246   9718072.85242  25684047.6004   25684047.7364
     -3819.1254
  -5064492.76249  -3938864.16848  22174575.3894   22174574.3264
      -125.5314
  18135213.31549  14122024.71746  23750221.8894   23750220.9394
     -4316.7194
   1541418.36247   1204783.65444  24926676.7954   24926676.3934
     -1854.3594
   3396586.53949   2645778.80747  22273991.7254   22273989.9674
     -1324.9694
  -1603500.11549  -1242164.61446  24047334.5454   24047332.0534
     -1517.5314
  -6723427.58449  -5235889.88946  23704734.7484   23704732.8504
      1132.0634
 04  9  8 22 51 30.0060000  0  7G 3G 8G13G10G27G19G28
  12530693.92747   9762753.56443  25694958.3344   25694959.2174
     -3826.0004
  -5062573.11249  -3937368.33148  22174940.5844   22174939.9124
      -130.2194
  18200007.99149  14172514.03746  23762551.6934   23762550.8574
     -4322.3444
   1569306.12648   1226514.37344  24931983.1074   24931983.1194
     -1863.7194
   3416493.90249   2661291.04747  22277779.7794   22277778.2134
     -1329.1254
  -1580663.15049  -1224369.58546  24051680.0214   24051677.9784
     -1527.2194
  -6740368.88749  -5249090.87546  23701510.8894   23701509.2324
      1126.8914
 04  9  8 22 51 45.0060000  0  7G 3G 8G13G10G27G19G28
  12588138.20647   9807515.32443  25705889.7254   25705890.3964
     -3832.7664
  -5060582.36349  -3935817.09248  22175319.5144   22175318.0374
      -134.6564
  18264888.37648  14223070.15846  23774898.1004   23774897.2834
     -4327.7814
   1597334.27047   1248354.47343  24937316.8184   24937316.5644
     -1872.9224
   3436465.55649   2676853.36647  22281580.3894   22281578.3424
     -1333.1724
  -1557679.29149  -1206460.07746  24056053.6234   24056051.3894
     -1536.7664
  -6757231.27849  -5262230.37246  23698301.6464   23698300.1744
      1121.9534
 04  9  8 22 52  0.0060000  0  7G 3G 8G13G10G27G19G28
  12645683.74147   9852355.98543  25716840.1934   25716841.2094
     -3839.3754
  -5058522.85149  -3934212.27548  22175711.0374   22175710.2994
      -139.2194
  18329852.05749  14273691.18046  23787260.3734   23787259.4124
     -4333.2664
   1625500.27848   1270301.98943  24942676.9364   24942676.4594
     -1882.0314
   3456499.09449   2692463.91747  22285392.4824   22285391.0254
     -1337.2974
  -1534550.81949  -1188437.88946  24060455.0534   24060452.5294
     -1546.3124
  -6774017.08649  -5275310.19146  23695107.7794   23695105.4514
      1116.9064
 04  9  8 22 52 15.0060000  0  7G 3G 8G13G10G27G19G28
  12703323.79947   9897270.31843  25727809.2094   25727809.5574
     -3845.7974
  -5056400.84349  -3932558.75448  22176115.3034   22176114.0254
      -143.5314
  18394892.32148  14324371.87646  23799637.0534   23799635.8964
     -4338.5004
   1653797.65547   1292351.89743  24948060.9434   24948061.4634
     -1890.7194
   3476588.31649   2708117.84447  22289215.4204   22289213.4784
     -1341.0784
  -1511284.16649  -1170308.02146  24064882.3574   24064880.3504
     -1555.6094
  -6790732.44249  -5288335.12146  23691926.6864   23691925.1314
      1112.0784
 04  9  8 22 52 30.0060000  0  7G 3G 8G13G10G27G19G28
  12761065.10747   9942263.52543  25738797.3424   25738797.1784
     -3852.9844
  -5054209.05449  -3930850.87248  22176532.5144   22176531.6074
      -148.5624
  18460015.76649  14375117.38246  23812029.3184   23812028.4084
     -4344.4694
   1682233.14747   1314509.39043  24953472.4984   24953471.9084
     -1900.4374
   3496740.03049   2723820.48647  22293050.1234   22293048.2174
     -1345.6874
  -1487872.45949  -1152065.14646  24069337.8034   24069335.0724
     -1565.7664
  -6807370.47549  -5301299.78646  23688760.2644   23688758.8894
      1106.4534
 04  9  8 22 52 45.0060000  0  7G 3G 8G13G10G27G19G28
  12818905.71347   9987334.12443  25749803.7794   25749804.0184
     -3859.5004
  -5051949.15749  -3929089.90148  22176962.3814   22176960.9164
      -153.0474
  18525220.52749  14425926.26946  23824437.4514   23824436.4784
     -4349.8284
   1710804.97347   1336773.14543  24958909.8424   24958909.1864
     -1909.5004
   3516952.95649   2739570.81947  22296896.4754   22296894.7684
     -1349.7664
  -1464317.37849  -1133710.52746  24073819.9124   24073817.2404
     -1575.3124
  -6823932.63549  -5314205.33646  23685608.8034   23685607.2444
      1101.4694
 04  9  8 22 53  0.0060000  0  7G 3G 8G13G10G27G19G28
  12876847.31647  10032483.37643  25760829.1074   25760829.7134
     -3865.9534
  -5049619.28649  -3927274.41348  22177406.0454   22177404.6074
      -157.5624
  18590508.34449  14476799.86045  23836861.8114   23836861.0214
     -4355.1414
   1739514.90747   1359144.52343  24964372.9594   24964372.5764
     -1918.4534
   3537228.99849   2755370.32547  22300754.6394   22300752.7444
     -1353.7034
  -1440616.97949  -1115242.68446  24078329.7874   24078327.9784
     -1584.7664
  -6840416.86949  -5327050.17246  23682471.6464   23682470.3034
      1096.5004
 04  9  8 22 53 15.0060000  0  7G 3G 8G13G10G27G19G28
  12934888.55047  10077710.31643  25771875.0684   25771874.6154
     -3872.6254
  -5047220.36749  -3925405.12648  22177862.3344   22177861.0644
      -162.1414
  18655877.91248  14527737.15246  23849301.1784   23849299.8384
     -4360.5784
   1768361.65747   1381622.51043  24969862.1394   24969861.5684
     -1927.5474
   3557567.13149   2771218.22447  22304625.3344   22304623.4244
     -1357.8594
  -1416772.20049  -1096662.34146  24082867.5924   24082865.3614
     -1594.3754
  -6856824.13949  -5339835.03046  23679349.7714   23679347.7834
      1091.3444
 04  9  8 22 53 30.0060000  0  7G 3G 8G13G10G27G19G28
  12993025.04047  10123011.45143  25782937.3184   25782937.8934
     -3879.1254
  -5044756.14949  -3923484.94248  22178331.2714   22178329.8344
      -166.6414
  18721324.95749  14578734.81646  23861755.3504   23861754.1434
     -4365.8914
   1797341.10547   1404203.88443  24975376.9754   24975376.3774
     -1936.5164
   3577963.57749   2787111.56547  22308506.2954   22308505.0104
     -1361.8444
  -1392787.07749  -1077972.62846  24087431.9754   24087429.2364
     -1603.8754
  -6873158.39249  -5352562.99346  23676241.5614   23676239.8894
      1086.4064
 04  9  8 22 53 45.0060000  0  6G 8G13G10G27G19G28
  -5042222.90249  -3921510.99248  22178813.5214   22178812.2564
      -171.2814
  18786852.98049  14629795.58446  23874224.8964   23874224.0534
     -4371.2974
   1826456.78847   1426891.41442  24980917.4824   24980917.0804
     -1945.6254
   3598422.06649   2803053.22847  22312399.5684   22312397.7364
     -1365.9844
  -1368658.01549  -1059170.75546  24092023.2174   24092020.8074
     -1613.4064
  -6889415.81048  -5365231.09346  23673147.8654   23673145.8854
      1081.1724
 04  9  8 22 54  0.0060000  0  6G 8G13G10G27G19G28
  -5039617.76849  -3919481.00948  22179308.9824   22179307.5644
      -176.3914
  18852464.53448  14680921.44846  23886710.3114   23886709.0964
     -4377.2034
   1855711.25247   1449687.09042  24986484.1394   24986483.8184
     -1955.2194
   3618945.31049   2819045.36947  22316305.3184   22316303.4394
     -1370.6874
  -1344382.29949  -1040254.61246  24096643.0534   24096640.2054
     -1623.6094
  -6905593.62848  -5377837.15546  23670069.1004   23670067.6004
      1075.5634
 04  9  8 22 54 15.0060000  0  6G 8G13G10G27G19G28
  -5036944.39149  -3917397.85048  22179817.9514   22179816.6274
      -180.7814
  18918155.75449  14732109.38246  23899210.8654   23899209.7644
     -4382.3444
   1885100.89347   1472588.13043  24992076.5764   24992075.6434
     -1964.1254
   3639529.92749   2835085.33447  22320222.0214   22320220.8304
     -1374.6724
  -1319963.42549  -1021226.91046  24101289.9124   24101286.9474
     -1632.9224
  -6921695.24649  -5390383.83446  23667004.9284   23667003.3894
      1070.5944
 04  9  8 22 54 30.0060000  0  6G 8G13G10G27G19G28
  -5034202.99349  -3915261.69148  22180339.5534   22180338.5294
      -184.7814
  18983926.02349  14783358.92945  23911726.6154   23911725.3814
     -4387.0314
   1914625.20346   1495594.04543  24997694.7564   24997694.7214
     -1972.5004
   3660175.69249   2851172.95447  22324151.1704   22324149.3814
     -1378.2034
  -1295401.86349  -1002088.01846  24105963.8034   24105960.8894
     -1641.9374
  -6937720.91649  -5402871.34246  23663955.3734   23663953.7404
      1066.0474
 04  9  8 22 54 45.0060000  0  6G 8G13G10G27G19G28
  -5031390.90749  -3913070.45848  22180874.7014   22180873.2094
      -189.8594
  19049777.47748  14834671.70145  23924257.8964   23924256.8734
     -4392.8754
   1944286.36247   1518706.64943  25003339.5534   25003339.1464
     -1982.0164
   3680885.02549   2867310.08947  22328091.4284   22328089.8184
     -1382.8444
  -1270695.18149   -982836.05246  24110665.3424   24110662.0964
     -1651.9844
  -6953668.31349  -5415297.86946  23660920.7644   23660919.0924
      1060.5004
 04  9  8 22 55  0.0060000  0  6G 8G13G10G27G19G28
  -5028509.59749  -3910825.28148  22181422.9674   22181421.0644
      -194.7664
  19115708.41948  14886046.44346  23936803.9824   23936802.9514
     -4398.4224
   1974082.72447   1541924.57142  25009009.3424   25009009.2524
     -1991.2344
   3701656.47749   2883495.63547  22332044.4674   22332042.6744
     -1387.1564
  -1245844.88749   -963472.18546  24115393.9124   24115391.0494
     -1661.8444
  -6969538.70649  -5427664.37746  23657900.6864   23657898.5574
      1055.1254
 04  9  8 22 55 15.0060000  0  6G 8G13G10G27G19G28
  -5025553.46749  -3908521.79348  22181985.3654   22181983.9244
      -199.0944
  19181723.82249  14937486.98946  23949366.2094   23949365.0534
     -4403.3284
   2004019.37146   1565251.81842  25014706.2094   25014705.9984
     -2000.1254
   3722495.56249   2899733.88047  22336009.7794   22336008.3224
     -1391.1254
  -1220845.72049   -943992.31046  24120151.7324   24120148.5214
     -1671.1094
  -6985326.70049  -5439966.68846  23654896.1704   23654894.4824
      1050.2504
 04  9  8 22 55 30.0060000  0  6G 8G13G10G27G19G28
  -5022529.76849  -3906165.66848  22182560.7324   22182559.4864
      -203.8594
  19247816.29549  14988987.58146  23961943.2644   23961942.3074
     -4408.6874
   2034088.73246   1588682.46142  25020428.6544   25020428.0844
     -2009.0164
   3743395.00949   2916019.15047  22339987.1234   22339985.3264
     -1395.2664
  -1195704.90649   -924402.06546  24124935.2794   24124932.8224
     -1680.7814
  -7001039.44849  -5452210.36246  23651906.0614   23651904.6974
      1045.0004
 04  9  8 22 55 45.0060000  0  6G 8G13G10G27G19G28
  -5019439.63049  -3903757.76648  22183148.7484   22183147.5964
      -207.8594
  19313984.50948  15040547.20146  23974534.5294   23974534.0534
     -4413.4064
   2064289.69846   1612215.69942  25026175.6464   25026175.1784
     -2017.4694
   3764353.83449   2932350.70847  22343975.2014   22343973.4824
     -1398.8124
  -1170423.57149   -904702.30746  24129746.2644   24129743.5414
     -1689.7344
  -7016677.96349  -5464396.19546  23648930.3964   23648928.4394
      1040.4224
 04  9  8 22 56  0.0060000  0  6G 8G13G10G27G19G28
  -5016284.81249  -3901299.45548  22183749.3574   22183747.5764
      -212.6414
  19380226.16348  15092164.04245  23987140.0534   23987139.5184
     -4418.7504
   2094620.05247   1635849.71042  25031947.5924   25031946.9434
     -2026.4694
   3785370.10749   2948727.03047  22347974.3894   22347972.7014
     -1403.1724
  -1145003.86349   -884894.73646  24134583.4364   24134580.5454
     -1699.3284
  -7032244.21449  -5476525.72246  23645968.1544   23645966.3344
      1035.1724
 04  9  8 22 56 15.0060000  0  6G 8G13G10G27G19G28
  -5013058.07749  -3898785.11348  22184363.1624   22184361.9864
      -216.8444
  19446548.16948  15143843.48746  23999760.9514   23999760.3074
     -4423.5314
   2125086.63146   1659589.89542  25037744.8964   25037744.9364
     -2035.0164
   3806450.97449   2965153.66847  22351986.1314   22351983.9754
     -1406.9374
  -1119438.67949   -864973.81446  24139448.7014   24139445.0804
     -1708.5784
  -7047730.93149  -5488593.26246  23643020.8034   23643019.1784
      1030.4224
 04  9  8 22 56 30.0060000  0  6G 8G13G10G27G19G28
  -5009767.13949  -3896220.74048  22184989.3264   22184988.1784
      -221.3594
  19512942.53249  15195579.33546  24012395.7324   24012393.9044
     -4428.5944
   2155681.76046   1683430.25042  25043566.7404   25043566.2054
     -2043.7194
   3827588.98749   2981624.84747  22356008.4434   22356006.7134
     -1410.9534
  -1093735.57349   -844945.41746  24144339.4984   24144336.5574
     -1717.9844
  -7063145.68649  -5500604.73346  23640087.8264   23640085.7914
      1025.4224
 04  9  8 22 56 45.0060000  0  6G 8G13G10G27G19G28
  -5006408.52449  -3893603.64148  22185628.4904   22185627.3424
      -226.3284
  19579412.39548  15247373.99346  24025044.3654   24025043.3504
     -4433.9844
   2186408.59446   1707373.18542  25049413.9364   25049413.7994
     -2052.9374
   3848787.44649   2998143.12447  22360042.5534   22360040.2524
     -1415.4374
  -1067891.33449   -824807.05046  24149257.5064   24149254.3464
     -1727.7814
  -7078485.19649  -5512557.57146  23637168.4044   23637166.8384
      1019.9694
 04  9  8 22 57  0.0060000  0  6G 8G13G10G27G19G28
  -5002980.99449  -3890932.83248  22186280.6624   22186279.5024
      -230.2194
  19645958.69248  15299228.21645  24037707.4514   24037706.1434
     -4438.4374
   2217267.97447   1731419.46642  25055287.1004   25055286.2014
     -2061.0474
   3870047.72849   3014709.56947  22364088.4204   22364086.1624
     -1418.9064
  -1041904.80849   -804557.79346  24154202.6004   24154199.7684
     -1736.6724
  -7093748.11049  -5524450.72546  23634264.4284   23634262.5804
      1015.5314
 04  9  8 22 57 15.0060000  0  6G 8G13G10G27G19G28
  -4999486.48549  -3888209.83048  22186945.7874   22186944.3694
      -235.5164
  19712579.05148  15351140.15445  24050385.1464   24050384.0614
     -4444.1724
   2248257.74746   1755567.30742  25061183.4514   25061183.3814
     -2070.6874
   3891367.81349   3031322.61847  22368145.4514   22368143.1784
     -1423.6254
  -1015778.04949   -784199.28346  24159174.1624   24159171.2214
     -1746.8284
  -7108936.42449  -5536285.75646  23631373.9754   23631372.3574
      1009.7814
 04  9  8 22 57 30.0060000  0  6G 8G13G10G27G19G28
  -4995928.78349  -3885437.59148  22187622.6624   22187621.0454
      -239.4534
  19779269.46648  15403106.68745  24063075.8344   24063075.2284
     -4448.5314
   2279373.83047   1779813.61642  25067104.1784   25067104.2054
     -2078.7814
   3912743.89749   3047979.30647  22372212.9984   22372211.6034
     -1427.1724
   -989514.95249   -763734.52646  24164172.1464   24164169.1584
     -1755.6564
  -7124053.78649  -5548065.49046  23628497.8344   23628495.4594
      1005.2664
 04  9  8 22 57 45.0060000  0  6G 8G13G10G27G19G28
  -4992299.49149  -3882609.56748  22188313.1864   22188312.2284
      -243.8914
  19846037.66348  15455133.82545  24075781.4594   24075780.5684
     -4453.2974
   2310624.19446   1804164.51642  25073051.4754   25073050.7954
     -2087.4694
   3934184.21649   3064686.05047  22376293.1394   22376291.2094
     -1430.9844
   -963107.52049   -743157.30246  24169196.8504   24169193.8184
     -1764.8124
  -7139092.12049  -5559783.65046  23625635.7094   23625633.5644
      1000.4384
 04  9  8 22 58  0.0060000  0  6G 8G13G10G27G19G28
  -4988601.77549  -3879728.23548  22189017.0374   22189015.9004
      -249.2034
  19912880.28048  15507218.94045  24088501.2404   24088500.2094
     -4459.0474
   2342005.37747   1828617.37042  25079023.5214   25079022.8534
     -2096.7814
   3955685.57449   3081440.34747  22380384.5614   22380382.5214
     -1435.8594
   -936558.99449   -722470.14146  24174248.9904   24174246.2794
     -1774.9844
  -7154054.59049  -5571442.69946  23622788.7174   23622786.4004
       994.5784
 04  9  8 22 58 15.0060000  0  6G 8G13G10G27G19G28
  -4984835.85149  -3876793.73848  22189733.6004   22189731.4904
      -253.6414
  19979796.73148  15559361.60145  24101235.1074   24101233.9554
     -4463.8594
   2373516.96746   1853171.84942  25085019.4124   25085019.7994
     -2105.5164
   3977247.68349   3098241.99747  22384487.5844   22384485.8774
     -1439.8124
   -909869.73949   -701673.31146  24179327.8654   24179325.0254
     -1784.3124
  -7168941.48949  -5583042.85046  23619955.4364   23619953.5454
       989.6724
 04  9  8 22 58 30.0060000  0  6G 8G13G10G27G19G28
  -4980998.80449  -3873803.81948  22190463.8654   22190462.5804
      -258.2504
  20046789.61848  15611563.82545  24113983.3184   24113982.6434
     -4468.8124
   2405161.51347   1877829.93742  25091041.3424   25091041.2484
     -2114.1254
   3998873.63349   3115093.38547  22388603.1464   22388601.3734
     -1443.8914
   -883036.91449   -680764.61146  24184433.8964   24184430.4944
     -1793.7504
  -7183749.78749  -5594581.76046  23617137.6464   23617135.3654
       984.4844
 04  9  8 22 58 45.0060000  0  6G 8G13G10G27G19G28
  -4977094.88049  -3870761.79048  22191206.9754   22191205.0804
      -262.4064
  20113854.44048  15663822.09145  24126745.3344   24126744.4824
     -4473.3124
   2436934.58846   1902588.15342  25097087.2324   25097087.2524
     -2122.4534
   4020559.14349   3131991.18447  22392729.3504   22392728.1034
     -1447.6414
   -856064.88849   -659747.45246  24189566.6624   24189563.5684
     -1802.6724
  -7198483.59749  -5606062.62946  23614333.6074   23614331.7134
       979.8284
 04  9  8 22 59  0.0060000  0  6G 8G13G10G27G19G28
  -4973120.57049  -3867664.93248  22191962.7404   22191961.8534
      -267.3284
  20180994.06148  15716138.64445  24139521.5294   24139520.6864
     -4478.5944
   2468839.16847   1927448.85042  25103159.3114   25103158.4784
     -2131.4374
   4042307.61149   3148938.05347  22396868.1154   22396866.4864
     -1452.0624
   -828950.50249   -638619.35346  24194726.2644   24194723.5254
     -1812.4374
  -7213139.72449  -5617482.95346  23611544.7564   23611542.9204
       974.3754
 04  9  8 22 59 15.0060000  0  6G 8G13G10G27G19G28
  -4969075.62249  -3864513.01948  22192732.8654   22192731.1394
      -271.8124
  20248208.63048  15768513.60045  24152311.9754   24152311.1194
     -4483.2814
   2500875.53847   1952412.25542  25109255.2404   25109254.7134
     -2140.0004
   4064119.35849   3165934.21547  22401018.8504   22401017.5254
     -1456.0624
   -801693.40849   -617380.06246  24199913.1704   24199910.6234
     -1821.7034
  -7227717.83749  -5628842.50346  23608770.5924   23608768.5684
       969.4384
 04  9  8 22 59 30.0060000  0  6G 8G13G10G27G19G28
  -4964963.88549  -3861309.06048  22193514.9514   22193513.5294
      -276.3914
  20315493.68848  15820943.47545  24165116.3114   24165115.4004
     -4488.0314
   2533039.35647   1977474.94642  25115376.4124   25115376.2364
     -2148.6414
   4085990.38649   3182976.56547  22405180.7564   22405178.6504
     -1460.1414
   -774297.70949   -596032.76246  24205126.2564   24205123.8144
     -1831.0944
  -7242221.84949  -5640144.31147  23606010.4204   23606008.5294
       964.3754
 04  9  8 22 59 45.0060000  0  6G 8G13G10G27G19G28
  -4960778.65449  -3858047.82948  22194311.5924   22194310.0144
      -281.1564
  20382855.80048  15873433.41145  24177934.5764   24177933.5964
     -4493.1414
   2565337.08446   2002641.99142  25121522.2324   25121521.9084
     -2157.3594
   4107927.43049   3200070.36247  22409355.3264   22409353.7054
     -1464.4534
   -746756.92349   -574572.39946  24210367.1544   24210364.7364
     -1840.5944
  -7256645.09849  -5651383.18047  23603266.0454   23603263.8734
       959.0944
 04  9  8 23  0  0.0060000  0  6G 8G13G10G27G19G28
  -4956523.75249  -3854732.32448  22195121.0534   22195119.8534
      -286.1874
  20450290.78548  15925980.12645  24190767.0764   24190765.9124
     -4498.2974
   2597764.55947   2027910.15242  25127692.8264   25127692.5644
     -2166.4064
   4129926.69749   3217212.65647  22413541.7484   22413539.9594
     -1468.8754
   -719075.03949   -553002.10746  24215635.0144   24215631.8534
     -1850.4224
  -7270991.29549  -5662562.00847  23600535.9824   23600533.8854
       953.6724
 04  9  8 23  0 15.0060000  0  6G 8G13G10G27G19G28
  -4952199.66249  -3851362.90148  22195943.9754   22195942.6704
      -290.3444
  20517797.72948  15978582.91445  24203613.5924   24203612.3654
     -4502.5784
   2630321.01447   2053278.77542  25133887.8814   25133887.3264
     -2174.6414
   4151987.75049   3234403.08647  22417739.6074   22417738.0614
     -1472.5944
   -691252.52549   -531322.22946  24220929.3114   24220926.3504
     -1859.3444
  -7285260.91749  -5673681.17747  23597820.6464   23597818.7834
       948.9224
 04  9  8 23  0 30.0060000  0  6G 8G13G10G27G19G28
  -4947805.89849  -3847939.18648  22196780.1154   22196778.4904
      -295.5004
  20585376.76548  16031241.87145  24216473.0454   24216472.1704
     -4507.8754
   2663006.65147   2078748.09842  25140107.3964   25140107.4634
     -2183.5944
   4174110.97049   3251641.95447  22421949.4594   22421947.3384
     -1477.1564
   -663289.09549   -509532.54846  24226250.1864   24226247.5494
     -1869.1254
  -7299453.64949  -5684740.42947  23595119.4594   23595117.8224
       943.4064
